GFSSE_500_spd_000.txt.gz
Wind_Speed
17 17 18 18 18 18 18 19 16 11 9 8 9 10 12 11 12 13 13 14 14 15 17 17 17 17 17 17 18 19 18 19 19 20 18 18 18 15 13 11 8 9 10
19 20 20 18 17 16 18 18 14 13 11 9 9 9 10 10 12 13 14 15 14 14 15 14 15 16 18 18 19 21 22 22 23 22 21 21 19 17 16 13 12 10 10
19 20 21 19 18 17 18 16 13 12 12 10 10 10 9 9 13 16 18 17 15 14 15 14 14 15 17 19 21 23 25 25 25 24 24 24 22 19 19 17 17 15 13
20 19 20 18 18 17 18 16 13 13 12 10 10 9 9 10 12 14 19 19 18 16 16 16 17 18 19 19 22 25 27 28 27 28 28 28 24 23 22 23 22 20 19
22 19 17 17 18 18 17 14 11 12 11 12 11 10 11 11 10 12 17 19 19 19 19 19 21 22 23 23 24 25 26 29 29 29 31 28 26 26 25 25 25 24 23
20 19 17 18 19 19 16 12 11 11 11 11 12 13 13 14 13 13 13 17 21 22 23 23 24 25 26 27 28 28 28 28 29 29 28 27 28 28 28 28 28 27 28
17 17 18 18 19 19 15 11 11 11 12 12 13 13 14 14 15 17 18 17 19 20 22 24 24 24 25 26 28 28 27 27 27 27 26 25 28 31 31 33 33 34 33
17 18 19 20 20 19 16 13 12 11 11 11 11 11 13 15 16 17 19 20 21 23 24 25 26 27 28 28 27 28 28 28 28 29 30 29 29 31 33 35 37 38 38
16 17 19 21 22 20 18 15 13 13 11 10 8 8 9 9 10 13 16 19 21 23 25 27 28 29 30 30 30 30 30 31 33 34 34 35 35 37 38 39 39 41 42
18 18 21 22 23 22 21 18 15 14 12 13 10 10 13 13 14 13 14 15 17 19 21 23 25 27 29 31 31 32 33 34 34 35 36 37 38 40 40 41 42 45 46
17 20 23 26 24 24 23 21 18 17 16 14 12 13 14 16 18 19 18 18 20 20 22 23 24 25 27 29 31 33 34 35 35 36 38 39 40 42 43 43 43 43 42
21 21 22 28 27 26 25 23 22 20 19 18 15 16 18 20 23 23 23 24 25 25 27 27 27 28 29 31 32 33 34 36 37 38 39 40 40 40 38 36 36 34 33
20 22 23 26 29 27 26 24 25 21 20 20 21 23 27 31 30 31 30 28 28 29 30 32 32 33 35 36 36 36 36 36 36 37 37 37 37 36 35 34 34 34 37
26 22 22 23 29 27 27 28 25 24 23 24 23 26 27 29 30 32 34 33 33 33 33 34 35 36 37 36 36 36 36 36 35 35 35 34 35 36 37 38 39 40 40
26 26 25 22 25 27 29 29 27 28 28 26 25 26 27 28 30 33 35 36 36 34 33 33 35 36 35 34 33 31 31 32 32 33 33 35 36 38 38 40 41 42 43
27 28 27 26 24 23 26 27 28 31 30 29 29 28 30 31 31 33 32 29 29 33 32 32 35 36 34 32 32 32 33 34 34 35 37 38 39 39 40 42 42 44 46
27 28 27 27 25 22 22 25 27 31 30 29 29 30 29 33 30 26 27 26 27 29 31 33 36 37 36 34 34 35 36 37 37 38 40 40 41 41 43 45 45 47 49
26 27 24 25 24 23 23 23 23 27 26 26 28 29 31 31 25 25 26 28 30 32 34 37 40 40 37 35 35 37 38 39 40 41 41 42 43 44 46 47 48 50 51
27 26 24 23 23 23 21 21 22 23 23 25 26 29 29 26 25 28 29 33 34 36 39 42 43 42 38 37 38 39 41 41 41 42 43 45 46 48 50 52 54 57 60
27 27 23 21 22 23 21 20 21 23 25 27 28 31 29 29 30 33 34 37 39 40 42 43 45 44 40 38 39 40 41 41 43 44 47 49 51 54 57 60 62 65 66
28 26 23 19 25 25 21 20 21 25 27 29 31 30 31 29 32 35 38 40 42 42 43 44 43 42 41 40 39 41 44 45 47 50 53 55 58 61 64 66 68 70 71
28 26 24 22 24 26 23 22 24 27 28 29 29 28 29 31 35 38 41 43 43 44 44 41 37 38 41 42 43 44 45 48 51 55 57 60 63 64 67 69 70 72 73
29 28 26 24 24 26 26 26 28 29 28 27 26 28 32 36 39 42 42 42 43 39 36 37 39 40 43 47 49 51 53 54 55 56 59 62 65 66 67 68 70 71 73
29 30 29 27 25 27 28 29 30 29 28 28 29 33 37 39 40 41 42 41 37 37 38 40 43 44 46 49 53 58 63 66 68 67 64 64 66 67 67 67 69 72 74
28 29 29 29 28 29 31 32 31 28 29 31 33 38 40 40 41 41 40 38 39 39 42 44 46 49 52 55 57 60 64 67 71 74 73 71 66 64 66 70 74 77 81
28 28 28 28 30 30 33 32 29 30 32 34 38 40 40 40 40 39 38 40 41 42 44 46 49 52 55 59 61 65 68 69 69 70 70 71 74 76 77 77 81 86 89

GFSSE_500_spd_003.txt.gz
Wind_Speed
16 16 16 16 18 18 19 18 17 17 16 12 9 7 7 9 8 11 13 16 16 16 18 19 20 20 19 18 19 22 23 22 22 22 22 23 22 22 21 20 17 13 11
17 17 18 17 18 17 18 19 17 17 15 13 10 10 9 9 10 12 15 17 18 18 18 19 20 21 21 22 22 23 23 23 24 25 26 27 27 26 23 22 19 16 13
19 18 19 20 19 19 18 18 18 15 13 12 11 11 10 11 10 14 17 18 19 20 18 18 18 19 19 20 21 23 25 26 28 29 30 31 30 29 27 24 22 20 19
22 19 20 21 21 20 18 17 16 15 13 13 13 11 11 11 10 14 16 19 20 20 20 19 19 20 20 21 22 24 26 28 31 34 33 33 32 32 30 28 26 24 24
21 20 21 22 21 20 18 17 16 15 14 12 12 12 13 13 13 12 12 16 20 21 21 21 22 22 23 25 26 27 29 29 31 32 33 34 34 33 32 32 30 29 28
20 22 22 21 19 18 18 17 15 14 12 11 13 13 12 13 15 15 15 16 15 18 22 23 24 24 25 25 27 28 30 31 32 32 32 32 32 32 32 33 32 31 30
20 20 20 19 20 18 17 16 14 14 11 11 11 12 12 13 15 16 16 18 19 21 22 22 24 24 24 26 26 27 29 30 30 31 31 30 30 31 30 31 33 34 35
16 17 18 19 20 19 18 16 15 14 12 10 10 10 10 9 12 15 17 17 19 21 23 25 26 28 28 29 30 31 31 33 33 33 33 33 33 33 34 33 34 36 38
14 15 17 19 20 20 20 18 16 16 15 12 10 8 6 7 8 10 12 14 15 18 21 23 25 27 28 30 31 33 34 35 37 36 36 36 36 36 37 38 39 40 43
14 16 19 20 21 21 21 20 18 18 17 15 14 12 11 12 12 15 17 19 19 20 21 22 23 25 25 27 29 31 34 37 38 39 39 38 39 39 39 40 41 41 43
16 17 17 20 22 23 23 22 22 22 18 17 16 15 14 13 15 19 22 24 24 24 25 26 27 27 28 29 30 31 34 36 37 38 39 39 39 39 40 42 43 44 43
19 20 19 20 21 25 26 25 25 24 23 20 20 18 16 17 21 26 29 32 32 31 31 30 30 31 32 33 35 37 38 38 38 39 40 40 40 40 40 40 40 39 38
21 19 20 22 22 23 27 27 26 25 26 24 22 21 21 23 27 29 32 33 33 35 35 34 33 33 34 35 36 37 37 36 37 38 38 38 39 39 38 37 36 36 35
22 21 24 24 23 23 22 26 26 27 27 27 24 23 23 26 29 33 34 35 38 37 36 35 33 33 34 36 36 37 36 36 34 34 34 35 36 37 38 38 39 39 40
21 25 27 25 25 22 22 22 25 26 28 29 28 27 26 29 30 33 33 33 32 30 30 27 29 30 31 33 35 36 35 34 33 34 35 36 37 37 39 40 41 42 43
24 23 26 26 26 25 23 21 23 25 27 30 32 29 30 32 32 33 33 31 26 25 26 27 27 29 32 36 38 38 37 35 35 36 37 39 40 40 41 42 43 43 44
24 27 27 27 25 25 24 22 22 23 25 27 29 29 29 31 32 32 31 26 25 26 28 30 31 33 36 38 38 38 37 37 37 38 40 41 42 44 44 44 44 45 46
26 27 29 27 24 24 24 24 22 22 21 23 25 25 28 31 29 32 26 25 27 30 33 34 37 39 40 41 44 42 40 40 41 42 43 43 44 45 46 47 48 49 50
27 28 29 28 23 23 24 25 23 22 20 21 23 25 27 29 31 32 31 29 31 35 37 37 39 41 43 44 46 45 41 40 42 43 44 45 47 47 49 51 53 54 56
28 28 28 27 23 23 25 25 23 21 20 22 25 28 30 31 31 32 29 30 33 36 39 42 45 45 45 43 41 40 40 40 42 45 46 48 50 52 54 57 59 61 62
28 30 27 27 25 24 25 26 24 21 21 23 25 28 31 31 27 27 29 32 37 40 42 43 47 46 39 34 35 38 41 42 44 46 49 53 56 57 60 62 64 66 67
29 29 30 28 28 25 25 27 26 24 25 26 28 29 29 26 26 29 33 37 39 41 43 46 44 37 37 38 39 40 41 44 48 51 53 56 60 61 64 66 68 69 69
30 27 31 30 28 26 24 28 29 28 28 29 31 31 30 30 30 34 38 39 41 43 46 42 38 39 41 44 44 46 47 48 50 52 56 59 62 64 65 66 65 64 65
32 29 30 32 30 27 26 26 29 31 32 33 34 32 34 33 35 39 40 41 43 45 43 40 41 42 44 46 50 53 56 60 60 58 56 60 62 62 62 61 62 65 68
33 32 31 32 32 30 29 29 30 32 34 35 35 36 36 37 40 41 42 42 43 43 41 42 43 45 48 50 53 56 59 62 67 67 64 62 58 57 59 62 66 69 74
32 32 29 29 30 30 32 33 34 34 36 37 38 38 39 41 42 41 41 42 41 41 42 44 46 50 52 56 59 61 64 65 66 69 69 69 69 66 67 69 73 77 82

GFSSE_500_spd_006.txt.gz
Wind_Speed
15 15 15 15 16 15 15 17 18 18 17 16 13 12 11 9 10 11 13 13 13 14 16 17 19 21 21 21 21 21 21 21 22 23 24 23 23 23 23 24 23 22 18
14 15 17 17 17 17 16 15 17 17 16 15 13 12 10 9 8 12 12 13 14 15 16 17 19 20 22 23 23 23 23 23 23 24 25 26 27 27 28 27 24 23 22
15 15 17 18 18 16 17 16 16 15 15 14 12 11 9 9 11 11 13 14 15 16 16 17 17 18 18 19 20 21 21 24 25 26 27 29 31 31 31 30 28 26 26
20 16 18 19 19 18 17 16 15 14 12 12 10 10 9 9 9 10 11 12 16 18 19 18 18 19 19 20 21 22 24 25 27 27 29 30 32 35 34 32 31 29 29
19 18 20 20 20 18 16 15 14 13 12 11 10 10 10 11 10 11 13 12 11 13 17 19 20 20 21 22 24 25 25 28 29 30 31 32 32 33 34 34 33 32 32
20 18 21 21 20 17 15 15 14 13 12 10 9 9 9 10 12 11 13 14 15 16 16 17 19 22 24 24 24 25 25 25 27 27 28 29 30 30 31 31 32 31 32
21 19 22 22 19 17 14 15 15 13 12 10 10 8 9 9 11 12 13 15 17 18 19 21 23 25 26 26 27 27 29 30 31 31 31 31 31 31 31 31 31 31 29
19 19 20 20 19 17 16 16 15 15 14 11 10 8 7 7 7 7 8 11 13 16 19 20 22 24 26 28 29 31 31 33 33 34 35 35 35 35 34 34 34 34 34
18 19 19 19 20 19 18 18 17 17 16 14 12 10 8 7 8 8 11 12 13 16 18 18 20 21 22 23 24 26 27 29 31 33 35 36 37 38 38 38 37 36 37
18 18 19 18 18 19 19 20 19 18 18 16 15 14 13 12 11 13 16 17 20 22 23 24 25 25 26 28 27 28 29 30 31 32 34 34 35 37 37 38 38 39 39
18 19 20 17 15 18 19 21 20 20 20 19 18 17 16 15 14 16 19 21 26 29 32 32 31 30 31 31 30 31 32 33 35 36 37 38 38 38 38 39 39 41 41
19 20 21 19 18 18 20 21 23 22 23 23 22 21 20 18 17 20 22 26 29 31 33 35 36 35 35 34 33 33 33 34 34 35 36 35 36 38 40 40 39 39 39
23 20 23 23 22 23 21 20 21 24 24 26 26 25 22 22 21 22 25 29 32 34 35 37 35 34 34 33 33 32 32 32 33 33 32 31 31 31 33 34 35 35 34
26 24 24 24 27 25 22 19 18 22 25 26 28 29 26 22 23 25 28 30 34 36 34 29 25 24 24 27 30 30 31 33 34 35 35 34 33 34 34 35 35 36 37
24 26 27 28 30 27 24 20 20 20 23 25 27 29 28 26 27 28 31 33 34 33 29 25 23 25 26 27 28 31 35 35 36 36 35 36 35 36 36 37 38 39 41
25 27 29 30 31 29 27 23 22 22 22 22 24 26 27 28 29 31 32 33 33 32 27 25 25 28 30 32 34 36 37 38 39 39 38 37 36 37 39 40 41 42 43
27 29 28 28 31 29 28 25 23 25 22 22 23 23 24 27 29 29 29 31 33 30 27 27 28 31 34 36 38 41 43 43 42 40 39 39 39 40 41 42 43 44 44
28 28 29 29 29 29 28 26 26 27 22 22 21 20 22 24 25 26 30 32 33 32 31 29 32 34 37 40 43 44 44 44 43 39 37 38 40 41 42 44 45 46 46
31 29 29 30 30 28 27 27 27 28 25 23 21 20 22 23 24 27 31 33 33 30 30 32 33 37 40 41 43 43 40 36 36 37 38 39 41 42 44 46 48 50 52
34 32 30 31 30 28 29 27 28 29 26 22 21 21 22 23 26 30 33 32 28 28 32 34 37 37 39 41 41 36 34 36 38 40 41 43 45 47 49 51 53 55 56
35 34 32 31 30 28 29 29 29 30 27 23 23 23 23 25 28 30 30 28 29 31 35 38 38 39 41 41 35 37 37 40 41 42 44 46 50 52 54 57 58 59 61
36 35 33 31 32 30 29 28 28 27 27 26 24 26 26 28 30 31 32 32 33 36 39 39 39 42 43 39 37 37 39 43 46 47 49 51 54 55 58 61 63 64 65
38 35 36 32 34 34 30 28 26 27 30 28 27 29 30 31 33 34 35 37 38 40 42 41 42 44 43 41 40 41 43 44 45 46 51 55 57 61 62 63 63 64 63
39 36 37 35 34 36 32 28 29 28 29 31 31 33 34 35 36 38 40 41 42 44 42 42 44 42 41 42 44 48 50 53 54 54 52 56 58 59 61 61 60 61 63
39 37 38 38 36 33 33 31 32 31 30 31 32 35 37 38 40 41 43 44 45 43 43 44 43 41 43 45 48 51 54 58 62 63 62 57 60 61 60 60 62 64 66
40 38 38 38 38 35 32 34 35 34 33 34 35 37 38 41 43 44 45 46 45 43 44 43 43 44 46 50 53 57 60 63 65 65 63 64 64 64 64 63 65 68 72

GFSSE_500_spd_009.txt.gz
Wind_Speed
13 13 13 15 14 13 12 13 12 12 12 12 10 10 9 8 8 7 7 8 10 12 12 14 16 18 20 21 21 21 20 21 21 21 21 21 22 23 23 23 23 22 21
14 13 15 16 14 14 14 13 14 14 13 11 10 9 9 7 6 7 8 9 11 12 13 14 16 18 19 20 21 21 21 21 22 22 22 23 24 24 25 26 26 27 24
15 15 16 16 15 13 13 14 14 13 12 11 10 9 8 7 6 7 10 9 13 12 14 15 16 17 17 18 18 18 17 19 20 22 23 25 26 27 28 29 29 29 27
17 16 16 16 15 14 13 15 14 13 11 10 10 9 8 7 8 9 9 8 10 13 16 17 18 18 18 19 19 20 20 21 23 24 26 26 27 27 29 30 30 30 29
20 19 18 17 15 13 15 14 13 12 10 9 10 10 9 7 8 9 11 13 10 10 9 12 16 18 19 21 22 24 24 25 26 26 26 27 27 27 27 28 29 29 29
21 24 20 20 17 14 15 15 13 11 10 10 10 9 10 8 7 9 10 12 13 14 14 15 17 18 19 19 21 23 24 25 25 26 27 27 28 28 28 28 28 28 28
28 27 24 22 19 15 15 15 14 12 11 10 10 10 9 9 9 9 10 10 11 12 14 17 18 20 21 22 23 25 26 27 29 30 31 32 32 31 33 32 32 31 30
26 24 24 23 20 17 16 17 15 13 12 12 12 10 9 9 9 8 7 5 5 6 8 11 14 15 18 19 21 22 22 23 25 27 29 30 31 32 34 34 34 35 34
26 25 25 22 21 19 17 18 18 15 14 14 14 13 11 11 10 10 10 11 13 14 15 17 19 21 22 22 22 23 24 26 25 26 28 29 30 32 33 34 34 35 35
22 23 23 23 22 19 17 18 19 17 17 17 17 16 15 16 15 14 13 13 15 20 22 25 27 29 29 28 28 28 27 27 27 28 29 31 33 34 36 36 35 35 36
23 24 24 24 22 19 18 17 17 19 19 19 19 19 18 19 19 18 17 16 18 22 25 26 29 32 32 31 31 30 29 28 29 29 30 31 32 33 34 35 35 37 36
25 26 26 25 24 20 19 19 17 18 22 21 22 22 22 21 22 22 20 20 20 25 27 28 32 31 27 25 26 26 28 29 30 29 28 29 29 30 30 30 31 31 32
27 27 27 27 26 22 24 22 20 20 22 25 24 24 24 26 25 23 22 20 22 27 27 31 33 25 19 19 19 19 22 23 26 28 27 29 29 29 29 29 29 29 29
29 29 29 28 26 26 27 25 22 21 22 24 27 26 26 27 28 26 22 22 25 28 29 32 30 22 19 22 21 22 22 25 28 30 32 34 35 34 34 33 33 33 33
27 31 31 31 30 30 29 29 25 22 23 23 26 26 25 28 28 26 25 25 27 30 31 32 28 23 23 24 24 27 29 31 34 36 37 37 37 37 36 35 35 36 37
30 29 31 33 33 34 32 31 29 26 25 26 26 27 25 26 26 25 25 27 30 30 31 30 28 25 26 28 29 32 34 36 39 41 42 41 40 38 37 37 38 38 39
31 32 32 32 32 32 33 33 32 31 27 26 27 26 25 24 23 23 25 27 28 30 31 31 29 29 29 31 33 36 39 38 40 41 41 38 36 35 35 37 38 39 40
31 32 33 33 31 32 34 34 35 33 29 27 28 26 24 23 22 23 24 25 27 31 31 31 30 28 30 33 36 38 39 40 39 34 31 32 34 35 37 39 40 41 41
37 34 35 33 31 32 35 36 34 33 28 28 28 29 24 24 23 24 24 26 29 32 33 30 28 28 32 36 38 38 41 40 36 33 34 36 38 39 40 42 44 45 47
40 39 37 35 33 33 35 36 35 33 29 28 28 29 25 27 24 25 25 28 30 33 30 29 29 31 36 39 39 40 41 39 37 36 37 40 42 45 47 49 51 53 54
33 40 42 38 35 36 38 38 35 33 29 28 28 27 28 27 27 26 27 28 30 31 31 32 34 36 38 38 40 42 40 38 38 39 42 44 47 49 52 54 55 57 58
36 37 43 41 38 38 39 39 33 32 30 27 27 31 30 29 29 29 29 30 32 33 35 37 39 41 40 39 40 39 40 40 41 42 45 48 50 53 56 58 60 61 61
38 37 40 42 39 40 39 37 32 31 30 28 29 32 32 31 32 33 33 34 35 37 39 41 44 45 43 42 42 42 40 39 41 44 47 52 55 57 60 62 62 62 64
38 38 38 43 40 40 38 34 33 33 32 31 29 32 35 35 36 37 38 38 39 40 43 45 47 46 45 45 44 42 44 45 47 47 47 50 54 60 60 62 64 65 65
40 40 38 42 43 40 37 34 33 36 33 32 32 34 35 37 38 39 39 40 42 44 46 49 49 47 47 45 44 46 48 51 54 56 55 56 59 59 63 65 65 63 63
41 42 40 39 42 40 37 35 35 36 36 35 35 37 38 37 38 40 40 42 43 46 50 50 49 48 46 45 47 49 52 54 57 61 63 64 62 63 65 65 64 63 66

GFSSE_500_spd_012.txt.gz
Wind_Speed
16 15 14 15 17 16 14 13 11 11 11 10 10 9 10 10 10 9 8 8 9 11 12 13 14 15 16 16 17 19 20 20 20 21 21 22 22 22 23 24 24 24 23
17 15 16 15 16 17 16 14 13 13 13 11 10 10 10 11 11 10 10 10 9 12 14 15 16 17 17 18 17 18 20 20 21 21 21 23 23 23 24 25 26 27 28
18 17 17 18 18 17 17 15 14 13 14 13 10 9 10 11 11 11 11 12 13 14 14 16 17 17 17 17 18 17 18 17 18 18 20 20 22 23 25 26 27 28 29
18 17 17 18 18 17 16 16 15 15 14 13 12 10 10 11 12 12 12 12 13 15 17 18 18 19 18 19 19 19 20 21 22 22 22 24 25 26 26 28 28 29 29
20 21 19 17 18 18 18 16 16 15 14 13 12 10 11 11 12 12 12 13 14 13 12 11 12 14 15 18 18 20 22 23 23 23 23 23 23 24 23 24 25 26 27
22 25 22 24 21 19 18 16 15 15 15 14 13 12 12 12 12 12 12 13 13 14 15 16 16 16 17 19 20 21 22 23 24 24 24 26 27 28 28 28 29 29 31
28 26 25 28 28 23 19 17 16 16 15 15 13 13 13 12 12 12 12 12 11 12 13 14 14 14 15 17 17 20 21 23 25 24 25 25 26 28 30 29 30 31 32
27 27 26 25 28 25 20 17 17 17 16 16 15 15 14 14 13 13 12 11 9 8 7 9 11 13 15 17 18 19 20 21 22 22 22 23 24 25 28 28 30 31 32
27 26 28 27 28 25 21 19 19 18 17 17 17 17 16 16 16 14 13 12 12 12 14 16 20 22 24 26 27 27 26 25 25 25 25 26 26 28 30 31 33 34 35
28 26 28 29 27 25 22 20 20 18 18 18 18 19 19 19 19 18 17 17 16 15 17 21 21 24 24 28 29 28 28 29 28 26 27 27 27 28 29 30 32 33 34
27 26 28 30 27 24 24 21 20 19 20 20 20 21 21 22 22 22 21 21 20 19 19 20 23 24 26 24 22 22 23 24 25 24 26 27 27 29 30 31 31 30 30
28 27 30 31 29 26 25 22 21 20 19 21 22 22 23 25 25 23 24 24 23 22 21 21 25 25 27 20 15 14 15 17 20 21 23 24 27 26 27 28 28 30 30
32 29 30 33 30 29 29 27 26 23 20 21 23 26 27 28 27 28 27 27 27 25 23 23 27 27 28 23 18 16 18 19 21 21 25 27 29 30 31 32 32 32 30
34 31 32 34 34 32 31 29 28 26 24 23 24 27 30 30 29 29 31 30 28 27 26 25 28 30 29 25 22 21 22 23 25 27 29 31 35 37 37 38 37 35 35
35 33 32 35 37 35 38 33 31 29 28 27 27 27 29 31 31 29 31 31 30 29 26 27 31 30 30 28 25 26 26 28 29 31 35 37 39 40 39 38 38 38 37
36 36 34 34 37 38 37 36 33 32 33 31 27 28 29 30 29 30 31 30 30 29 28 30 31 30 31 30 30 30 30 31 33 36 35 39 40 38 36 33 32 33 35
37 37 35 34 36 36 37 36 35 37 37 34 28 27 30 31 30 30 31 29 30 29 29 29 31 32 32 33 32 32 32 34 36 36 38 40 38 34 32 33 34 35 37
41 38 37 35 35 37 37 36 36 38 38 35 31 30 30 33 33 30 31 30 30 30 30 30 31 33 35 33 31 32 34 37 37 38 40 39 36 35 35 37 39 40 41
39 42 40 38 37 38 36 34 37 39 39 36 33 32 33 33 33 32 31 32 31 30 30 31 32 35 33 31 33 35 37 40 39 40 40 40 38 39 40 41 43 45 47
40 40 45 42 41 40 37 35 37 39 39 35 35 33 33 34 34 34 33 32 31 30 30 32 32 33 32 34 36 39 41 42 41 42 43 42 41 42 44 46 49 50 51
44 41 39 46 44 44 40 38 38 38 38 36 34 34 34 32 34 35 33 31 31 32 32 33 34 35 36 38 41 42 44 43 43 44 44 44 45 46 48 51 52 54 56
46 45 40 40 47 47 42 43 40 40 38 35 34 34 34 33 36 36 35 34 34 34 35 36 36 38 40 42 43 47 48 46 46 46 46 47 49 50 52 55 57 59 61
47 48 43 42 45 49 46 44 42 42 38 35 35 35 34 34 35 38 37 36 37 38 39 40 41 42 43 45 46 48 48 47 47 47 47 50 53 55 57 59 61 64 66
45 48 43 43 46 45 47 45 41 41 37 36 35 35 36 34 34 37 39 39 40 41 43 43 44 45 47 48 49 51 50 50 49 47 47 51 54 57 60 62 65 69 69
46 45 42 44 46 45 46 45 42 39 36 35 37 37 36 36 35 37 39 41 42 43 45 46 47 47 49 50 52 52 51 50 51 51 52 54 57 59 61 64 68 68 70
47 44 42 44 45 45 44 43 41 38 37 36 36 38 39 37 37 39 40 41 44 45 47 48 49 49 51 53 53 52 52 52 53 56 58 59 60 61 64 64 67 71 72

GFSSE_500_spd_015.txt.gz
Wind_Speed
19 18 19 18 18 21 21 19 18 16 15 14 13 14 14 14 14 13 12 10 11 11 12 13 13 14 15 15 16 16 17 17 18 18 19 19 20 20 21 22 23 23 24
20 20 18 19 18 19 22 22 21 19 17 16 15 14 15 14 14 14 13 11 12 13 13 14 15 15 15 16 17 18 17 17 17 18 19 19 20 22 22 23 24 24 26
22 21 18 19 19 20 19 21 21 20 19 17 16 15 14 15 14 14 14 14 14 16 16 15 16 17 17 18 18 18 17 18 18 18 19 19 20 20 22 24 25 26 26
24 23 20 18 19 20 19 19 19 19 19 18 17 16 15 14 14 14 15 15 16 16 17 18 19 18 18 19 19 18 18 19 20 20 21 22 23 24 25 26 26 25 25
24 24 22 19 18 19 20 20 20 19 19 18 17 16 15 14 14 15 16 17 17 17 16 14 14 15 14 14 15 16 18 20 20 22 22 22 23 24 23 25 25 26 27
22 23 25 24 23 21 20 21 22 21 19 19 18 17 16 16 16 16 16 16 16 16 17 18 18 18 17 17 18 18 20 21 22 22 24 25 25 27 27 28 28 29 29
25 24 25 27 26 26 26 23 23 22 19 19 19 18 16 16 16 16 16 16 15 15 16 15 15 15 14 14 14 16 19 19 20 20 21 22 23 24 24 25 26 26 28
30 29 30 29 27 25 26 23 24 24 20 19 19 19 17 17 17 17 17 16 15 15 14 13 13 13 14 16 19 22 23 23 23 23 24 24 25 25 25 26 28 28 30
28 29 29 28 27 27 26 23 23 23 22 21 20 21 19 18 18 18 18 17 15 15 15 16 18 19 22 22 24 26 30 31 29 28 28 26 26 26 26 26 27 27 29
30 30 28 29 28 28 28 24 23 23 21 21 21 22 22 21 20 19 19 19 19 19 19 20 20 22 22 25 24 25 25 25 27 28 27 29 27 26 27 27 27 29 29
31 30 30 29 30 26 28 26 25 23 22 21 21 23 24 24 23 22 23 23 23 24 24 24 23 23 23 25 24 22 17 16 18 22 22 24 25 25 26 27 28 29 28
34 32 32 31 29 28 31 29 27 25 23 21 21 23 24 25 26 26 25 26 27 27 28 27 26 25 25 27 26 24 21 17 16 16 18 19 21 23 25 28 29 29 29
36 33 34 32 32 31 30 30 26 28 27 25 23 22 25 27 27 28 29 30 30 30 30 30 28 27 28 29 28 26 24 22 20 21 22 23 26 26 29 31 32 34 35
36 35 35 35 34 33 32 31 31 30 31 29 27 27 27 28 30 31 31 33 34 34 32 31 31 30 30 31 30 28 28 27 26 25 26 27 29 31 33 35 36 36 35
36 36 37 36 34 35 34 35 34 37 33 31 33 31 30 29 28 29 32 34 35 35 35 34 35 32 30 34 31 31 29 30 30 29 29 29 33 34 36 36 36 36 34
39 37 38 37 36 35 36 36 36 35 34 34 35 36 32 29 28 28 30 33 35 35 35 36 35 32 33 34 33 33 33 33 33 34 32 34 34 36 38 38 36 34 33
39 40 37 37 37 37 36 36 37 37 38 37 37 38 35 31 32 30 31 34 36 35 35 35 34 33 33 33 34 35 36 34 33 33 35 37 37 38 39 39 37 36 36
36 38 41 39 37 37 36 36 37 38 40 38 38 38 36 34 34 33 34 36 36 36 35 36 35 35 34 34 35 37 35 32 33 35 37 40 40 40 41 42 39 39 39
35 36 37 42 41 39 38 38 38 39 38 37 38 38 37 34 35 36 36 37 37 36 36 37 36 35 35 33 34 33 33 34 36 38 39 41 42 42 43 43 43 42 43
38 39 37 37 41 43 41 40 40 41 38 37 37 37 38 36 37 39 38 36 38 38 37 37 36 36 35 35 35 35 36 38 40 41 42 44 44 46 46 46 45 46 47
42 39 41 39 40 42 45 43 43 42 39 39 38 37 36 36 38 40 38 37 39 39 39 37 37 37 38 37 38 38 41 43 43 45 45 47 47 48 49 49 49 50 52
48 45 44 45 43 43 41 47 48 47 43 40 39 38 37 36 37 39 39 39 39 40 40 40 40 40 41 42 42 42 44 46 47 49 50 51 51 51 52 52 53 55 57
52 48 47 45 48 45 42 47 48 50 45 43 39 41 39 38 38 38 38 39 40 40 42 42 43 43 44 46 45 46 46 48 49 50 51 52 53 53 54 54 57 60 62
50 51 51 48 51 49 42 47 47 47 48 44 42 40 40 39 38 37 38 39 40 41 43 45 47 47 47 47 47 48 49 50 51 51 51 53 53 54 56 58 61 64 67
51 53 51 50 49 49 42 46 49 48 43 41 41 41 40 39 40 38 38 41 42 42 43 45 47 47 48 49 50 50 50 51 53 54 52 53 55 56 59 60 62 64 66
51 52 52 51 48 46 44 46 49 46 41 42 41 42 40 40 39 40 40 42 44 45 46 47 49 49 49 50 51 51 52 53 54 56 57 55 56 58 63 66 65 65 65

GFSSE_500_spd_018.txt.gz
Wind_Speed
18 22 22 22 21 20 21 23 22 21 19 18 17 16 15 15 15 14 13 13 13 12 12 12 14 14 14 14 14 14 14 16 16 17 17 18 18 19 19 21 22 21 22
21 21 21 21 20 20 20 22 24 23 22 20 19 18 17 16 16 15 16 15 14 13 13 14 15 16 15 15 15 15 16 17 16 17 17 18 18 20 21 22 23 21 23
22 22 20 19 21 21 21 20 23 24 23 23 22 20 19 18 17 17 17 16 15 15 15 15 16 16 15 16 16 17 17 17 17 17 17 18 18 19 20 21 23 24 24
23 23 22 19 21 22 23 22 22 22 22 23 22 21 19 19 18 17 17 17 16 16 16 16 17 18 18 17 18 19 19 19 19 20 20 21 21 22 23 24 24 24 23
23 23 23 21 20 20 22 22 22 21 20 22 23 22 20 20 19 18 18 17 17 17 17 17 17 17 15 14 15 16 16 18 18 20 20 22 23 23 24 24 25 25 25
23 23 23 24 25 22 21 21 21 22 22 23 24 23 22 21 20 19 17 18 17 17 17 17 17 19 18 18 18 19 20 20 21 23 24 24 27 25 26 26 26 26 26
23 24 24 24 25 25 23 23 23 25 23 24 25 24 23 22 21 19 18 17 17 17 16 16 16 16 17 17 17 17 17 19 21 22 23 23 25 23 23 22 22 23 24
25 25 26 28 27 27 25 25 23 23 24 24 25 25 23 23 21 19 19 18 17 17 16 16 16 16 15 16 17 21 24 26 28 29 27 29 26 26 25 24 24 25 25
30 26 28 28 28 28 27 25 26 22 22 23 24 25 24 23 23 20 18 19 17 17 16 16 16 17 18 21 23 24 25 28 29 30 30 33 31 28 26 25 26 26 26
29 28 28 28 29 28 26 26 25 24 22 23 24 24 24 24 24 23 20 20 19 19 20 19 20 21 22 23 24 25 25 23 20 19 22 27 28 28 25 25 27 28 28
30 30 29 29 29 28 25 25 27 24 22 22 22 24 24 25 25 26 24 23 23 22 23 24 25 25 25 25 25 26 26 23 23 17 18 17 22 24 23 26 24 24 24
33 32 32 29 28 29 28 27 26 26 25 25 22 23 24 25 26 27 27 27 27 26 27 28 29 31 30 28 26 28 29 27 26 22 22 19 19 20 21 24 26 27 28
37 35 33 33 31 30 29 29 28 28 27 26 26 25 23 23 24 26 27 29 29 30 30 30 31 33 32 32 29 29 31 30 26 27 27 24 24 24 25 26 28 30 32
40 36 35 35 36 32 32 30 30 30 29 29 28 28 28 26 27 25 27 28 31 32 33 34 34 34 33 34 34 33 32 32 30 28 30 30 28 28 28 29 30 33 34
36 38 38 38 37 36 35 31 31 31 31 31 32 32 31 30 30 28 29 29 28 31 32 33 34 34 36 36 35 34 34 34 32 31 32 33 33 31 30 32 32 34 35
35 34 40 40 37 39 36 32 31 32 31 33 33 31 31 33 33 30 30 31 30 30 30 32 34 35 35 35 35 35 36 34 33 33 34 34 34 33 33 33 34 35 35
33 35 36 38 39 38 37 35 33 33 32 33 33 36 36 36 36 34 31 32 32 31 33 33 34 34 34 34 35 36 35 33 34 35 33 32 32 32 33 34 35 36 37
32 34 34 35 35 38 38 37 34 33 35 33 35 36 36 36 37 35 33 33 34 34 34 35 36 35 35 35 35 36 35 34 33 32 32 31 33 34 35 35 36 39 40
35 36 34 29 30 34 38 41 38 36 36 35 36 35 34 36 36 37 35 35 35 36 37 36 37 35 36 36 35 35 34 33 33 33 34 35 36 37 38 39 41 41 42
38 38 37 33 28 32 33 39 41 40 39 36 36 34 36 36 36 36 35 36 36 37 38 37 38 37 37 36 37 37 37 35 35 37 38 39 40 42 42 43 44 44 45
42 43 43 39 33 33 32 36 37 41 43 42 38 35 36 37 36 35 35 38 39 38 39 38 39 39 39 38 39 40 41 43 44 42 41 41 42 44 46 46 47 47 49
41 46 46 46 42 37 37 36 39 40 40 41 41 41 37 37 37 37 36 39 39 39 40 40 40 40 40 41 42 44 43 44 46 46 46 44 45 45 47 48 50 52 54
41 42 47 50 48 48 44 40 38 39 40 41 40 42 42 41 39 39 38 39 40 39 40 40 39 40 42 44 46 47 48 49 47 47 48 48 47 48 50 51 54 56 57
44 45 47 48 52 53 50 44 42 40 41 45 43 41 40 41 38 39 39 40 41 40 40 41 42 42 43 44 47 49 50 50 50 48 49 48 49 50 52 54 56 57 58
52 49 47 48 48 52 52 48 46 43 42 45 46 42 39 39 37 38 39 40 40 41 42 42 42 44 46 47 49 50 52 51 50 49 47 49 50 53 56 56 55 56 59
57 55 51 49 47 48 48 49 49 47 43 47 44 44 40 41 38 37 39 41 40 40 41 43 44 46 49 50 51 51 50 50 49 49 49 49 51 52 54 56 59 62 65

GFSSE_500_spd_021.txt.gz
Wind_Speed
17 18 21 21 21 22 21 20 21 21 20 19 18 18 17 17 16 16 16 16 15 14 14 14 14 13 13 14 14 14 15 15 16 16 17 17 17 19 20 21 21 21 21
17 18 19 19 19 20 21 20 20 22 22 21 20 20 19 19 18 18 17 17 16 15 15 15 15 14 14 15 16 16 16 16 16 15 16 17 18 18 19 19 19 20 20
20 20 20 19 18 21 22 22 20 20 22 24 24 23 23 22 20 20 19 18 18 17 16 16 15 15 15 16 17 16 17 17 17 17 18 19 19 19 20 21 21 21 23
20 21 20 18 18 20 21 22 22 22 21 21 23 23 24 23 23 21 20 20 19 19 18 16 15 15 16 17 18 18 19 19 20 20 19 23 23 23 23 24 25 25 25
22 20 19 20 19 21 21 22 23 24 23 23 23 22 23 23 23 22 21 21 21 20 19 18 17 17 16 17 18 18 18 19 20 20 21 23 25 24 24 24 25 26 27
22 21 20 21 22 23 22 22 21 23 23 23 23 23 23 25 24 23 23 22 22 21 20 19 19 18 18 19 20 19 19 20 21 21 23 24 25 24 25 26 26 27 26
24 24 23 23 24 24 26 23 23 23 24 25 25 25 25 26 26 25 24 23 21 20 19 19 18 19 18 17 17 16 17 19 22 22 25 28 27 26 26 25 25 24 25
25 27 25 25 25 26 26 27 24 23 24 25 26 27 26 26 26 26 25 23 21 20 20 19 18 17 16 16 16 16 20 24 27 26 29 31 32 32 30 28 26 26 26
27 27 26 25 25 25 26 24 23 24 22 23 23 23 24 25 26 25 25 24 21 20 19 18 17 17 17 17 18 21 24 24 24 25 25 24 23 27 29 29 29 27 26
27 27 27 26 25 24 24 24 24 24 22 20 22 21 21 22 23 24 24 24 23 22 20 20 20 20 21 21 23 23 26 26 24 24 24 22 19 20 23 26 26 25 25
29 29 28 28 26 25 25 24 24 24 23 21 20 21 22 21 20 22 23 24 24 24 23 23 24 25 26 26 26 27 27 27 25 26 27 26 21 19 20 21 24 24 21
33 33 32 30 28 28 27 26 25 24 24 24 23 22 22 23 20 19 21 23 25 26 27 26 27 28 29 30 31 31 31 30 28 28 28 27 26 25 23 24 23 24 24
33 34 34 33 32 32 30 30 27 26 25 24 25 26 24 22 23 20 20 21 24 26 28 30 31 30 31 32 33 33 33 33 32 30 29 29 29 30 28 27 27 27 26
30 32 33 34 34 34 33 32 31 28 27 26 27 28 28 27 23 24 23 24 25 26 27 28 30 31 32 33 34 35 35 35 34 33 31 30 30 30 33 32 31 29 30
30 30 32 33 35 37 35 35 33 33 31 29 29 30 29 29 28 24 26 24 28 29 29 29 27 27 28 30 32 34 34 35 35 35 35 33 32 32 33 34 35 32 31
31 29 29 32 34 35 35 36 34 34 33 31 30 31 30 31 27 29 28 29 29 32 32 30 29 30 31 32 32 32 33 34 34 35 36 34 33 33 33 32 32 31 30
34 33 29 30 33 34 33 34 36 35 32 31 30 30 30 31 32 34 31 32 32 32 32 32 32 33 34 33 32 32 32 31 32 33 33 34 32 31 30 31 30 31 31
34 35 32 28 28 31 30 31 34 38 35 31 31 31 30 30 31 33 31 32 33 33 32 31 31 33 34 35 33 32 31 31 31 32 32 32 32 32 32 32 33 34 35
35 35 36 34 29 29 30 29 30 32 34 33 33 32 29 29 32 31 31 33 33 32 33 33 33 34 34 35 35 34 33 32 33 34 34 34 36 37 38 38 38 39 40
36 38 39 39 34 30 32 31 28 28 29 33 34 34 32 31 31 31 32 34 34 32 33 34 35 36 35 35 36 36 36 35 36 38 39 41 43 43 43 43 43 43 44
37 41 43 42 39 35 32 34 33 34 34 32 30 33 35 35 31 32 33 33 35 34 34 35 36 37 36 36 37 36 37 39 41 42 42 43 44 44 46 46 46 46 45
40 40 42 44 42 38 37 35 40 37 37 34 32 33 33 35 35 36 36 36 36 38 37 37 38 38 38 38 38 37 38 41 43 45 45 47 47 47 47 47 47 47 47
43 43 42 44 45 42 41 43 44 42 37 36 33 37 38 37 34 33 34 37 38 40 38 38 38 39 39 40 41 40 41 41 43 46 48 50 50 50 48 47 48 48 49
48 46 46 46 46 44 41 45 46 46 44 42 39 40 41 40 36 35 36 34 36 37 38 38 38 39 41 41 41 42 43 45 46 47 50 51 50 49 49 48 49 50 53
53 52 50 50 50 49 45 44 47 48 49 48 44 43 41 43 37 37 38 35 35 35 38 37 38 40 41 42 43 44 45 46 48 47 47 47 47 48 49 51 53 55 57
61 60 60 57 55 53 50 47 48 45 46 48 48 49 43 45 39 38 38 36 36 36 38 38 40 41 42 43 43 44 45 47 48 47 46 46 46 48 51 54 56 57 57

GFSSE_500_spd_024.txt.gz
Wind_Speed
19 16 18 18 19 19 20 19 19 18 19 20 20 19 18 18 17 16 16 17 18 18 17 16 16 16 17 17 16 16 15 15 15 15 16 17 18 18 19 19 20 20 21
19 18 18 17 17 18 19 19 19 18 19 20 21 21 20 20 19 19 18 18 18 19 19 18 17 16 16 16 16 15 16 16 16 16 16 17 18 19 20 19 20 20 22
20 18 18 18 17 17 19 19 20 20 19 19 21 23 23 23 22 22 22 21 20 20 20 19 19 19 18 18 16 17 16 17 17 17 18 18 20 20 21 21 22 23 24
19 18 18 19 19 20 19 18 20 20 21 22 21 21 22 23 24 24 24 23 22 21 21 20 20 19 19 18 17 18 17 17 16 16 19 20 21 22 23 23 24 24 24
21 18 18 19 18 21 22 21 20 21 22 22 23 23 23 23 23 24 24 24 23 22 22 21 21 21 19 18 18 17 17 18 18 18 22 23 24 25 25 27 28 27 26
22 20 20 20 21 22 23 23 22 21 21 22 22 22 23 24 24 23 24 24 24 24 23 23 22 21 20 20 20 19 18 17 16 19 20 22 24 26 26 26 25 25 25
23 22 22 22 23 23 23 23 22 23 23 24 24 24 23 24 25 26 25 26 25 25 24 23 22 21 20 20 19 17 17 15 17 21 25 26 27 29 31 30 30 28 27
26 26 26 23 23 23 24 24 23 21 23 22 23 24 27 27 26 24 25 26 26 25 24 23 21 20 19 19 19 18 17 18 20 23 26 25 25 24 25 28 31 30 28
29 27 26 25 24 24 24 23 22 21 19 18 20 21 22 23 24 23 22 23 24 24 23 22 21 20 21 20 20 20 20 22 23 25 26 26 25 23 22 22 24 27 27
28 27 27 27 25 25 24 23 23 22 21 19 19 19 20 21 21 22 22 21 22 22 22 22 22 21 22 23 23 24 24 25 26 28 29 26 25 27 26 21 19 21 23
30 30 29 26 27 26 26 25 24 24 23 22 20 19 21 20 20 20 21 20 21 22 23 24 23 24 26 27 27 28 30 30 30 31 31 30 27 28 28 26 23 20 20
32 33 33 31 29 27 28 28 27 25 25 24 23 22 21 20 21 20 20 19 19 20 23 25 26 28 28 30 31 33 33 34 33 33 34 34 29 28 28 29 29 26 25
30 31 33 32 31 30 30 29 29 28 27 25 25 24 22 22 22 21 20 20 21 21 21 22 25 28 30 32 34 35 35 36 36 35 35 34 34 31 31 30 31 31 30
26 29 31 32 32 33 33 33 33 31 30 28 27 26 26 26 27 22 21 23 22 24 24 25 24 25 26 29 32 33 33 35 35 36 37 38 36 34 34 33 32 32 33
27 29 28 29 29 31 32 33 33 33 31 30 30 28 28 28 30 27 24 25 23 25 26 28 28 28 28 27 28 29 32 33 33 34 35 36 37 36 37 35 35 34 34
33 32 31 29 30 31 32 32 34 36 34 32 31 30 29 29 29 28 28 26 29 30 29 29 29 28 29 30 31 32 32 32 32 31 31 32 33 35 34 35 35 34 33
36 33 30 30 31 31 31 29 31 33 35 34 34 32 31 29 28 28 30 30 30 28 29 30 30 29 30 31 32 33 32 31 32 31 30 29 30 31 33 33 32 32 33
38 33 32 32 31 32 32 29 29 30 31 32 34 34 30 29 29 29 29 29 30 30 30 29 30 30 31 32 34 34 33 32 32 32 31 30 30 31 31 33 33 34 36
41 39 37 35 32 31 33 32 30 29 29 28 31 31 29 31 32 31 30 30 31 33 32 32 31 30 31 33 34 35 35 34 33 33 34 32 32 34 37 40 42 42 43
41 41 39 36 34 34 36 35 33 31 27 27 28 28 31 34 34 32 32 31 31 32 33 33 32 32 33 35 36 36 36 36 35 35 36 37 39 40 42 43 43 45 46
40 41 40 39 37 37 38 37 37 36 34 32 31 29 27 30 31 33 34 35 34 34 34 35 36 36 37 37 37 37 37 37 38 37 37 39 41 43 45 45 47 48 49
43 43 44 44 42 40 41 41 41 43 40 38 34 32 30 31 32 31 32 32 31 33 36 38 38 37 37 38 38 37 37 38 39 40 40 40 41 44 46 47 49 50 51
44 44 45 45 45 46 44 43 45 45 45 40 36 33 33 37 38 35 33 33 31 31 34 36 36 37 38 37 37 38 39 40 40 40 42 43 46 47 48 49 49 49 48
45 46 46 46 48 49 49 47 44 46 46 46 45 42 42 40 38 37 36 36 35 34 34 35 34 35 37 38 37 38 39 40 41 41 43 45 46 47 47 48 48 48 49
48 48 47 47 48 50 51 51 48 45 44 47 49 48 47 48 44 42 39 37 37 38 36 34 35 35 37 38 39 39 40 40 42 43 44 45 45 46 48 50 52 52 53
54 56 57 57 55 54 54 54 54 51 47 44 47 51 51 51 50 45 45 41 40 40 39 36 36 37 38 39 40 41 41 42 43 44 44 45 46 48 51 53 54 55 55

GFSSE_500_spd_027.txt.gz
Wind_Speed
16 15 15 15 16 17 18 19 20 20 19 18 18 19 18 17 17 17 17 17 17 18 18 18 17 18 17 17 18 18 17 17 17 18 18 17 17 17 17 18 19 20 20
18 14 15 17 16 18 16 16 17 18 18 18 19 20 20 21 20 19 18 18 19 19 19 19 18 18 18 17 18 18 18 17 17 18 18 17 17 18 18 18 18 20 21
18 16 17 16 17 18 18 18 17 17 18 18 19 19 20 22 23 22 22 22 22 21 21 20 19 19 18 18 18 18 18 18 18 18 19 19 18 19 19 19 21 21 22
18 17 17 16 16 19 20 20 18 18 18 19 20 20 20 20 21 23 23 23 23 23 22 21 20 20 20 18 18 18 17 18 18 18 18 18 19 21 22 23 24 25 24
19 17 18 17 18 18 19 20 19 19 19 20 20 20 21 20 21 22 23 22 22 22 22 22 22 22 22 20 19 17 16 17 19 20 19 19 20 21 23 25 26 26 25
23 21 20 21 21 20 21 20 19 20 21 21 20 22 21 21 22 22 22 22 22 23 23 23 24 24 23 21 21 20 19 19 18 17 17 18 22 24 26 29 30 29 28
27 25 24 23 23 21 21 22 20 20 21 21 22 23 23 24 24 22 22 23 22 23 23 23 24 24 23 22 21 19 18 18 18 18 19 20 22 23 24 25 26 27 30
29 29 27 25 23 23 23 23 21 19 20 21 21 21 21 22 24 25 24 23 23 22 21 22 22 23 23 21 20 19 19 19 20 21 22 24 24 25 25 25 25 24 24
30 29 28 27 25 25 23 22 21 20 21 18 18 18 17 18 19 21 21 21 21 22 21 21 21 21 21 21 21 21 22 22 22 24 25 25 27 28 28 26 25 24 23
31 30 30 29 27 26 24 24 22 22 22 21 19 19 17 16 18 18 18 19 20 21 21 21 21 22 22 22 23 24 25 26 26 27 28 27 29 31 29 28 28 26 25
32 32 32 30 28 28 27 26 25 24 22 22 21 21 19 17 17 18 19 19 19 20 21 22 23 23 24 25 25 27 29 30 32 32 34 34 33 32 32 30 29 27 27
30 32 32 31 30 30 29 29 27 25 24 24 23 23 22 21 20 18 19 20 19 18 19 20 20 22 24 26 29 31 33 34 36 37 38 37 37 35 34 32 31 28 29
32 31 31 32 32 31 30 30 29 29 27 26 25 25 25 24 23 22 21 21 21 22 22 22 21 21 22 23 26 30 34 36 38 38 39 40 40 39 37 36 33 31 32
30 29 29 29 30 31 32 32 32 32 32 29 29 27 27 27 26 24 25 25 23 22 24 23 23 23 24 24 25 27 27 29 31 33 34 37 37 37 38 37 34 34 35
29 28 28 30 29 29 29 30 31 33 33 33 31 28 28 28 27 26 27 28 26 25 25 24 26 27 27 27 27 28 29 30 32 34 34 34 35 34 33 32 32 34 33
32 31 34 33 32 32 32 32 32 33 34 32 31 29 29 29 28 27 28 29 28 27 26 28 28 28 28 28 28 29 30 32 33 34 33 33 33 32 31 30 29 30 30
32 34 35 35 34 31 33 33 33 34 34 31 30 30 31 30 27 28 29 28 28 29 28 27 28 28 28 28 28 30 32 33 34 34 33 32 32 32 31 30 30 30 30
34 35 36 37 35 33 33 36 34 34 34 31 29 30 31 30 29 29 30 30 29 29 28 29 30 30 29 30 30 30 31 33 34 34 35 33 32 33 33 31 31 32 33
36 38 38 39 37 35 36 38 37 33 32 31 30 30 29 31 31 31 31 30 30 30 29 31 32 31 31 32 31 30 32 33 34 34 34 34 34 34 35 36 36 38 41
37 40 42 41 40 38 39 39 39 36 33 33 32 31 30 30 32 33 33 33 33 33 33 33 33 35 35 34 35 35 36 36 36 35 34 34 35 35 35 37 40 41 43
39 40 42 44 43 41 40 39 40 38 36 38 37 34 32 30 30 31 33 35 36 35 35 35 36 37 37 38 38 38 37 37 37 37 36 35 36 37 38 39 40 41 43
42 42 43 45 47 46 43 41 41 41 43 42 40 38 34 33 34 35 35 36 35 33 32 33 34 35 34 34 36 37 37 37 38 37 37 37 38 40 41 42 43 44 46
44 44 44 46 49 50 49 46 45 45 44 44 43 40 37 37 40 42 39 38 37 35 34 35 37 36 35 35 35 35 36 36 37 38 39 39 40 40 42 42 43 44 44
47 48 48 47 49 51 53 53 50 47 46 43 43 47 46 43 44 43 42 39 37 37 37 36 38 38 37 37 37 37 38 38 38 40 40 41 43 43 43 43 44 43 44
46 48 49 49 49 49 52 53 53 51 49 48 46 43 49 49 48 47 47 45 43 41 42 38 39 40 40 39 39 39 39 39 39 41 43 44 45 44 45 45 46 46 47
47 49 51 51 52 52 51 52 54 55 53 51 48 45 46 48 50 51 50 49 49 47 47 46 41 41 41 42 41 41 41 41 40 42 43 46 47 47 48 49 50 52 53

GFSSE_500_spd_030.txt.gz
Wind_Speed
15 14 15 16 13 15 16 17 17 17 18 18 18 17 17 17 17 16 16 15 15 16 16 16 17 16 16 16 16 15 15 15 16 16 16 17 18 18 18 18 18 18 18
18 16 16 16 15 18 16 14 14 14 15 16 17 16 17 18 20 20 18 18 18 17 18 19 19 19 18 18 18 17 16 16 16 16 17 17 18 18 18 18 18 18 19
20 17 16 16 17 19 18 16 16 16 16 17 17 17 17 17 18 21 22 21 20 20 20 20 21 21 20 19 19 19 18 18 17 17 17 17 17 18 18 19 19 20 21
19 18 17 17 18 18 18 18 18 18 18 17 17 18 17 17 18 18 18 19 20 21 20 20 20 21 21 20 20 20 20 19 19 18 17 16 17 18 18 19 21 22 22
19 18 19 18 18 17 16 16 17 17 17 18 18 17 18 18 18 18 18 19 19 19 20 20 20 21 21 21 20 21 20 19 18 18 20 19 17 16 19 20 22 24 25
23 22 21 21 20 20 17 17 17 16 18 19 19 18 17 18 19 19 19 18 19 20 20 20 20 20 21 22 22 22 22 22 22 20 19 18 17 19 20 20 21 21 22
27 26 25 24 23 23 21 20 20 18 19 19 19 19 18 19 18 20 21 21 21 21 21 22 21 21 21 21 22 22 22 22 22 20 19 19 19 22 22 21 21 22 23
31 30 30 28 26 26 26 24 22 19 20 20 19 17 17 17 17 17 18 19 21 20 20 21 20 20 20 20 21 22 22 21 22 21 22 21 21 24 25 24 24 23 23
32 33 31 30 28 27 27 24 23 22 21 20 19 17 16 15 15 15 15 16 17 18 18 19 20 20 19 19 20 21 22 22 23 24 24 25 25 27 28 29 28 26 26
31 32 31 31 30 28 27 26 25 23 22 21 20 19 18 16 15 15 16 16 16 16 17 19 19 20 21 21 22 22 23 24 26 27 28 29 30 31 32 32 31 30 29
27 30 31 31 31 30 28 28 28 25 22 22 21 20 19 18 16 16 17 18 18 18 18 18 19 19 22 23 24 24 25 26 29 31 32 33 34 35 36 36 35 32 30
28 30 29 29 30 30 30 29 29 27 25 24 23 22 21 20 19 19 19 18 18 18 19 21 21 18 19 19 21 23 25 28 31 32 35 36 37 37 38 37 37 36 34
31 28 26 28 28 29 29 29 29 29 28 26 25 25 24 23 22 21 21 20 20 21 22 23 23 23 22 21 22 22 23 25 27 28 30 31 32 32 33 34 35 36 36
31 31 28 26 25 26 27 28 30 30 30 30 29 28 27 27 25 25 24 24 23 23 24 24 24 24 24 24 25 26 27 27 29 29 29 30 31 33 34 33 32 31 30
30 31 32 31 27 27 28 28 29 30 30 32 31 30 30 29 28 28 28 27 27 26 26 25 24 24 26 27 27 27 27 28 29 30 31 31 33 32 31 31 30 28 27
28 29 34 35 33 33 31 31 31 32 33 33 32 30 30 31 30 29 29 30 29 28 27 26 24 25 25 25 25 26 27 28 29 30 32 33 33 33 31 30 30 29 28
27 30 33 36 40 36 34 34 34 34 34 33 32 30 29 31 31 30 30 30 30 29 28 28 26 26 25 25 27 28 29 31 31 31 31 32 33 33 32 31 30 30 30
31 32 35 37 40 42 39 36 36 36 35 33 31 29 29 30 30 30 30 31 30 30 28 29 29 28 28 28 31 31 32 33 31 31 31 31 31 31 32 32 31 31 33
35 34 37 39 40 42 42 40 39 38 35 33 33 31 30 31 31 30 31 32 32 31 29 31 30 30 31 32 32 33 35 33 34 35 36 36 34 33 32 32 32 32 33
40 38 40 40 41 42 41 41 40 39 36 34 35 34 34 34 33 32 32 33 34 32 33 33 33 34 34 35 35 35 35 35 36 36 36 36 37 35 34 33 33 34 35
42 42 41 42 42 42 42 42 42 41 39 38 38 40 37 35 35 35 33 32 33 33 34 34 35 33 34 34 33 33 33 33 33 33 33 33 34 35 34 34 35 36 37
45 45 44 44 46 47 44 43 43 45 44 43 43 43 41 37 38 37 37 37 37 37 34 34 33 32 34 35 35 35 35 34 33 33 33 34 35 35 36 37 37 37 38
48 46 47 47 48 50 49 47 47 46 45 45 44 42 41 42 42 42 41 42 43 41 38 36 36 37 37 38 38 37 37 35 35 35 35 36 37 38 40 40 40 40 40
47 48 49 49 48 50 52 51 48 47 47 47 47 46 46 46 46 47 45 47 45 44 41 39 40 37 38 39 39 40 39 38 38 37 39 38 38 39 41 41 41 41 42
46 46 46 50 52 51 53 54 54 52 48 48 48 48 47 48 47 47 47 50 48 47 46 43 43 44 42 43 42 41 42 42 42 41 40 40 40 40 42 44 44 44 44
45 45 47 48 50 54 55 57 59 60 59 57 52 50 49 49 50 49 47 50 50 50 49 48 47 48 48 46 44 46 44 45 45 44 43 43 42 43 44 46 47 47 48

GFSSE_500_spd_033.txt.gz
Wind_Speed
15 13 15 16 18 17 17 17 18 18 17 18 18 18 17 16 17 17 15 14 14 13 13 14 13 12 12 13 14 14 14 14 15 14 15 14 15 15 15 15 15 15 16
17 16 16 17 17 17 16 14 14 15 14 14 14 15 16 16 16 17 18 18 17 17 17 17 16 15 16 15 15 16 16 16 16 15 15 16 16 16 16 16 17 18 18
20 18 17 19 19 19 18 16 16 16 15 14 14 14 14 15 16 16 16 18 19 20 20 20 19 19 18 18 18 18 18 17 17 17 17 18 17 17 17 17 18 19 20
20 19 18 19 21 18 19 18 17 17 17 17 17 16 16 16 15 16 16 17 16 16 17 17 18 18 19 19 20 21 20 19 18 18 18 18 18 18 19 17 17 19 20
19 19 18 17 18 18 18 18 17 16 16 16 16 16 17 18 18 18 16 16 17 17 17 17 17 18 19 19 20 21 22 22 20 19 20 21 20 19 18 17 18 18 19
18 19 20 20 20 20 18 18 18 18 19 19 19 18 18 17 18 18 18 18 17 16 16 17 17 18 19 19 20 21 21 22 22 21 21 20 19 18 17 18 18 19 19
21 21 23 24 24 23 22 20 20 20 21 20 20 20 20 19 19 18 19 18 18 18 18 18 18 18 19 20 20 20 21 21 22 21 20 20 20 19 19 19 21 21 21
25 25 26 27 27 26 25 24 23 23 22 23 22 21 20 19 18 17 17 17 17 17 18 17 18 19 19 19 20 21 20 21 21 21 21 21 22 22 22 22 23 25 25
28 29 29 29 28 27 27 25 24 23 22 22 22 21 19 18 18 16 16 15 15 14 16 16 17 18 18 19 20 20 21 22 23 23 23 24 25 26 26 26 27 29 29
30 31 31 30 28 29 26 25 25 24 23 22 22 21 20 18 18 17 16 16 16 16 16 17 17 17 18 19 20 21 21 22 24 25 26 28 29 30 30 31 31 32 32
29 31 31 30 29 29 28 26 26 26 24 24 22 21 22 21 19 19 18 18 18 18 18 18 18 18 19 20 20 20 21 22 24 26 28 30 32 33 34 34 34 35 33
28 29 28 28 29 28 29 28 27 27 26 25 23 24 22 22 22 21 20 20 21 20 20 19 20 20 21 21 21 20 21 21 22 23 25 28 29 31 31 31 30 29 30
28 28 28 29 29 28 29 28 28 29 27 26 25 26 24 24 23 22 22 21 22 22 23 23 22 22 22 23 22 22 22 23 24 26 27 28 29 29 29 29 31 31 31
28 30 30 29 30 29 28 28 29 29 28 27 28 27 27 26 26 26 25 25 24 25 25 24 24 24 23 24 24 24 25 26 27 27 28 29 29 30 30 31 31 29 29
27 29 31 33 32 32 31 30 28 28 28 30 30 29 27 28 28 28 28 28 28 28 27 27 27 25 24 24 25 25 24 24 25 24 25 27 28 29 30 30 30 30 28
28 28 31 32 32 33 33 32 31 31 32 32 31 30 29 29 30 30 30 30 30 30 29 28 29 27 26 26 25 25 24 24 27 28 30 30 31 31 30 30 30 29 28
29 32 31 33 33 33 33 34 35 35 35 34 32 31 29 29 30 31 30 31 31 31 30 28 28 28 27 27 27 27 28 29 30 30 33 29 29 29 29 28 28 29 29
33 33 35 35 36 35 35 37 37 38 38 36 34 33 31 30 31 32 29 30 32 32 31 30 29 30 29 29 29 29 31 31 30 31 29 30 32 34 35 32 32 30 30
36 36 38 39 38 39 39 39 40 40 40 39 37 35 34 33 34 33 32 32 32 33 33 32 31 32 30 31 30 31 31 31 30 28 29 29 30 32 33 33 31 31 31
38 39 39 40 40 41 43 44 43 42 42 41 40 39 38 38 37 35 34 34 34 33 34 33 33 33 32 32 31 31 31 29 29 28 28 27 27 27 27 27 28 30 30
41 40 42 42 41 43 44 46 45 45 45 46 43 42 44 42 40 39 37 37 34 34 35 35 33 35 33 32 31 31 31 31 31 32 31 30 29 29 28 29 30 32 32
44 43 43 45 45 44 45 45 46 47 47 48 48 46 45 44 42 41 41 40 39 38 38 38 37 35 33 34 33 34 32 33 34 34 35 34 33 32 31 31 32 32 34
46 46 44 44 46 48 48 48 47 47 48 49 49 47 48 47 47 46 45 43 43 43 42 43 41 39 38 37 37 37 35 35 37 37 38 38 37 36 35 34 35 35 34
46 46 46 46 46 47 50 51 51 51 49 48 49 50 50 50 50 50 49 47 47 47 46 46 45 42 41 41 40 38 38 37 38 39 39 40 40 39 39 38 39 39 38
45 46 45 45 46 49 51 51 52 52 53 53 51 52 53 55 54 53 53 51 49 51 51 49 49 46 45 48 46 43 42 44 44 44 44 43 42 42 42 42 43 43 42
44 44 45 46 46 48 50 52 53 53 53 54 55 57 56 57 59 57 56 54 52 51 52 50 51 51 49 49 46 45 44 47 47 47 48 47 44 43 44 45 46 45 45

GFSSE_500_spd_036.txt.gz
Wind_Speed
14 13 16 15 15 17 18 20 20 20 19 19 18 19 19 19 19 19 19 18 17 16 15 14 13 13 13 13 13 14 15 15 14 14 14 14 14 15 15 16 16 16 16
15 14 14 15 15 15 15 16 16 16 16 16 16 16 16 16 17 18 18 20 21 22 21 19 19 17 17 16 15 15 16 16 16 16 16 17 17 17 17 17 17 17 18
17 15 15 16 16 17 17 16 17 17 17 17 17 17 17 17 17 17 18 19 19 21 22 22 23 22 20 18 17 16 17 17 17 18 18 18 18 18 17 16 17 18 17
17 17 16 16 17 18 18 19 17 16 16 17 17 17 17 16 17 17 17 17 17 18 19 19 20 20 20 19 18 18 17 17 17 18 19 19 18 18 19 19 17 17 17
17 16 16 17 17 16 15 17 18 17 17 17 16 16 17 18 18 19 19 19 18 17 17 18 19 18 18 19 19 19 18 18 18 18 19 19 20 21 19 18 17 17 17
17 16 15 16 17 17 17 17 18 18 19 19 19 19 19 19 20 21 22 22 22 22 20 20 20 19 19 19 19 19 20 21 20 20 21 22 22 21 19 19 19 19 19
18 18 19 20 20 19 20 18 20 21 20 21 21 22 22 22 21 22 22 22 22 21 21 21 21 21 20 20 20 20 19 20 21 21 22 22 21 21 21 20 21 21 22
21 21 22 23 24 24 23 23 22 23 22 21 21 21 21 21 20 19 20 20 20 20 20 20 20 20 21 20 19 20 20 20 20 21 22 23 23 22 23 24 25 25 25
26 26 27 27 28 27 26 24 24 23 22 20 21 20 19 20 19 19 19 19 19 19 19 20 19 18 18 18 18 19 20 19 21 22 22 23 25 25 26 27 28 29 29
28 31 31 30 30 29 28 26 25 25 23 23 20 21 19 19 19 20 19 18 18 17 17 17 18 19 19 20 21 20 21 21 21 22 23 24 26 27 29 31 32 33 33
32 33 34 34 31 30 29 28 27 27 26 24 22 21 21 21 21 21 21 20 20 19 19 20 20 19 20 20 20 21 20 20 19 20 22 23 26 28 29 31 33 33 33
30 31 31 31 30 30 30 30 29 28 27 25 25 24 23 24 23 22 23 24 23 22 21 21 21 21 21 22 22 21 22 22 21 22 23 24 25 26 27 28 28 28 29
27 27 27 27 28 29 30 31 31 30 29 27 27 28 26 26 24 24 24 25 25 25 25 24 24 23 23 22 22 22 23 23 23 24 26 26 27 28 29 30 30 30 30
26 27 28 29 30 30 32 32 32 31 31 30 29 30 29 28 25 24 25 25 26 27 27 27 27 27 26 25 23 23 23 23 25 26 25 25 24 25 27 27 28 29 30
28 29 29 31 31 32 33 33 33 33 32 33 31 31 29 28 28 27 27 27 27 28 28 28 30 30 29 28 26 25 24 24 24 25 25 26 29 30 31 29 29 30 29
30 29 31 31 33 33 33 33 34 34 35 34 34 33 31 30 29 29 29 28 29 30 30 31 31 31 31 30 28 28 26 25 26 26 28 30 31 31 28 27 27 26 26
30 31 32 35 35 35 34 34 33 34 36 37 36 34 32 31 31 30 31 30 31 32 33 33 32 32 31 30 29 28 28 28 28 29 30 28 29 26 27 29 31 33 32
33 34 37 36 36 36 36 36 36 37 37 37 37 35 34 34 34 34 34 33 33 34 35 35 32 32 33 31 31 30 29 30 30 29 27 26 24 24 25 26 26 28 29
37 36 36 37 38 39 39 39 40 40 40 39 38 39 37 36 36 38 37 37 37 36 37 36 34 34 34 33 33 32 31 31 31 29 27 26 25 25 25 24 24 24 24
37 36 37 37 38 39 40 42 44 43 43 43 42 42 43 42 40 41 40 40 40 40 39 39 38 36 35 35 35 34 33 32 31 29 28 28 29 28 28 28 27 26 25
37 38 38 38 38 39 41 42 44 45 45 46 46 46 49 47 46 45 43 43 43 43 42 41 39 39 37 37 37 35 34 31 31 31 31 31 31 32 32 32 32 31 30
40 39 40 41 41 41 41 43 45 47 49 48 48 48 49 50 50 50 48 48 48 46 45 44 42 42 40 40 38 38 35 34 33 35 35 34 34 35 35 36 36 35 34
42 43 43 44 44 43 43 43 45 48 49 49 49 49 50 52 52 52 53 53 52 51 48 47 46 46 45 44 42 42 40 39 38 37 37 36 36 37 38 39 39 39 38
44 44 44 44 45 44 44 45 45 46 48 50 51 52 53 55 56 55 54 56 56 54 52 49 49 49 49 48 46 44 46 44 41 40 38 38 39 41 42 43 44 43 43
43 43 44 43 42 42 43 45 46 47 48 50 52 53 54 56 58 59 57 56 58 56 55 52 52 53 53 53 50 49 50 48 46 48 44 42 42 44 43 44 46 47 47
40 41 41 41 41 41 42 44 45 46 48 49 51 52 53 53 56 61 63 61 60 61 59 57 56 56 55 55 51 49 48 46 46 45 45 43 44 45 45 46 47 41 47

GFSSE_500_spd_039.txt.gz
Wind_Speed
15 15 15 15 16 15 16 18 19 19 19 19 19 18 17 17 18 19 19 19 20 20 20 17 16 16 16 16 16 16 15 15 16 16 16 16 16 16 16 17 16 17 17
16 15 14 15 14 14 14 15 16 16 17 18 18 18 18 18 18 18 18 19 19 20 21 22 22 21 20 19 19 18 17 17 16 16 16 16 16 16 16 17 17 17 18
16 14 14 14 14 14 15 14 14 16 17 18 18 18 19 19 19 19 20 20 20 21 21 21 22 22 22 21 20 20 19 18 17 17 17 17 17 17 17 16 18 19 17
16 16 15 16 15 15 15 17 15 15 15 15 15 16 17 17 18 18 18 19 19 21 21 21 21 20 20 20 19 19 19 20 19 19 18 18 18 17 17 18 18 17 16
17 17 16 16 16 15 13 13 14 14 15 15 16 16 17 18 18 19 20 21 21 21 21 21 20 18 18 18 18 19 19 20 20 20 21 19 19 18 19 19 18 17 17
19 17 17 16 16 15 15 14 15 16 17 17 17 18 18 19 20 20 21 22 22 22 23 23 23 22 21 20 20 18 19 20 20 19 20 20 20 21 20 19 19 19 19
20 19 19 18 18 18 19 19 18 18 19 20 21 22 22 22 22 22 22 22 23 23 23 23 22 22 22 21 20 20 19 19 19 19 19 20 21 21 21 21 23 23 22
22 21 21 21 21 22 22 22 21 21 23 24 23 22 21 21 21 21 21 20 20 21 21 21 21 21 21 21 21 20 19 18 19 19 19 19 21 21 22 23 24 25 26
24 24 25 26 24 25 25 25 25 24 24 24 23 23 22 20 19 19 20 20 20 20 20 20 20 21 21 21 21 21 20 20 20 20 20 21 21 22 22 25 26 27 29
28 28 28 27 27 28 29 28 28 27 26 25 23 22 22 21 21 20 20 20 20 20 20 20 20 20 21 22 22 24 23 22 21 21 21 21 21 22 23 25 27 28 29
28 29 29 30 30 30 29 29 30 29 28 26 25 24 23 23 22 22 22 21 22 21 21 21 21 22 22 22 21 21 21 20 20 20 21 21 21 22 23 25 26 27 28
30 30 30 31 31 31 30 30 29 29 28 27 26 26 25 23 24 24 24 24 24 24 23 23 23 24 23 23 23 22 22 22 22 21 22 23 23 25 26 26 27 26 27
29 29 29 29 30 31 30 29 29 29 29 28 28 28 28 27 26 26 25 24 24 25 25 24 25 26 26 25 25 24 24 23 23 22 23 24 25 25 24 23 24 25 25
29 30 30 30 30 29 30 30 30 30 31 31 31 30 30 30 29 27 26 26 25 26 26 26 27 28 28 28 27 27 27 26 25 23 24 23 23 24 26 29 30 30 29
30 32 31 31 30 30 31 31 32 32 32 32 33 33 31 31 30 29 28 27 26 27 28 28 29 30 30 30 30 29 29 28 26 25 24 23 25 27 29 30 27 25 25
32 31 31 30 32 32 32 32 32 33 34 34 34 34 34 33 31 30 29 28 29 29 31 30 31 32 31 31 32 31 31 29 28 28 25 27 27 29 27 26 22 23 24
32 32 30 30 31 31 32 33 34 34 35 35 35 35 35 34 34 32 32 31 32 32 32 33 34 33 32 33 33 33 32 31 30 30 29 28 30 28 25 22 21 21 21
34 34 34 32 32 33 33 34 35 36 36 36 36 35 36 36 37 37 35 34 35 35 35 35 36 37 35 35 35 34 34 33 32 31 31 30 30 27 24 22 22 21 22
37 36 36 35 33 34 35 36 36 37 37 37 37 37 38 39 40 40 39 40 39 38 38 38 38 39 39 37 37 36 36 35 34 33 32 32 31 27 27 26 25 25 25
37 36 35 35 34 34 37 38 36 38 38 40 40 40 41 41 42 43 43 44 44 43 42 42 43 43 42 39 39 38 37 37 36 35 34 33 32 30 29 30 29 28 28
38 38 37 37 37 37 39 40 37 40 42 43 44 45 46 44 45 44 44 46 47 47 46 46 46 46 45 45 43 41 40 38 37 35 36 35 34 33 32 32 32 31 31
38 38 38 38 39 39 40 40 42 41 43 44 45 47 48 47 46 48 47 47 48 50 50 50 51 51 48 48 47 45 43 42 38 38 38 37 37 37 36 36 34 33 33
39 38 38 39 40 41 42 43 45 44 44 45 46 47 50 52 52 51 52 51 52 51 52 54 54 54 54 52 50 49 48 44 43 43 42 42 42 42 41 38 37 37 38
39 39 40 40 41 42 43 44 45 46 45 45 47 49 52 54 55 54 54 54 54 54 53 55 56 54 54 51 52 52 51 50 47 45 46 47 49 47 46 42 41 40 41
41 41 41 41 41 42 42 42 43 44 44 46 47 49 50 53 55 56 57 57 55 56 56 57 57 58 57 57 56 55 56 54 52 50 49 52 53 50 41 41 42 42 40
39 40 40 40 40 40 40 41 42 43 44 46 47 48 50 51 52 53 55 58 59 60 61 60 61 61 61 61 60 58 55 55 55 53 51 49 49 44 44 42 43 42 42

GFSSE_500_spd_042.txt.gz
Wind_Speed
16 16 16 14 13 12 11 11 13 13 13 14 14 14 15 16 16 16 16 16 17 17 17 17 18 18 18 17 17 17 17 17 16 15 16 16 16 17 16 17 17 17 17
15 16 13 13 11 10 11 11 12 13 13 14 15 15 17 17 17 18 18 18 18 17 17 17 18 19 19 19 19 20 20 19 19 18 18 17 17 17 16 17 17 17 17
15 15 13 13 12 12 12 12 12 12 13 14 16 16 17 17 17 18 18 19 18 18 19 19 20 20 20 20 19 19 18 18 18 17 17 16 16 17 17 16 17 18 18
17 16 15 15 14 13 13 13 12 13 13 14 14 15 15 16 16 16 17 17 17 17 18 18 18 18 18 18 18 18 18 17 17 18 17 17 17 17 17 18 19 19 17
18 17 17 17 17 16 14 13 14 13 14 14 15 16 16 17 17 17 17 17 18 19 19 19 19 19 19 18 19 19 19 18 18 18 17 18 17 17 17 19 19 19 18
20 19 19 18 18 17 15 14 15 15 16 16 17 17 17 18 19 19 20 20 20 20 20 20 20 20 20 19 19 20 18 19 18 18 17 17 17 17 18 19 19 18 19
20 22 21 21 20 19 18 17 18 18 18 20 19 20 20 21 22 21 20 20 20 20 20 21 21 21 20 19 20 20 19 18 17 17 17 17 16 16 18 18 19 19 20
23 25 23 22 21 20 20 19 19 19 20 21 22 23 23 22 21 21 21 20 20 20 20 20 21 22 22 21 21 21 20 18 17 16 17 16 17 17 19 19 20 21 22
26 25 25 23 22 22 21 21 21 21 22 22 22 23 24 23 22 21 21 20 20 20 20 20 20 20 21 22 22 22 22 22 22 21 20 19 19 19 20 19 20 21 23
28 27 26 24 23 23 23 24 25 24 23 23 23 23 23 24 24 23 22 21 20 20 19 19 19 20 21 22 23 23 23 23 22 21 20 20 18 18 19 20 21 22 23
28 27 26 25 25 25 26 27 27 26 25 23 22 22 21 22 24 24 24 23 22 22 21 20 21 22 22 23 22 22 23 22 21 21 21 21 20 20 21 22 24 24 24
29 28 27 27 28 28 27 27 26 26 25 24 23 24 22 22 22 23 23 24 24 24 22 22 22 23 23 24 23 23 23 23 22 21 21 23 22 22 23 22 22 23 23
30 28 28 29 29 28 27 27 26 25 25 25 26 25 25 22 23 23 24 25 24 24 25 24 24 24 26 25 25 25 25 25 25 22 23 24 24 24 23 23 23 25 26
29 29 30 30 29 28 29 27 27 27 28 28 27 26 26 24 23 25 25 25 24 26 25 26 26 26 27 27 26 26 26 27 27 23 26 25 26 24 24 24 26 27 25
30 31 31 31 30 30 29 29 27 28 28 29 29 29 28 28 26 25 26 25 27 27 28 28 29 29 29 29 28 28 28 28 28 25 26 26 27 26 26 27 27 24 20
32 32 32 32 31 30 30 28 29 29 28 29 29 30 30 30 29 28 28 26 28 29 30 30 31 31 32 31 31 32 31 31 30 28 25 28 27 27 27 28 27 21 18
34 32 32 33 33 30 29 29 29 30 29 28 30 30 30 31 30 29 30 30 29 33 32 32 32 32 33 33 32 32 32 33 33 33 28 29 30 29 29 29 26 21 19
34 33 35 35 32 31 30 31 30 30 30 30 30 31 30 32 33 33 33 32 33 36 36 34 34 35 36 36 36 35 34 34 34 35 32 29 31 31 31 30 27 24 23
34 35 34 34 33 32 31 31 30 33 33 34 34 33 33 35 36 37 37 37 36 37 38 38 37 39 39 40 40 38 36 37 37 35 35 34 31 33 33 31 29 28 28
33 34 35 35 35 33 34 34 33 32 35 38 37 37 37 38 38 40 40 40 39 38 39 40 42 42 43 43 44 43 41 41 40 38 37 37 36 33 33 33 32 32 31
37 37 37 36 36 35 35 36 36 33 37 38 39 41 41 41 39 42 42 43 43 43 41 43 43 44 46 47 47 46 46 44 42 40 40 39 38 37 33 34 36 35 35
39 37 38 38 39 38 38 37 39 37 35 39 41 41 44 46 46 45 44 45 45 45 47 46 47 48 49 50 51 51 50 48 45 45 43 42 42 40 38 38 39 40 40
39 38 38 38 39 38 39 38 39 41 40 38 42 45 46 48 49 48 49 47 48 48 49 49 49 49 48 50 51 52 53 50 49 48 47 46 45 44 43 42 43 43 44
36 36 38 38 38 38 38 39 40 42 43 42 40 44 47 49 51 52 52 52 51 50 52 50 50 52 53 53 55 53 53 53 49 49 49 49 49 48 46 47 47 49 50
32 34 35 36 37 37 39 40 41 42 42 43 43 44 46 48 49 51 53 54 55 55 53 54 56 55 54 56 56 55 56 55 54 54 54 52 53 51 50 48 50 48 43
33 35 35 36 36 37 39 39 39 40 42 43 44 46 47 48 49 48 49 53 54 56 58 58 59 59 59 57 57 57 57 58 57 56 56 56 55 53 52 52 50 49 45

GFSSE_500_spd_045.txt.gz
Wind_Speed
18 16 15 14 12 11 11 8 6 7 8 8 9 10 10 11 12 13 14 14 14 14 14 14 14 14 15 16 17 17 17 17 18 19 18 17 16 17 17 17 17 17 16
17 16 15 13 11 10 9 7 7 8 9 10 11 12 13 14 15 16 16 17 17 16 16 16 16 16 16 16 16 16 16 16 16 16 16 16 16 16 16 16 16 16 17
14 15 13 11 10 9 9 8 9 9 10 11 12 12 13 14 15 16 17 17 16 16 16 16 17 17 17 17 17 18 18 17 16 16 16 16 16 16 16 16 16 17 18
15 14 12 11 11 10 10 10 10 11 12 13 13 13 14 15 16 17 17 17 17 17 17 17 17 17 18 19 19 19 19 18 16 17 16 16 17 17 16 16 17 18 17
16 16 14 13 13 12 12 13 14 14 14 13 13 14 15 16 17 16 17 17 18 18 18 18 17 18 19 19 19 20 19 19 18 17 18 17 17 17 16 16 16 16 17
19 18 17 17 16 16 15 15 16 17 15 15 15 16 17 17 17 18 19 20 20 19 18 18 18 19 20 20 20 20 20 20 19 18 17 17 17 17 16 15 15 16 17
21 20 19 19 19 19 18 17 16 16 16 17 18 18 18 18 19 20 20 19 19 19 19 18 19 19 20 20 21 20 20 20 19 17 16 16 16 17 16 17 18 18 18
23 24 22 22 22 21 20 19 18 17 16 17 20 21 20 20 20 20 19 19 18 19 19 19 19 19 19 20 20 20 20 19 19 19 19 19 18 19 19 18 17 18 18
26 26 25 24 23 22 21 20 19 18 18 18 19 20 21 20 19 18 19 19 19 19 19 19 20 20 20 19 19 20 21 22 21 22 20 19 19 20 19 18 17 18 19
28 28 27 26 24 23 22 21 21 20 19 19 21 20 20 20 19 19 18 19 19 19 20 20 20 20 19 19 20 20 21 21 22 21 21 20 19 19 19 20 19 20 22
29 29 27 26 25 24 24 23 23 22 21 20 21 19 18 17 18 20 20 20 20 20 21 21 21 21 22 21 22 22 22 21 21 21 19 19 20 20 20 22 23 23 23
30 30 28 27 27 26 25 25 25 23 22 22 21 19 18 17 18 19 19 21 22 22 23 22 22 23 23 23 24 24 24 23 21 23 22 20 20 21 21 22 23 24 24
31 31 29 29 29 27 28 26 24 24 24 23 21 22 20 20 20 21 21 21 22 23 23 23 23 24 25 26 26 26 26 25 23 25 25 24 23 23 23 23 23 24 25
33 32 31 29 29 28 28 28 25 25 23 22 22 23 23 21 22 23 24 23 23 23 24 25 25 26 27 27 28 28 28 26 26 25 27 25 26 25 24 25 25 25 25
32 32 31 30 30 29 28 27 26 25 25 24 24 24 24 24 22 23 24 23 24 25 25 25 26 26 28 29 29 28 29 28 27 26 27 28 28 28 27 26 27 26 26
35 34 32 31 31 30 28 27 26 26 26 26 25 24 24 26 24 23 23 24 24 27 27 27 28 28 29 31 31 30 30 30 29 28 27 29 28 29 29 28 29 28 26
35 34 33 32 31 30 29 29 29 28 26 26 26 26 26 27 27 26 27 26 26 27 30 30 31 32 31 32 33 33 33 32 31 31 30 29 30 30 30 30 29 29 28
38 35 33 34 33 30 29 31 29 29 28 28 29 29 29 31 30 30 30 29 31 31 32 32 32 32 34 36 36 37 37 36 36 34 32 31 32 32 33 32 31 31 29
38 34 32 32 32 31 31 31 33 31 31 31 31 31 32 32 34 34 33 32 33 35 36 37 38 37 35 38 39 39 39 39 38 38 36 35 33 34 35 34 33 32 32
34 33 33 32 32 33 34 34 33 34 34 33 33 33 32 31 34 35 37 38 37 37 38 40 41 41 41 41 42 42 42 42 42 40 39 37 37 35 37 36 36 36 35
42 38 36 38 36 34 34 36 36 35 35 36 35 35 35 36 36 37 39 41 42 41 41 42 43 42 43 46 47 47 47 47 46 45 43 42 39 39 39 39 38 38 38
38 39 40 39 39 38 38 38 37 36 34 35 36 37 41 42 40 41 41 42 44 43 43 44 45 46 47 47 48 49 49 49 46 47 46 44 45 43 42 42 42 41 41
41 42 40 40 41 41 40 39 38 38 36 35 35 37 42 45 47 45 44 44 45 45 46 46 47 47 49 49 49 51 51 50 51 50 48 47 46 45 44 44 45 47 47
42 41 41 41 41 41 40 39 39 38 38 38 37 38 41 45 47 49 48 46 48 49 51 52 52 50 52 50 52 52 55 56 55 53 50 48 48 49 49 47 48 48 45
39 39 39 38 37 37 37 38 38 38 39 40 41 40 41 43 46 48 50 51 50 51 51 52 54 53 53 54 55 56 58 56 58 57 55 52 51 51 52 50 49 50 51
34 34 34 33 34 33 34 35 37 39 40 41 42 41 41 44 46 46 47 48 49 50 51 52 53 55 56 58 59 61 62 62 61 60 58 57 54 54 55 54 52 51 52

GFSSE_500_spd_048.txt.gz
Wind_Speed
18 17 16 14 13 11 9 8 7 5 7 6 7 7 8 9 10 12 13 13 14 15 16 15 14 14 13 13 12 12 13 13 14 14 14 15 16 16 16 16 16 16 15
18 19 17 14 14 12 10 8 6 5 4 5 6 8 9 11 12 13 14 15 16 17 18 18 18 17 17 16 15 15 14 15 15 16 15 15 15 16 16 16 16 16 16
18 18 15 13 13 12 10 7 5 6 6 7 9 10 10 12 13 14 16 17 18 17 17 18 18 17 17 16 16 17 17 18 19 18 17 16 16 16 17 17 17 16 16
13 14 12 12 12 11 9 7 6 7 8 10 11 11 12 13 14 15 16 15 15 15 15 16 17 16 16 17 17 17 17 18 20 18 19 18 18 18 17 16 16 17 17
16 15 13 13 12 11 9 9 10 10 11 12 13 13 13 14 15 15 15 16 17 17 17 16 15 15 16 17 17 17 17 18 20 21 19 19 19 18 19 18 17 16 16
18 17 15 14 13 12 11 11 13 14 14 13 14 14 15 16 16 17 17 17 17 16 16 16 16 16 16 17 18 18 18 18 18 20 21 20 19 19 18 19 17 17 19
19 18 17 16 15 15 14 13 14 14 15 17 16 16 17 17 18 18 18 16 16 16 16 16 16 17 17 18 19 19 20 20 19 18 18 20 20 20 19 19 20 21 20
21 21 19 19 18 17 17 16 15 15 15 17 19 19 18 18 19 19 17 16 15 15 16 16 16 17 18 20 21 21 20 21 20 21 21 21 21 21 20 20 21 19 18
23 23 22 21 20 19 19 18 17 17 18 18 18 20 21 20 19 17 16 15 15 16 17 16 17 18 19 20 21 21 21 22 21 21 21 21 22 21 20 18 19 19 19
26 25 24 23 23 22 20 21 20 20 21 20 19 19 20 19 19 17 15 16 16 17 18 18 18 19 19 20 21 22 22 23 23 23 22 21 21 21 20 20 20 20 21
28 27 26 25 24 24 23 24 22 21 21 21 20 19 17 16 17 18 19 19 18 19 19 19 20 21 21 22 22 23 23 23 23 22 23 23 23 22 22 22 21 21 22
29 28 27 27 26 27 26 26 24 22 21 22 22 19 18 17 17 18 19 20 21 21 21 22 23 23 23 23 24 25 25 25 25 26 25 24 25 23 23 23 23 22 23
31 30 30 29 28 28 28 26 24 23 23 23 23 21 19 18 19 19 20 20 23 23 24 25 25 24 24 24 26 27 27 26 26 27 28 28 27 26 25 24 23 24 25
33 32 32 31 30 30 29 28 25 24 23 23 23 23 21 21 21 21 21 22 24 25 26 26 27 26 26 26 26 27 27 27 27 27 28 29 28 26 26 25 25 25 25
34 33 32 32 32 32 30 29 26 25 25 24 24 25 25 22 21 23 24 23 24 27 28 27 28 28 29 29 30 30 30 29 28 28 28 29 29 28 28 26 26 26 26
37 36 34 33 33 31 29 30 28 27 27 26 26 26 25 23 23 24 26 27 27 28 30 28 29 29 29 30 32 34 34 32 32 32 30 28 30 31 29 29 30 28 28
38 38 37 36 34 32 31 30 28 29 29 28 27 26 26 26 26 27 27 28 29 29 30 31 31 31 32 32 34 36 36 36 35 34 34 32 31 31 31 30 30 31 30
40 39 39 36 34 32 31 30 29 29 28 28 29 29 28 29 29 29 29 30 31 31 31 32 34 34 35 36 37 39 39 39 39 39 36 36 35 34 33 32 32 32 33
39 38 37 35 33 33 32 31 32 30 28 30 31 31 32 31 32 33 32 31 32 33 34 35 37 37 37 38 40 42 42 43 43 43 42 41 39 39 37 36 35 34 36
40 39 36 35 35 36 34 33 32 31 30 31 32 32 33 33 34 36 36 34 36 36 37 39 39 40 40 41 42 44 44 44 45 46 45 45 44 42 42 41 39 37 37
43 40 37 35 35 36 36 34 33 34 35 34 35 34 35 35 36 37 37 37 38 40 42 43 43 43 43 44 46 45 46 47 47 47 47 46 45 45 45 44 44 42 41
40 39 38 40 42 41 39 37 36 37 37 38 39 39 38 38 38 39 39 39 41 43 44 45 45 45 45 46 46 48 47 48 47 50 52 51 48 48 45 43 44 45 46
44 44 45 46 44 43 43 42 39 39 39 39 41 42 42 41 41 42 43 43 43 44 43 46 47 48 48 48 49 51 51 51 53 53 54 55 54 54 50 47 47 48 47
43 44 45 45 44 44 43 42 41 41 41 41 40 40 40 42 45 46 48 48 47 44 46 48 49 48 49 48 50 51 52 52 53 55 56 58 58 58 55 52 52 51 50
42 44 44 44 44 44 44 43 42 42 41 40 39 38 40 43 45 46 48 49 49 49 49 49 49 48 49 50 51 51 46 56 57 58 58 60 63 62 61 57 53 51 52
40 41 41 41 41 41 42 41 40 39 38 38 39 40 42 43 44 45 46 48 49 50 50 49 49 49 50 51 53 52 53 55 56 59 61 62 69 66 65 66 61 58 52

GFSSE_500_spd_051.txt.gz
Wind_Speed
17 15 14 14 13 13 12 11 9 7 6 4 4 4 4 5 6 8 10 12 14 15 16 16 16 16 16 16 16 17 17 17 17 17 17 17 17 17 18 17 17 16 16
17 17 17 16 15 15 14 12 9 6 4 2 3 4 5 7 8 10 12 14 15 16 17 17 16 16 15 15 16 16 16 17 18 18 18 18 18 18 18 18 18 17 16
19 20 18 18 17 15 14 11 7 5 3 4 6 8 9 10 11 13 14 15 15 15 15 14 15 15 15 15 15 16 17 17 18 18 18 19 19 20 19 20 19 18 17
19 19 16 16 15 14 12 8 7 5 5 7 8 9 10 12 13 14 14 15 15 15 16 16 15 14 14 14 15 16 16 16 17 19 20 20 20 20 20 20 20 20 19
17 16 15 15 14 12 10 9 8 6 7 8 10 11 12 13 14 15 15 16 16 16 15 14 14 13 14 15 16 17 17 18 18 19 19 19 19 19 19 20 20 21 20
19 16 15 14 12 11 9 10 10 10 10 10 12 13 14 16 17 16 17 17 17 16 15 14 13 14 14 15 17 18 19 21 22 22 21 21 20 20 20 19 20 19 20
18 17 16 15 13 11 10 9 10 11 13 14 14 14 16 17 17 18 18 18 17 16 15 14 14 15 15 16 18 19 19 20 21 22 23 22 22 21 22 21 20 21 22
20 19 17 15 14 13 12 11 11 12 14 14 17 19 19 19 19 19 18 18 17 16 16 16 16 17 17 18 19 20 20 21 21 21 22 22 23 22 22 21 21 20 21
22 20 18 17 16 16 15 14 14 15 15 15 16 18 22 22 20 19 18 18 17 17 17 17 18 18 19 20 20 22 22 23 23 23 23 23 23 22 22 21 21 21 21
23 21 20 19 19 18 17 17 17 18 18 18 18 18 20 22 21 19 18 18 18 18 18 18 19 20 20 21 21 22 24 25 25 25 25 25 25 24 23 23 23 23 22
25 24 23 22 21 21 20 19 19 20 20 20 20 19 20 21 20 19 19 19 18 19 19 20 21 21 21 21 23 23 25 26 26 26 26 26 26 27 27 26 25 25 25
27 26 25 24 24 23 23 21 21 21 21 22 22 21 21 21 20 19 20 20 21 22 23 23 24 24 24 24 25 26 26 26 27 27 26 27 26 26 27 27 27 26 25
30 28 27 27 26 25 25 23 22 22 22 23 23 23 22 21 21 20 20 21 22 23 23 24 25 27 28 28 28 29 29 28 29 29 29 28 27 27 27 27 27 26 26
32 30 30 29 29 28 27 25 24 23 23 24 25 23 23 22 23 22 22 22 24 25 24 25 26 28 29 30 30 31 31 31 30 32 31 30 30 29 29 28 27 27 27
32 33 34 33 32 30 28 27 26 25 25 25 25 26 25 24 24 24 25 25 25 25 25 27 28 28 30 31 31 33 34 34 33 33 33 33 32 33 32 30 29 28 28
38 36 34 33 32 32 30 29 29 28 27 26 27 27 27 26 26 26 26 26 27 26 27 29 30 31 31 32 32 34 36 36 35 35 36 35 35 36 36 34 33 31 30
42 41 38 38 37 33 33 32 31 30 29 29 29 27 28 27 27 27 28 28 30 29 31 32 34 34 34 34 35 36 37 38 38 38 38 38 39 39 39 38 36 34 32
44 43 42 40 37 35 34 34 33 30 31 31 30 29 29 28 28 29 29 30 32 32 33 34 36 37 37 37 38 38 39 41 41 40 40 42 42 41 41 41 41 39 38
44 43 42 40 39 38 37 36 35 33 33 34 33 31 31 30 31 32 31 32 34 35 35 36 37 38 40 40 40 42 42 43 43 43 44 44 44 45 44 44 44 43 43
43 42 43 41 40 40 39 38 37 37 36 34 33 32 33 33 34 34 34 34 36 36 36 39 39 41 42 43 43 43 43 43 45 45 46 47 46 47 47 46 45 44 45
43 42 43 43 41 41 41 39 38 37 35 34 33 33 34 35 36 36 36 38 39 38 39 41 43 44 45 45 45 43 43 45 45 47 49 50 50 50 50 51 50 48 45
44 42 42 42 41 42 42 40 38 37 35 35 35 36 37 38 38 39 39 39 40 41 42 44 46 47 47 47 47 49 47 47 46 48 50 52 52 52 52 52 52 52 52
46 44 44 44 43 43 43 41 39 39 39 40 40 40 41 40 41 40 40 41 41 43 45 46 47 47 48 48 49 50 50 49 48 48 50 50 53 50 54 54 56 56 54
46 46 46 45 43 43 43 45 45 45 43 41 41 42 44 45 44 42 41 42 45 47 49 48 47 47 49 49 49 48 49 50 50 49 49 51 51 51 53 54 55 57 59
47 46 46 49 50 50 48 47 45 45 45 44 44 45 45 46 45 44 45 47 49 51 51 49 48 50 49 48 48 50 51 52 51 51 47 48 52 54 55 58 60 61 60
45 46 47 48 48 47 47 46 46 47 46 45 45 45 45 44 43 45 47 48 50 51 49 49 51 52 51 49 51 51 50 49 47 48 50 51 54 57 58 59 61 61 62

GFSSE_500_spd_054.txt.gz
Wind_Speed
15 13 13 12 11 10 9 9 8 7 5 4 2 2 2 2 3 4 6 8 11 12 13 14 13 13 13 13 13 13 13 14 15 16 16 17 18 18 18 18 17 18 18
17 16 14 13 13 12 11 10 9 8 5 3 2 2 2 4 6 8 10 11 13 12 12 12 12 12 13 14 14 13 14 14 14 15 16 17 18 19 19 19 18 19 20
18 17 16 16 16 14 12 11 9 7 4 3 2 3 6 8 10 11 12 13 13 13 13 13 14 13 13 13 13 13 14 15 15 16 16 17 18 18 18 19 19 19 20
15 18 16 16 15 14 12 10 9 7 5 4 4 6 8 10 11 13 13 13 14 14 14 14 14 13 13 13 14 14 16 16 17 17 18 19 19 20 20 19 19 19 20
17 18 15 14 14 13 11 9 7 6 6 6 7 8 9 11 13 15 14 14 15 15 15 15 15 15 14 14 14 16 16 18 18 19 19 20 20 20 21 20 20 20 19
19 19 16 14 13 11 10 8 8 8 7 7 8 9 11 13 14 15 15 16 16 16 16 16 16 15 16 16 17 18 19 19 20 20 20 20 21 20 20 21 22 22 21
19 18 16 14 13 11 10 9 9 9 10 10 10 11 13 15 16 16 17 17 16 16 16 15 15 16 17 18 19 20 21 22 22 23 23 23 23 23 22 22 21 22 21
19 18 16 14 13 13 11 10 9 9 10 12 15 17 16 17 18 18 18 17 16 16 16 16 16 16 18 19 20 21 21 22 23 24 24 24 24 24 24 24 23 22 22
21 19 16 15 14 13 12 11 10 10 10 11 12 16 19 21 20 18 18 18 17 16 16 16 17 17 18 20 21 21 21 22 23 24 24 25 24 24 24 24 24 24 24
22 19 17 17 16 14 14 13 13 12 12 13 13 15 18 20 19 19 19 18 17 17 17 17 18 19 20 21 22 23 24 24 25 26 27 27 26 26 26 26 25 25 25
23 21 20 19 18 17 16 16 16 15 14 14 16 16 18 19 19 19 20 20 19 19 18 19 19 19 20 21 22 23 24 26 27 28 28 28 28 29 28 27 27 27 27
27 25 23 22 20 20 19 18 17 17 17 17 18 19 19 20 19 20 20 20 22 22 22 22 22 23 23 23 24 24 26 27 28 28 29 29 29 29 30 29 28 27 27
29 26 26 25 23 22 22 20 19 19 20 20 19 20 21 21 22 22 21 22 23 23 23 23 24 24 24 24 26 28 29 30 30 30 31 31 31 31 30 30 31 30 28
32 29 27 26 25 25 24 23 22 22 21 21 21 21 22 23 23 23 23 22 23 23 22 23 24 25 25 27 28 30 32 32 32 33 32 33 33 34 33 33 32 31 30
33 32 31 30 30 30 28 25 24 24 24 23 23 23 24 24 25 25 24 24 24 24 24 25 26 27 28 28 31 33 34 35 35 34 33 34 35 36 36 36 36 36 35
35 35 34 34 33 32 31 28 27 27 26 25 26 25 25 25 26 26 25 25 26 25 26 27 28 28 29 30 33 34 35 36 37 37 36 36 38 38 37 37 38 39 39
39 38 38 36 34 33 31 30 30 30 28 27 28 27 27 27 27 27 27 28 29 28 29 30 30 31 32 32 34 36 37 38 39 40 40 40 40 40 40 41 40 40 41
42 39 39 39 39 37 36 35 34 33 31 30 30 29 30 30 29 28 29 30 31 31 31 32 32 33 34 34 36 39 40 41 42 41 42 42 41 41 42 41 43 43 43
45 44 42 41 40 39 37 36 36 35 34 33 33 32 32 31 31 30 30 32 32 33 33 33 34 35 36 38 40 41 42 43 44 43 43 41 43 44 44 45 45 46 47
50 47 45 44 42 41 39 38 38 37 37 36 35 34 34 34 33 32 31 33 35 36 35 36 36 38 39 41 43 43 45 45 44 42 43 45 47 46 48 47 47 48 46
58 51 49 47 44 42 41 40 40 39 39 38 36 36 36 36 35 34 35 36 38 37 39 39 38 40 41 44 46 45 46 45 44 42 43 44 46 47 46 47 47 48 49
55 53 48 47 46 44 44 43 43 42 41 39 38 38 37 36 38 38 39 39 41 41 40 41 42 42 44 46 48 49 46 44 44 45 45 45 45 46 48 50 49 47 48
49 50 51 48 47 46 46 46 45 44 42 40 41 40 39 40 41 41 40 43 44 43 43 43 44 45 47 47 48 49 49 48 48 45 45 45 46 47 48 48 47 48 50
45 46 47 48 46 44 44 44 43 43 41 41 42 42 44 45 45 43 45 45 45 45 43 43 47 49 50 48 47 48 49 50 48 46 47 46 43 43 43 44 47 49 50
46 46 46 47 46 46 45 44 42 42 42 43 44 46 46 45 46 47 48 47 47 44 43 46 50 51 49 48 47 47 47 47 46 47 45 41 41 41 43 46 48 48 50
38 42 46 46 46 47 47 48 49 48 48 48 48 47 47 47 48 48 49 48 46 45 47 50 51 50 48 48 49 48 48 48 46 44 40 39 38 40 44 44 46 47 49

GFSSE_500_spd_057.txt.gz
Wind_Speed
14 12 11 11 9 8 7 7 6 5 4 3 3 1 1 1 1 3 6 8 10 10 11 10 10 10 11 12 11 11 12 12 13 13 14 15 15 16 16 16 18 18 18
14 13 13 12 10 9 8 8 7 6 3 2 2 1 0 2 4 6 8 10 10 11 11 11 12 13 13 12 11 12 12 13 14 15 15 16 17 18 17 17 17 18 18
16 16 14 13 11 11 9 9 8 6 3 2 2 1 2 3 6 7 9 11 11 11 12 13 13 13 13 12 12 13 13 14 15 15 16 17 17 18 18 18 18 19 19
16 15 15 14 13 12 10 9 7 6 4 3 2 2 4 6 7 9 10 11 11 12 12 12 13 13 13 13 14 15 15 16 17 18 18 19 18 19 20 20 19 19 20
17 15 15 14 13 12 10 9 8 7 5 4 3 4 6 7 9 10 10 11 11 12 12 12 12 12 12 13 14 16 17 18 19 19 19 20 20 21 21 22 22 21 21
19 17 17 14 14 12 10 10 9 7 5 4 4 5 7 8 10 11 12 13 13 13 13 12 12 12 13 14 15 16 17 18 18 19 19 19 20 21 22 23 23 23 22
20 19 19 15 14 12 10 10 9 7 5 5 5 6 8 9 10 12 13 13 14 14 14 13 14 15 15 15 16 17 18 19 19 20 21 22 22 22 22 23 23 23 23
21 20 19 17 15 14 12 10 8 7 6 7 9 11 11 11 13 13 14 14 15 15 14 14 14 15 16 16 17 18 19 21 21 22 23 23 24 25 24 25 26 25 25
23 22 20 18 17 15 13 12 9 7 7 7 9 12 14 15 16 15 15 14 15 15 15 15 15 16 17 18 18 19 21 22 23 24 24 25 26 27 27 27 27 28 27
25 23 21 19 18 17 15 13 12 10 9 9 10 10 12 15 17 18 18 16 15 15 16 16 16 18 19 19 20 21 22 23 24 24 25 27 27 29 28 28 28 28 28
26 23 22 20 20 18 16 14 13 12 11 11 11 12 13 14 15 17 18 18 18 17 17 17 18 19 19 20 21 21 22 23 24 25 25 27 28 29 29 29 29 29 30
28 26 23 22 21 19 17 16 15 14 13 13 13 14 15 16 16 17 17 18 19 20 20 19 19 19 19 20 21 22 24 25 26 27 26 26 28 28 30 30 29 29 30
31 28 27 24 23 21 19 18 16 16 16 15 15 16 17 17 17 18 19 19 19 19 19 19 20 21 21 21 22 24 26 26 26 27 28 29 30 30 30 30 31 32 32
34 31 27 27 25 23 22 21 19 19 18 18 18 18 19 19 20 20 20 21 21 20 20 21 21 22 23 24 24 25 27 28 29 29 31 32 32 33 33 33 34 33 33
34 32 30 29 27 26 24 22 22 22 22 21 21 21 21 21 22 22 22 22 22 21 21 22 23 24 25 25 26 27 28 30 31 33 34 35 35 36 36 36 36 35 35
37 36 34 32 30 29 28 27 25 25 25 25 24 23 24 24 24 24 24 24 24 23 23 25 26 26 27 28 29 30 31 32 33 34 36 37 39 39 38 38 37 36 35
41 40 38 35 33 31 30 30 29 28 27 26 26 26 26 27 27 27 26 27 26 25 26 27 27 28 30 30 33 33 33 34 36 37 38 39 39 39 39 37 37 38 36
45 42 40 38 38 36 34 32 31 30 28 29 30 29 29 29 28 28 28 29 29 28 28 29 30 31 32 34 36 36 36 37 39 40 40 41 40 40 40 40 41 40 41
45 46 44 42 40 39 36 35 34 33 33 34 33 32 32 30 29 28 29 31 31 30 30 32 33 34 36 37 39 38 38 40 41 42 42 42 42 42 42 43 43 43 43
43 43 43 43 44 43 42 39 38 37 37 37 36 35 35 33 32 31 31 32 33 33 34 35 35 37 38 39 41 40 40 43 44 43 42 42 43 44 44 43 43 43 44
46 44 46 47 46 44 44 43 41 41 41 39 39 38 37 36 34 33 33 34 35 35 37 37 39 41 41 42 41 40 42 45 44 44 43 42 41 42 42 43 44 44 42
56 54 51 43 47 49 49 47 46 45 42 41 41 40 39 39 38 37 37 35 36 38 40 39 45 45 44 43 42 43 43 44 45 44 44 44 42 42 43 44 43 41 38
46 49 49 50 52 50 50 50 48 46 44 44 43 42 43 42 41 41 40 39 40 44 42 46 48 47 45 43 44 47 49 47 45 43 43 42 42 43 43 41 39 37 37
50 47 48 52 51 51 49 49 49 47 47 46 45 46 45 44 43 42 43 44 47 46 45 46 48 48 45 43 45 49 49 47 44 43 43 42 41 40 38 36 36 37 39
47 45 42 44 44 47 49 50 49 48 48 48 47 47 46 45 44 46 46 46 46 46 47 47 47 44 42 45 48 48 47 45 44 44 42 41 37 34 36 36 37 39 40
43 43 43 43 43 44 45 47 47 48 48 48 46 45 45 45 46 47 47 47 47 48 49 46 42 43 46 49 49 47 45 44 44 42 40 34 32 34 35 37 38 40 40

GFSSE_500_spd_060.txt.gz
Wind_Speed
15 13 12 12 11 10 8 7 6 5 4 4 4 4 3 2 1 1 3 5 8 10 10 10 10 10 10 10 10 10 11 12 13 14 14 15 15 16 17 18 18 18 19
15 15 13 12 12 10 9 8 6 5 4 3 3 4 2 2 0 3 5 7 9 9 10 10 10 11 10 10 10 11 11 12 14 15 15 16 16 17 17 18 19 19 19
16 16 14 12 12 11 9 8 7 5 4 3 3 2 1 1 2 5 6 7 8 9 9 10 10 10 10 10 11 11 12 13 14 15 16 16 17 17 18 19 20 21 21
17 16 15 14 12 10 10 10 8 6 5 5 4 3 2 2 4 5 7 7 8 9 10 10 10 10 10 10 11 12 13 14 15 16 17 18 18 18 19 19 20 21 21
20 17 15 15 14 11 10 11 10 8 8 7 4 3 3 3 5 6 7 8 8 9 10 11 11 11 11 11 12 13 14 15 16 17 19 19 20 20 20 21 22 23 24
22 18 16 15 14 13 11 10 10 10 9 7 5 4 4 5 6 6 8 9 9 9 11 11 11 12 12 12 12 14 15 16 17 18 19 21 22 22 23 23 24 24 25
23 20 19 17 15 14 13 11 11 10 9 7 6 5 6 5 6 7 7 9 10 11 11 11 12 12 13 13 14 14 15 16 18 19 21 22 22 23 23 23 24 24 25
25 22 22 20 17 15 14 12 11 9 8 8 7 7 7 7 7 8 9 10 10 12 12 12 12 13 14 14 15 16 16 17 19 20 21 22 22 23 24 24 25 25 25
26 24 24 22 20 18 16 13 12 10 8 7 8 9 10 9 9 9 10 11 11 12 13 13 14 15 15 16 16 17 18 18 19 20 21 22 23 24 25 25 25 26 26
26 24 24 23 22 21 19 16 15 13 10 9 9 10 11 12 12 13 12 12 12 13 13 14 15 16 17 17 18 19 19 19 20 22 23 24 26 27 28 28 27 27 27
27 25 25 24 23 22 21 19 18 16 13 12 11 11 11 12 13 14 14 14 14 14 15 16 17 17 18 19 20 19 19 20 21 22 23 25 26 28 29 29 30 30 29
31 28 27 25 24 24 22 21 19 17 15 14 13 13 13 13 13 13 14 15 15 16 17 17 17 18 19 19 20 21 21 21 23 24 25 26 26 28 30 30 30 30 31
34 31 29 26 26 25 23 21 20 18 16 15 15 15 15 15 15 15 15 16 16 16 17 18 18 19 20 21 22 22 23 24 26 27 28 28 28 29 30 32 32 33 33
36 33 32 30 28 26 24 23 23 21 19 18 17 17 17 17 17 18 18 18 18 18 19 19 20 20 21 22 24 24 25 27 29 30 30 30 30 30 31 33 34 34 33
37 35 35 33 31 30 27 26 25 23 22 21 20 20 19 19 20 20 20 20 21 20 21 22 22 23 23 24 26 27 29 30 31 32 32 33 33 34 35 35 35 35 33
40 38 37 37 35 33 31 29 27 26 25 24 22 22 23 22 22 22 23 23 23 23 23 24 24 25 26 26 28 30 31 32 33 34 34 35 36 37 38 38 36 35 35
42 41 40 40 37 35 34 32 31 29 28 26 26 26 25 24 25 25 25 26 25 25 26 26 26 27 28 29 31 32 33 34 36 36 35 37 38 39 40 39 37 37 36
43 41 42 43 39 37 36 35 34 32 30 29 28 27 27 27 27 27 28 29 28 28 28 29 29 28 30 31 33 35 36 37 38 38 38 40 42 42 41 39 37 38 38
44 43 42 41 44 41 39 38 36 34 32 31 31 31 31 30 30 30 31 32 31 30 31 31 31 30 32 33 35 38 39 40 40 39 40 42 43 42 41 39 39 39 38
44 42 42 43 46 44 41 40 39 37 36 36 36 36 34 33 33 33 33 33 34 33 33 33 33 34 35 36 40 42 43 42 41 42 43 44 43 42 42 41 41 40 40
47 46 44 43 44 47 50 42 40 40 40 40 40 40 38 37 36 36 35 35 36 36 36 35 35 36 38 40 46 44 44 43 41 43 45 46 44 42 41 41 41 40 39
49 49 48 45 42 43 41 42 43 44 45 44 43 43 43 41 40 39 37 37 38 38 38 38 40 42 44 45 46 47 45 43 41 43 47 47 45 44 42 41 40 39 37
55 54 51 48 47 48 46 45 45 46 48 48 48 47 45 44 43 42 41 40 40 40 40 41 44 46 47 47 48 49 47 42 42 45 46 45 43 42 43 42 40 37 35
51 51 51 54 54 54 53 53 53 52 51 49 49 48 46 46 45 44 43 43 43 43 43 46 47 47 47 48 48 47 44 43 47 48 45 43 42 42 40 39 37 35 35
44 44 48 49 50 47 50 53 52 53 55 54 51 49 48 47 47 47 46 45 45 45 47 48 48 48 48 47 45 41 43 47 47 48 43 44 44 41 38 37 35 36 37
53 50 49 50 52 52 49 49 52 54 53 54 50 49 49 50 49 48 48 47 47 48 49 48 48 47 46 43 40 42 45 48 46 45 44 44 43 39 36 36 36 37 38

GFSSE_500_spd_063.txt.gz
Wind_Speed
17 15 14 13 12 11 10 8 7 5 4 5 5 5 6 5 3 2 2 3 4 5 6 8 8 9 10 10 10 10 10 11 12 13 14 16 17 18 18 18 19 19 20
20 17 15 14 13 12 10 8 7 6 4 4 5 4 4 4 3 1 2 4 5 6 7 7 8 8 9 9 9 10 10 11 12 13 14 16 17 18 19 20 21 20 21
19 19 17 14 13 13 11 9 7 6 5 4 4 4 4 3 3 3 4 5 6 7 8 8 8 9 8 8 9 10 10 11 12 13 14 16 18 19 21 21 22 22 22
21 19 17 15 12 12 12 11 9 8 7 6 6 5 3 3 4 4 5 5 6 7 8 8 9 9 9 9 9 10 11 12 12 14 15 17 18 19 20 21 22 22 23
23 20 18 17 13 12 12 11 10 9 9 8 7 5 4 4 4 5 6 6 7 7 8 8 9 9 10 10 10 11 12 13 14 15 16 17 19 19 20 21 22 23 23
24 21 19 17 16 13 12 12 12 11 11 10 9 7 5 4 5 5 6 6 6 7 8 9 9 10 10 10 10 12 13 13 14 15 17 18 19 21 23 23 23 24 24
26 23 22 20 16 15 12 12 13 12 12 11 10 7 6 5 6 6 6 6 7 8 8 9 10 10 11 11 12 13 14 14 15 15 17 19 21 22 24 25 25 24 25
29 26 23 23 19 17 14 13 13 13 13 11 10 8 7 6 6 6 8 8 8 8 9 9 10 11 12 13 14 14 15 16 16 17 18 20 22 24 24 25 25 25 25
31 27 24 24 23 19 17 16 15 14 12 12 11 9 8 7 7 7 9 10 10 10 10 11 12 12 14 14 15 16 16 16 17 18 19 21 23 25 26 26 26 26 26
32 28 27 26 26 23 20 18 17 16 13 12 11 10 10 9 9 9 9 10 11 11 11 12 13 14 14 15 16 17 17 18 19 20 21 24 25 26 27 27 27 27 27
31 29 28 27 27 25 23 22 20 19 16 14 14 13 12 11 10 11 11 12 12 13 13 14 15 16 16 17 18 19 19 20 21 23 24 26 27 28 29 30 30 28 29
33 31 29 28 30 28 25 24 23 21 19 17 16 15 13 13 12 12 12 14 14 15 16 16 17 18 18 19 20 20 21 22 23 25 26 26 28 29 31 31 30 31 31
37 34 30 29 30 30 28 26 25 24 21 19 18 16 16 14 14 13 13 14 14 15 16 17 18 19 19 20 21 22 23 24 25 27 28 28 29 30 31 31 32 34 33
38 35 32 31 31 32 31 27 27 25 22 21 19 18 17 16 16 16 15 15 15 16 17 19 20 20 21 22 23 23 24 26 28 29 29 31 32 31 32 32 34 34 34
41 36 35 32 30 31 32 29 29 27 24 22 21 20 19 19 18 18 18 17 17 18 19 20 22 22 23 24 24 25 27 28 30 31 31 33 33 33 33 35 36 37 35
44 41 38 36 33 32 33 32 31 29 27 25 24 23 22 21 22 21 21 20 19 20 21 23 23 24 25 25 26 27 29 30 32 33 34 35 36 35 36 38 39 37 35
45 43 42 38 36 35 36 36 34 32 30 29 27 26 26 24 24 23 22 22 22 23 24 25 25 26 27 26 28 29 30 31 35 36 37 38 37 36 37 40 40 38 35
46 45 44 41 39 38 38 38 38 36 34 32 31 30 29 28 26 24 24 25 25 26 27 28 28 29 29 29 30 32 32 34 38 39 40 40 39 38 39 42 43 39 36
47 46 45 43 42 40 40 38 40 39 38 36 34 33 32 30 28 28 27 28 28 29 29 30 30 31 31 31 32 34 36 37 41 41 42 43 40 39 42 44 42 40 38
47 47 45 44 42 40 42 43 40 40 41 40 37 35 34 33 32 31 31 32 31 32 32 32 32 34 33 34 36 36 40 42 43 43 44 44 41 40 44 45 45 41 41
46 46 45 44 44 44 41 41 46 48 44 42 39 38 37 36 36 35 35 36 36 35 34 34 35 36 36 37 39 41 43 44 43 45 45 44 41 43 46 46 45 43 42
49 44 44 45 44 41 41 41 41 40 52 43 39 40 39 39 40 39 39 39 40 38 37 37 37 38 39 40 42 45 46 44 46 46 41 42 44 46 48 49 46 43 42
54 54 48 48 47 45 43 43 42 41 39 39 43 45 46 44 43 44 43 43 42 41 40 39 41 41 42 42 45 47 48 47 46 43 38 41 46 47 48 47 46 46 44
52 54 57 52 50 48 47 46 46 47 45 46 45 46 47 48 48 47 46 45 44 44 43 42 44 44 45 45 46 47 47 47 45 42 41 45 48 47 47 46 46 44 43
51 50 49 55 55 55 53 49 51 52 52 55 54 54 54 54 53 51 50 49 47 45 45 45 45 45 46 48 47 46 44 44 43 44 46 47 49 47 46 46 45 43 41
51 50 48 47 47 51 56 55 51 51 52 51 53 55 55 54 53 51 49 48 48 48 47 47 46 47 47 46 46 44 46 41 44 46 49 50 48 46 46 45 44 43 38

GFSSE_500_spd_066.txt.gz
Wind_Speed
18 16 15 14 12 11 11 9 8 7 5 5 4 4 4 5 5 4 2 1 3 4 5 6 7 8 8 8 7 7 8 9 10 11 12 14 15 16 17 17 19 20 21
21 18 15 15 14 12 11 9 8 7 5 4 4 4 5 5 4 2 2 3 4 5 5 5 7 7 8 8 8 8 8 10 11 12 13 14 15 16 17 18 19 20 21
21 20 18 16 15 14 12 10 8 7 6 5 5 5 4 4 2 2 3 4 4 5 5 5 6 7 7 8 8 8 9 10 11 12 13 14 15 16 18 19 20 21 21
21 20 19 18 15 14 13 11 10 9 7 6 6 5 5 4 3 3 4 4 4 5 5 5 6 6 7 7 8 8 9 9 10 11 13 14 16 18 19 20 22 22 22
24 20 18 16 16 15 14 12 11 11 9 8 7 7 6 5 4 3 4 4 5 4 4 5 6 6 6 7 8 9 9 10 11 12 13 14 16 18 19 20 21 22 22
26 24 21 17 16 15 14 12 11 11 11 11 10 9 7 6 4 3 4 5 5 5 4 5 5 6 6 7 8 9 10 11 12 13 14 15 17 19 20 22 23 23 23
27 26 23 20 17 15 15 13 12 11 13 12 12 11 9 6 5 4 4 5 5 5 5 6 6 7 7 8 10 11 12 12 13 14 14 16 18 20 21 22 24 24 23
30 27 24 22 20 17 16 14 14 12 14 14 13 11 9 7 6 5 5 5 5 6 7 7 8 8 10 10 11 12 13 13 13 15 16 18 20 21 21 23 24 26 26
31 29 26 22 23 20 19 16 15 15 15 15 13 12 10 9 7 6 5 5 6 7 7 8 9 10 11 11 12 12 13 14 14 15 17 19 21 23 24 24 25 27 26
32 30 27 24 24 24 22 20 18 17 17 15 15 13 11 9 8 7 6 6 7 7 8 9 11 11 11 12 12 13 15 16 17 18 20 22 23 24 25 26 26 26 27
32 33 29 26 25 25 24 23 20 20 18 17 16 14 12 10 10 9 8 8 7 8 10 10 12 12 13 14 15 16 17 18 19 20 23 25 26 28 27 27 26 27 29
33 35 30 26 26 26 27 25 24 22 21 19 17 16 14 12 12 11 10 10 10 10 12 13 14 14 15 16 17 18 19 20 21 22 24 26 27 28 29 29 27 29 31
33 34 30 28 26 27 28 28 27 25 24 22 20 18 16 15 13 14 12 11 11 11 12 14 15 16 16 17 19 20 21 21 22 23 26 27 27 30 31 29 28 30 32
33 28 33 30 26 27 28 29 29 26 25 24 22 20 18 17 16 15 14 13 13 13 14 14 15 17 18 19 19 21 21 22 24 25 27 28 30 32 32 31 30 31 33
40 36 36 31 28 26 25 27 29 28 26 25 24 22 21 20 19 17 16 15 15 15 15 16 16 18 19 20 21 22 22 23 25 26 28 32 33 34 34 32 31 33 35
40 38 38 35 31 31 28 27 27 28 28 27 25 26 25 23 22 20 19 18 18 17 17 18 19 20 20 22 23 23 24 26 27 28 30 34 36 36 36 35 34 33 35
44 42 39 36 36 34 31 29 29 29 30 29 28 29 28 26 25 23 22 21 19 19 20 21 21 22 22 23 25 25 26 28 29 30 32 37 37 38 38 38 35 35 38
45 46 44 42 39 37 36 31 31 31 32 32 32 32 32 30 27 27 25 24 22 22 23 24 24 25 26 26 27 27 28 29 31 33 37 38 39 39 38 39 35 38 40
46 46 45 43 43 40 38 35 34 32 35 37 36 36 36 33 30 29 28 27 26 25 26 27 27 28 28 29 29 30 31 31 34 36 39 39 41 42 39 37 37 40 42
47 46 45 44 43 42 40 39 36 34 35 38 39 38 38 36 34 32 31 30 30 29 29 30 30 31 31 31 32 32 34 34 36 38 40 40 42 44 40 36 38 42 44
50 47 46 45 44 43 42 41 40 38 35 38 39 40 40 39 37 35 34 33 34 33 33 33 34 33 33 34 34 34 35 37 39 40 39 40 42 43 38 39 42 43 45
54 44 45 44 45 43 43 42 42 42 39 37 34 45 49 41 39 38 36 37 38 37 37 38 38 37 36 36 37 38 37 37 40 43 41 38 39 41 40 42 46 47 46
36 41 53 45 45 44 42 43 41 39 39 38 36 36 35 38 51 45 43 43 43 43 43 42 41 42 40 38 40 41 41 41 41 40 39 37 38 39 41 44 48 48 45
44 45 37 50 54 47 45 44 42 42 41 41 41 40 39 40 42 42 45 48 47 48 49 46 45 45 43 43 42 42 43 44 43 41 40 42 41 42 44 47 47 45 44
46 47 48 48 46 51 56 49 46 45 44 45 46 46 47 44 46 50 51 52 53 53 51 51 49 46 45 44 44 44 44 44 42 42 42 40 43 44 47 49 44 44 43
50 53 57 58 50 50 52 58 49 49 49 49 50 49 49 49 51 52 52 53 54 53 51 49 48 48 47 46 47 46 45 44 41 41 42 41 45 46 49 48 44 43 44

GFSSE_500_spd_069.txt.gz
Wind_Speed
20 18 16 13 10 9 9 9 9 8 6 5 5 4 4 5 5 5 4 3 3 3 4 5 4 5 6 6 6 6 6 7 8 9 10 11 12 14 15 16 17 18 19
23 19 16 14 13 12 11 10 9 8 6 5 5 4 4 5 5 4 3 3 4 4 4 4 4 5 5 5 5 5 6 7 8 9 9 11 12 13 15 16 18 19 20
24 21 18 15 15 14 12 11 10 8 7 6 5 5 5 5 5 4 4 4 4 4 4 4 4 4 4 4 4 5 5 6 8 8 8 10 12 14 15 16 17 19 20
25 21 20 18 15 15 14 13 12 9 8 7 7 7 7 6 4 4 4 4 4 4 4 4 3 3 3 4 4 5 6 7 7 8 9 10 12 14 15 16 18 20 21
25 23 20 20 18 16 15 14 12 12 11 10 9 9 8 7 6 5 4 3 4 4 3 3 3 4 4 4 4 5 6 7 8 9 10 11 13 15 17 18 19 20 22
28 24 20 19 18 18 16 15 13 12 12 12 11 10 10 9 7 5 4 4 3 3 3 3 3 3 4 5 5 6 7 8 9 9 10 12 14 17 18 19 20 21 23
29 26 23 20 18 17 17 16 14 11 12 14 14 13 12 10 8 6 5 5 4 4 4 3 3 4 5 6 7 7 8 9 10 11 11 13 15 18 19 21 21 22 22
31 30 25 23 20 18 16 16 15 13 13 14 15 15 14 11 9 7 7 6 5 5 4 4 4 5 6 7 8 8 9 10 11 12 12 14 17 18 20 21 22 22 22
35 32 28 24 22 20 17 17 16 15 14 15 16 16 14 12 10 9 8 7 7 6 5 5 5 6 6 7 8 9 10 11 12 13 14 16 19 21 22 23 23 22 21
37 34 30 26 23 21 18 19 18 17 16 17 18 17 15 13 12 11 10 8 7 6 6 5 5 6 7 7 8 9 10 11 13 14 16 18 21 22 24 24 25 24 23
36 35 32 27 23 21 21 19 20 20 19 19 19 18 17 15 13 12 11 9 9 7 7 7 7 6 7 8 10 11 12 14 16 16 18 20 23 24 24 26 26 25 25
37 37 33 29 25 22 24 23 21 22 21 21 20 20 18 16 15 13 12 11 10 9 9 9 8 8 8 10 11 12 13 15 16 17 19 21 22 24 26 29 28 27 26
35 39 33 30 25 23 24 25 23 24 24 23 22 21 20 17 16 15 14 13 13 12 12 12 11 10 10 11 12 13 14 15 17 19 21 21 23 27 28 29 28 28 28
35 34 33 32 26 23 23 25 24 24 23 24 23 23 22 19 18 17 16 15 14 14 15 14 13 13 13 13 15 16 17 17 17 19 22 22 25 28 30 30 30 30 29
28 39 33 26 25 24 21 21 22 24 23 23 24 24 25 23 20 19 18 17 17 17 17 16 15 16 16 16 16 18 18 19 20 22 24 24 27 30 31 32 32 32 32
31 32 25 24 25 24 23 22 23 25 25 24 24 26 26 26 24 21 19 19 19 19 19 18 17 18 18 19 19 20 22 22 23 24 24 25 28 31 33 33 33 33 31
34 31 30 32 27 28 26 25 26 26 28 27 26 28 27 28 27 23 22 22 21 22 21 20 20 20 20 21 22 22 23 23 25 26 27 28 31 33 34 35 35 34 33
39 36 35 35 32 32 30 30 30 30 29 30 29 29 30 30 29 27 26 25 24 24 24 23 22 23 22 23 24 24 25 25 26 28 30 30 32 32 34 35 37 37 34
43 40 41 40 38 37 36 35 34 33 31 32 33 32 32 32 30 30 29 28 27 25 26 26 26 26 25 25 27 26 28 29 29 30 31 32 34 34 35 33 33 34 32
43 44 43 43 42 42 40 37 38 36 35 35 34 34 33 34 32 33 32 31 30 29 29 30 29 28 29 29 30 30 31 31 32 33 34 35 36 38 36 33 35 34 33
43 46 43 44 42 43 41 40 39 39 37 38 36 33 36 34 35 33 33 35 35 34 33 33 33 33 32 34 34 34 34 34 34 37 37 36 37 38 36 35 35 35 37
40 42 48 43 42 43 42 40 41 40 39 39 38 38 38 30 36 38 39 37 38 37 36 37 37 38 38 39 39 39 37 36 36 37 39 39 40 38 36 36 36 37 38
43 41 40 50 43 42 41 43 42 43 40 40 41 42 39 36 37 35 33 37 49 47 41 45 43 42 43 44 46 46 46 42 40 38 38 39 38 36 37 35 36 38 40
50 50 39 37 49 41 40 41 40 39 43 43 42 39 38 41 40 38 38 38 38 39 45 47 48 47 48 50 48 48 45 44 44 40 41 40 39 37 36 37 38 39 40
35 43 45 39 37 38 37 43 49 40 41 41 41 42 43 43 44 42 43 43 42 43 46 51 51 52 52 51 50 45 45 47 45 44 42 41 41 39 39 38 41 41 40
41 42 39 39 42 40 43 45 44 41 45 47 47 48 44 45 46 45 46 48 49 48 49 48 49 50 52 52 52 52 52 48 43 45 42 43 41 40 40 41 42 43 40

GFSSE_500_spd_072.txt.gz
Wind_Speed
22 20 18 16 13 12 10 10 9 7 7 6 6 5 5 6 6 5 6 5 5 5 6 5 6 5 5 3 3 2 2 3 4 6 7 9 10 11 12 13 15 16 18
22 21 19 17 16 14 12 11 10 9 8 7 6 5 6 6 6 5 5 5 6 5 5 5 5 5 4 2 2 2 2 2 4 5 6 8 9 11 12 14 16 17 18
26 23 21 19 16 15 14 12 10 10 9 7 6 6 6 6 6 6 5 6 6 5 5 5 5 5 4 3 3 2 2 3 4 5 6 7 9 11 13 15 16 17 18
30 26 24 21 18 16 15 13 11 11 10 9 8 7 7 8 7 7 6 6 6 6 6 6 5 5 4 4 4 3 2 4 4 5 6 7 9 12 14 15 16 18 19
31 27 25 23 21 17 16 15 13 12 11 11 10 10 10 10 9 8 7 6 6 6 6 6 5 5 4 3 4 4 5 5 6 6 7 8 10 13 14 16 17 18 19
35 30 28 24 22 20 16 15 14 13 13 13 13 13 12 11 10 9 8 6 6 6 6 6 6 4 4 4 5 5 5 6 6 6 7 8 11 13 15 17 18 18 19
37 32 28 25 22 20 18 17 15 14 14 15 15 15 14 13 11 10 9 7 7 7 7 7 7 6 5 5 6 7 6 6 6 7 7 9 11 14 16 18 19 20 19
40 34 30 26 23 20 18 16 16 15 14 15 17 17 15 14 13 11 10 9 9 9 9 9 8 7 6 6 5 6 6 7 7 8 8 9 12 15 17 19 19 21 20
40 36 31 28 26 22 20 17 15 15 15 15 17 18 17 16 15 13 11 10 10 10 10 10 9 8 8 7 6 6 7 7 8 8 9 9 12 15 18 18 20 21 21
41 38 35 32 28 25 23 20 17 16 16 17 17 18 18 17 16 15 13 12 11 11 10 10 9 9 8 8 7 7 7 8 9 9 10 11 13 15 18 19 21 22 22
39 38 36 34 30 26 25 21 19 18 17 19 18 19 19 19 18 16 15 13 12 11 11 10 10 9 8 8 9 9 9 10 11 12 14 15 17 18 20 21 22 23 23
42 43 40 35 30 28 26 23 20 19 19 20 19 20 21 21 19 18 16 15 13 12 12 12 11 10 9 10 10 10 11 12 13 13 15 17 19 21 23 24 24 25 25
45 48 44 34 32 29 26 23 22 20 20 20 21 21 22 22 21 19 17 16 15 14 13 13 13 12 11 11 12 12 13 14 15 16 17 20 21 22 23 26 26 26 26
43 40 45 37 32 29 25 24 22 21 20 19 20 22 22 22 21 20 19 17 16 16 15 15 15 14 14 14 14 15 15 16 17 19 20 22 23 24 25 26 27 28 29
34 40 40 41 37 32 26 22 22 21 22 21 21 22 23 24 23 22 21 19 18 18 18 17 17 17 16 16 16 17 17 18 18 20 22 24 25 27 27 28 29 29 30
38 24 37 36 33 31 28 24 22 21 22 22 23 24 25 25 25 24 23 22 21 21 20 20 19 19 18 19 19 19 20 21 21 22 24 26 27 29 30 30 31 30 30
40 34 23 32 30 23 27 24 22 23 22 23 23 25 26 28 27 27 26 25 25 23 22 21 21 20 21 21 21 21 22 23 24 25 27 27 29 31 32 32 33 33 30
42 40 30 25 27 30 21 22 23 23 24 23 24 26 29 30 29 28 28 28 27 26 25 24 24 23 23 24 23 22 23 24 25 27 30 30 31 33 34 35 34 35 34
37 41 36 33 24 25 24 29 26 26 26 26 27 28 30 31 31 30 29 30 30 30 28 28 27 28 27 27 26 25 26 27 29 29 31 32 33 35 36 35 34 33 32
37 35 41 38 32 30 29 30 29 31 31 31 31 30 32 33 31 32 31 31 31 31 30 30 31 31 30 30 29 30 31 31 33 33 34 35 35 36 37 37 37 34 33
43 37 36 39 38 34 36 36 36 36 33 34 35 33 33 33 31 33 35 35 34 33 33 33 33 34 33 34 32 32 34 35 36 38 38 41 40 40 39 39 39 36 36
40 41 43 45 42 36 41 35 36 38 39 39 38 37 36 35 36 35 33 34 36 35 36 37 37 37 37 37 39 37 35 37 40 42 42 40 43 43 41 40 39 38 38
42 40 42 38 40 42 42 40 44 45 45 38 39 42 41 39 38 38 40 38 36 35 35 34 34 43 46 44 46 47 45 44 47 45 44 43 40 42 42 41 39 38 38
44 44 41 39 36 42 44 47 44 45 45 44 48 46 40 38 40 41 41 40 41 39 37 37 39 40 43 45 50 50 53 53 51 48 45 45 46 44 42 39 39 38 38
36 44 48 47 47 44 42 38 46 49 49 44 45 47 49 44 39 43 43 41 41 41 40 43 46 44 46 47 48 46 47 50 52 54 52 47 46 45 45 39 38 37 39
35 34 41 48 49 50 46 42 40 46 43 43 47 44 39 40 43 43 46 44 46 45 42 44 47 49 52 52 52 50 48 49 48 49 49 45 42 42 40 38 37 40 39

GFSSE_500_spd_075.txt.gz
Wind_Speed
27 24 21 18 16 14 12 10 10 9 8 7 6 7 7 6 6 6 6 6 6 6 6 6 7 6 6 5 4 4 3 2 2 3 5 6 8 9 11 13 14 16 18
28 26 23 19 16 15 13 12 11 10 9 9 7 7 7 7 7 6 6 6 6 7 7 8 7 7 7 6 6 4 4 3 2 3 4 5 6 9 11 13 15 17 18
30 27 25 21 18 17 15 13 12 11 10 9 8 8 7 7 7 6 6 6 7 7 8 8 9 8 7 7 6 6 4 3 3 4 5 5 7 9 12 13 15 17 19
33 30 27 24 21 19 16 15 13 12 12 11 10 9 8 8 8 7 6 7 8 8 9 9 9 9 8 7 6 5 4 4 5 5 5 6 7 9 11 13 15 17 19
33 31 29 26 23 20 18 17 15 14 13 12 11 10 9 9 9 8 7 7 8 8 8 9 9 9 9 8 6 5 4 5 6 6 6 6 7 10 11 13 15 17 18
36 34 31 28 26 24 20 18 17 16 15 14 13 12 11 11 10 10 9 8 8 8 9 9 9 8 8 9 8 7 6 6 6 6 7 7 8 9 12 14 17 18 19
42 38 34 32 28 26 24 19 17 17 16 15 15 14 13 13 12 12 10 9 9 9 9 9 10 10 9 10 9 8 7 7 7 7 7 8 9 11 13 17 18 18 19
41 41 36 33 30 27 25 23 20 17 17 16 17 16 15 15 14 14 13 12 11 10 10 10 10 10 10 10 9 7 8 7 7 8 9 9 10 13 15 17 18 18 20
46 43 38 36 33 29 26 24 21 19 18 17 17 16 16 16 16 15 14 13 12 11 11 11 11 11 10 9 8 8 8 9 9 9 10 10 12 15 16 19 21 20 21
48 47 42 37 33 30 27 24 22 20 18 19 17 16 18 18 18 16 16 15 13 13 12 12 11 11 11 10 9 9 8 8 9 10 11 12 14 17 18 21 22 22 23
54 52 48 39 35 32 29 26 23 21 18 19 18 18 18 20 20 18 17 16 15 13 13 12 12 12 12 11 10 9 9 9 10 11 12 13 15 17 19 21 23 23 24
58 53 47 41 37 33 30 28 25 23 21 20 19 20 20 21 20 20 18 18 16 15 14 13 12 12 12 11 11 11 11 11 12 13 14 14 17 18 20 22 25 24 25
55 56 48 42 39 36 32 29 25 23 21 22 22 21 21 21 21 21 20 19 18 17 15 14 14 13 13 13 13 12 13 14 14 14 15 17 19 20 22 24 26 27 27
40 45 49 48 44 41 33 30 25 23 22 22 22 22 21 22 23 22 22 21 19 18 17 17 16 15 15 15 15 15 15 16 17 17 18 19 20 22 24 25 26 28 29
35 41 43 47 47 44 37 30 25 22 21 21 22 23 23 23 23 23 23 21 20 21 20 19 19 18 18 18 17 18 19 19 19 20 20 21 22 24 25 26 28 30 31
43 37 47 47 44 48 39 37 30 26 24 22 22 23 23 24 25 25 25 24 22 23 23 22 21 21 20 20 20 20 21 21 21 22 22 23 24 26 28 29 31 32 32
34 38 41 45 41 38 40 39 36 29 25 23 22 22 23 24 25 26 26 26 25 25 26 25 25 24 23 23 22 22 22 22 23 24 26 27 27 29 30 31 33 35 35
33 32 34 38 28 41 36 36 36 36 29 25 23 21 24 25 26 27 28 28 28 29 29 28 28 26 24 24 25 24 25 24 25 26 28 30 31 32 33 35 36 37 37
33 34 35 27 27 26 38 32 28 30 26 24 23 22 23 27 27 26 28 30 30 31 32 30 29 28 28 27 28 28 28 28 28 29 29 31 33 35 36 39 39 40 38
27 29 31 26 26 28 27 24 29 24 25 25 25 25 25 27 27 27 29 31 31 31 32 32 31 31 31 31 30 31 32 32 32 33 31 32 36 37 40 42 42 43 42
31 29 30 27 23 34 31 22 27 25 29 24 27 29 30 30 32 30 30 30 32 33 33 34 34 34 34 35 34 34 33 33 35 36 36 37 40 45 45 43 42 43 44
31 33 33 31 29 27 27 30 33 30 28 32 31 32 32 32 35 35 33 34 35 32 32 37 36 37 36 37 40 39 37 36 39 41 43 45 48 47 46 46 48 46 44
30 33 34 33 31 31 28 25 31 36 37 35 34 35 37 38 39 39 39 39 38 36 38 39 38 36 36 35 34 36 39 39 44 45 45 44 47 48 46 48 48 45 44
32 32 31 33 33 34 33 29 29 35 37 37 44 45 46 45 44 43 40 42 44 43 43 43 40 39 39 38 38 41 44 46 44 44 44 44 45 45 46 47 45 42 42
33 33 35 35 39 39 35 32 32 32 38 39 39 35 37 38 44 48 47 47 43 43 43 43 43 43 40 42 43 45 46 49 50 53 52 47 46 46 45 42 41 40 39
39 37 34 34 35 39 41 39 40 40 41 39 44 38 37 36 38 39 43 43 39 39 42 43 43 43 44 46 46 47 50 51 54 56 53 48 48 47 46 44 42 41 40

GFSSE_500_spd_078.txt.gz
Wind_Speed
30 28 25 21 18 16 14 12 11 10 9 8 7 6 6 7 6 6 5 5 5 6 6 6 7 7 7 7 7 5 4 2 1 3 4 5 7 8 10 11 13 15 17
32 30 27 23 20 18 15 14 13 11 10 10 8 7 7 7 7 6 6 6 6 6 6 7 8 9 8 8 7 6 5 4 2 3 4 5 7 8 10 12 13 15 18
33 30 28 25 22 20 18 16 14 13 11 11 9 9 9 8 7 7 6 7 6 7 7 8 9 9 9 9 8 7 5 4 4 5 6 6 7 9 11 12 13 16 19
35 33 31 27 25 22 21 18 16 14 13 12 11 10 9 8 7 7 7 7 7 7 7 8 9 9 9 9 8 7 6 5 5 6 7 7 8 10 11 12 15 18 19
37 35 32 30 27 24 22 20 18 16 14 12 12 12 11 10 9 8 7 7 8 7 7 8 8 9 8 8 7 7 6 6 7 7 7 8 9 11 11 13 16 19 19
38 37 35 32 29 26 24 22 20 18 16 14 13 13 13 11 10 9 8 8 8 8 8 8 8 8 8 8 8 8 7 7 7 7 7 8 10 10 12 15 18 19 18
41 39 36 35 32 29 26 23 22 20 18 17 16 15 15 13 12 11 10 9 9 9 9 8 9 9 9 9 9 8 7 7 7 7 8 8 9 11 13 15 18 19 18
45 42 40 37 34 32 29 27 24 22 20 19 18 17 17 17 15 13 12 11 10 10 10 10 10 10 9 10 9 9 8 7 7 7 8 8 10 12 14 16 18 19 19
48 45 41 39 37 34 31 30 28 25 22 21 20 19 19 19 18 16 14 12 12 12 11 11 10 10 10 9 9 8 8 8 7 7 8 8 9 12 15 16 19 20 20
54 48 44 44 42 38 35 33 30 29 26 24 21 20 19 19 19 17 16 15 14 13 12 11 10 10 10 9 9 8 9 8 8 8 8 9 10 12 14 17 19 20 20
49 46 46 46 45 41 38 35 31 30 27 25 23 21 19 18 19 18 18 17 16 15 14 13 12 11 11 10 10 9 9 9 9 9 10 11 12 14 15 17 19 20 21
43 47 47 48 47 42 39 36 32 30 27 25 23 22 21 19 19 20 19 18 18 17 15 14 13 13 12 11 11 12 11 11 12 13 13 13 14 16 17 19 20 22 23
51 47 50 53 52 48 42 37 34 30 27 25 24 22 22 20 21 21 21 20 19 19 18 16 15 14 14 13 13 14 14 14 15 15 16 16 16 17 19 20 22 24 25
43 46 56 60 58 54 46 40 37 33 31 29 27 25 25 23 22 23 23 22 21 21 20 18 17 16 16 15 15 16 17 18 18 18 18 18 18 19 21 23 24 26 27
53 55 58 61 63 57 49 46 39 34 32 31 29 27 27 25 24 25 25 24 23 22 21 21 20 19 18 18 17 18 19 20 21 21 21 20 19 20 22 24 26 28 29
43 47 43 49 55 54 46 43 42 38 33 32 31 28 28 27 26 26 26 25 25 24 24 24 22 22 21 21 20 21 22 23 23 24 23 23 23 23 25 26 26 29 31
33 48 46 37 43 41 40 42 40 42 38 35 34 31 28 27 26 26 26 26 26 26 26 26 25 25 24 23 23 23 24 25 25 25 25 26 26 27 27 28 28 30 33
34 26 47 36 37 41 40 37 38 34 39 39 38 32 30 29 28 27 26 27 26 27 29 28 28 28 27 27 26 25 26 27 27 27 28 29 30 31 31 32 32 32 37
41 33 36 27 32 32 43 35 36 34 34 36 37 32 31 29 27 25 26 28 28 29 30 29 30 31 30 29 29 28 29 30 29 30 30 31 32 33 33 34 35 39 39
17 25 30 17 31 31 32 43 36 37 37 33 34 31 30 30 28 26 25 27 29 30 31 32 32 32 33 32 31 32 33 32 33 35 35 34 34 35 37 37 41 46 46
20 22 20 21 17 20 30 34 45 38 31 30 28 27 30 27 28 27 28 28 29 30 32 32 33 33 35 35 36 36 36 37 37 37 37 37 37 40 45 48 46 46 45
32 25 24 22 25 19 22 29 33 42 36 37 33 35 33 33 33 33 31 32 33 34 35 36 36 37 38 39 40 39 36 37 40 41 44 43 46 45 45 48 48 44 43
30 28 22 26 25 21 17 21 26 29 32 28 31 36 36 36 37 37 36 37 39 38 38 40 39 40 40 40 40 40 40 38 35 34 36 38 41 42 44 46 47 48 45
32 28 25 26 24 25 24 20 31 33 31 33 36 36 38 35 36 37 39 41 41 43 41 40 39 40 41 42 43 45 46 45 44 40 41 43 42 45 49 49 46 44 43
36 35 34 31 30 28 28 29 28 31 31 30 30 33 32 34 34 39 38 38 39 38 35 35 42 42 41 43 44 46 49 50 48 49 47 45 47 49 51 48 43 43 41
40 40 40 36 34 33 32 31 32 36 34 32 32 33 32 30 35 32 26 30 37 42 35 36 34 34 37 36 40 42 45 50 51 54 54 56 55 51 50 47 46 44 41

GFSSE_500_spd_081.txt.gz
Wind_Speed
31 30 29 26 24 21 18 16 13 11 10 11 10 8 8 7 7 7 6 5 5 4 4 4 5 6 7 6 6 5 3 2 1 1 2 4 6 8 10 12 14 14 17
35 33 31 29 26 23 20 17 15 12 11 12 11 9 8 8 8 8 7 6 5 5 5 5 5 5 7 6 6 6 4 3 3 3 4 5 6 8 10 12 13 15 18
36 35 32 31 29 25 22 19 16 14 12 13 13 11 10 9 8 8 7 6 5 5 5 5 6 6 6 6 6 6 5 4 3 4 4 5 7 8 10 11 13 15 17
38 37 34 33 30 27 24 21 17 16 14 14 14 12 10 9 9 9 7 6 5 6 6 6 6 6 7 6 6 5 4 4 5 5 6 6 7 9 10 11 13 16 17
39 39 36 34 31 29 26 23 20 18 17 16 16 14 12 11 10 10 8 7 6 6 6 6 6 6 6 6 5 5 5 6 6 6 6 6 7 8 9 11 13 16 16
43 41 38 36 34 31 28 25 22 20 19 18 17 16 14 13 12 11 10 8 7 7 7 6 6 6 6 6 6 6 6 6 7 6 6 6 7 8 9 11 14 15 17
47 45 41 39 36 34 31 27 24 22 21 21 19 18 16 15 15 13 12 10 9 8 8 7 7 7 7 6 6 6 5 5 6 6 6 6 7 7 10 12 14 16 17
50 49 45 42 39 36 33 30 26 25 24 23 22 21 19 18 17 16 14 13 12 11 9 9 8 9 8 8 7 7 7 6 6 6 6 6 7 8 10 13 15 16 17
57 51 49 44 41 39 36 33 29 27 26 26 25 24 23 21 20 18 17 15 14 12 11 11 11 10 9 8 8 8 8 8 7 7 7 7 8 10 12 13 15 16 17
58 55 51 48 44 40 37 35 33 31 30 28 28 26 25 24 22 21 19 17 16 14 13 13 12 11 9 9 8 8 9 8 8 8 8 9 10 11 13 14 15 17 18
57 56 52 49 46 43 41 38 37 35 33 31 29 27 26 25 23 22 21 19 17 16 15 14 13 12 11 10 9 9 9 9 9 10 11 12 13 14 14 15 16 17 19
52 56 55 53 48 45 42 40 38 37 35 33 31 29 27 26 24 23 21 20 18 18 16 15 14 13 13 12 11 11 11 11 11 12 13 14 15 16 16 17 18 19 20
38 57 52 52 49 47 46 44 41 40 38 35 33 31 29 28 25 24 23 22 21 20 19 18 17 16 16 15 14 13 13 14 14 15 16 16 17 17 17 18 20 20 22
37 52 60 47 48 48 50 48 46 42 39 36 34 32 30 28 27 26 25 24 23 22 22 20 20 19 19 18 17 16 16 16 17 18 18 19 19 19 20 20 21 23 23
50 52 45 44 49 50 52 52 48 45 42 39 36 34 31 30 29 28 26 26 26 25 24 23 22 21 21 20 20 19 19 20 20 20 21 20 21 21 22 22 24 24 25
39 46 45 50 58 56 48 53 51 50 48 42 39 37 34 33 34 31 29 29 28 27 27 26 25 25 24 23 22 22 22 23 23 23 23 23 23 23 23 25 25 27 27
42 50 45 52 56 51 55 47 57 55 50 45 43 39 38 37 34 32 31 30 29 29 29 28 27 28 27 26 26 25 25 25 25 26 26 26 26 27 27 28 29 28 28
53 44 30 54 57 60 60 57 40 62 52 47 46 45 41 39 37 34 33 33 31 30 30 30 30 30 30 29 28 28 28 28 28 29 29 28 29 31 30 31 33 31 30
44 39 28 37 37 46 46 57 46 44 48 50 51 46 44 42 39 38 37 35 33 33 32 30 31 30 30 31 31 31 31 32 32 33 32 32 33 33 33 34 35 35 36
35 25 32 43 39 33 43 49 44 37 42 46 48 44 41 44 40 40 38 37 35 35 32 31 31 30 31 33 34 33 34 35 36 36 36 36 37 36 37 37 38 39 42
29 43 30 34 33 27 36 39 42 37 39 38 37 36 32 32 43 39 36 36 35 34 34 32 32 32 34 36 36 36 36 37 39 39 40 40 42 40 39 42 40 41 39
31 22 21 32 30 30 40 29 35 49 45 40 40 42 39 35 35 34 35 34 34 36 35 32 34 34 35 35 36 35 36 38 41 42 42 43 43 44 39 38 39 40 41
36 33 27 26 29 35 34 31 23 37 42 51 48 41 39 36 31 39 36 37 35 36 34 37 38 38 39 38 38 36 36 37 39 42 44 43 42 40 39 42 43 46 47
26 24 20 28 21 22 20 25 25 23 31 29 41 42 40 41 37 40 40 41 39 38 37 30 36 35 30 33 39 38 40 42 43 41 44 45 45 44 45 45 46 48 53
32 24 22 19 19 20 18 27 21 26 32 29 37 39 35 41 39 44 39 33 32 38 35 35 43 42 39 37 38 37 35 38 40 42 43 46 47 49 50 49 50 50 48
26 26 27 25 28 28 26 25 26 25 23 23 29 31 34 31 34 33 31 32 29 39 42 39 46 42 36 34 32 31 33 39 42 43 45 44 43 44 45 47 47 45 45

GFSSE_500_spd_084.txt.gz
Wind_Speed
35 33 30 28 27 26 24 22 19 15 13 12 12 12 10 10 10 9 8 6 5 4 4 3 3 3 4 5 5 4 3 2 3 2 2 3 4 7 8 9 11 13 15
39 36 34 31 28 28 26 24 21 17 15 14 14 13 11 11 11 10 9 7 6 5 4 4 4 4 5 5 5 5 3 3 3 3 4 4 5 6 8 9 10 13 15
41 38 35 32 30 30 28 27 23 20 17 15 15 14 13 12 12 11 9 7 6 5 5 5 4 5 5 5 5 5 4 3 4 5 5 5 5 6 8 9 10 13 15
44 40 37 34 33 32 31 29 26 22 19 17 16 16 15 14 13 12 10 8 7 6 6 5 5 5 5 5 4 4 3 4 5 5 5 5 5 6 7 9 10 13 15
46 42 38 37 35 34 33 30 27 24 20 19 18 18 16 16 14 13 12 10 8 7 7 6 6 5 5 5 5 4 4 5 5 5 5 5 5 6 7 8 11 13 15
49 45 42 39 37 36 35 32 29 26 23 21 20 20 19 18 16 15 14 12 10 9 8 8 7 7 6 6 6 6 6 6 6 5 5 5 5 6 7 9 12 14 15
52 48 44 42 39 38 37 35 31 28 25 23 22 22 22 21 19 18 16 14 12 11 10 9 9 8 8 8 7 7 7 6 6 6 6 6 6 7 9 11 13 15 16
53 52 49 46 43 42 40 37 34 31 27 25 24 24 25 23 22 21 19 17 14 13 12 11 10 10 10 10 9 8 7 8 8 8 7 7 7 8 10 12 14 15 16
57 57 54 51 47 45 43 40 37 34 31 28 27 27 26 25 25 23 21 19 17 15 14 13 12 12 12 11 9 9 9 9 9 9 8 8 9 10 11 13 14 15 16
60 63 58 55 52 48 45 42 39 37 34 31 29 29 29 28 27 26 24 21 20 18 17 15 13 13 13 11 10 10 10 10 10 9 9 10 10 12 13 13 14 15 16
48 63 59 58 57 51 48 46 43 39 37 34 32 31 31 31 29 28 26 24 22 20 19 17 16 15 14 13 12 11 11 11 11 11 11 12 13 14 14 15 16 17 17
37 42 61 62 61 56 51 48 46 43 41 38 35 34 33 32 32 30 28 26 24 22 20 19 19 17 16 15 14 13 13 13 13 13 14 14 15 16 16 17 18 19 19
35 46 48 59 62 56 53 50 46 44 42 40 37 36 34 34 33 32 30 28 26 23 22 21 21 19 19 17 17 16 16 16 16 16 17 17 18 18 19 19 19 21 22
44 34 44 52 58 53 53 52 49 46 43 41 39 38 37 36 35 33 30 29 27 25 24 23 23 22 21 20 20 19 18 18 19 19 20 20 20 21 21 21 22 23 23
76 45 40 48 48 57 50 52 51 48 45 43 42 40 38 37 36 35 33 31 28 28 28 27 26 25 24 24 23 22 22 21 22 22 22 23 23 23 23 23 24 24 25
64 51 34 46 42 48 56 52 52 50 48 47 46 44 42 41 39 38 34 32 31 31 31 30 30 29 28 27 26 25 25 24 24 25 25 25 25 26 26 26 27 27 29
47 46 43 47 48 51 51 52 52 52 52 51 49 47 47 45 43 39 35 37 36 34 34 33 33 31 31 30 29 29 28 28 27 28 27 27 27 29 29 29 29 30 30
23 35 41 34 48 52 51 53 53 55 55 53 50 49 48 48 45 39 42 39 37 37 36 36 35 35 34 33 32 32 32 31 30 31 31 31 31 32 31 32 32 32 32
28 27 38 39 43 43 50 56 49 57 58 57 55 52 51 50 45 45 45 41 39 39 38 37 37 37 35 34 34 34 35 36 34 34 33 34 36 35 35 35 36 36 36
34 26 34 28 44 28 50 52 56 50 50 56 57 58 57 53 50 45 45 42 40 39 39 38 39 39 36 35 35 35 37 38 36 35 36 37 39 37 38 39 41 39 39
43 37 33 22 35 36 44 55 54 56 54 53 61 57 64 54 43 43 40 39 40 41 40 40 42 40 39 37 36 37 39 39 37 37 38 39 40 40 41 42 41 41 43
39 31 29 26 26 28 35 40 53 50 51 45 45 48 55 52 47 38 34 42 47 44 43 41 41 41 41 38 38 38 41 39 38 37 38 40 42 41 40 42 41 40 41
39 23 23 18 29 32 41 33 42 44 52 49 39 40 45 43 40 34 32 32 39 42 46 46 43 41 41 42 43 42 41 41 37 38 40 42 43 43 42 43 44 43 45
46 42 42 36 31 31 36 28 41 48 48 46 50 44 44 41 43 40 41 38 35 47 42 41 38 35 32 30 29 33 37 42 43 42 41 44 46 45 45 44 48 47 47
30 34 34 39 35 28 31 33 34 38 43 28 48 55 54 49 47 45 46 42 45 39 40 38 40 41 36 38 37 34 35 37 38 39 38 37 44 44 44 41 41 45 46
36 26 23 26 26 22 29 25 20 20 25 25 26 23 45 57 54 48 51 48 45 38 41 40 34 36 37 42 46 47 40 38 36 36 36 38 38 38 39 40 43 44 47

GFSSE_500_spd_087.txt.gz
Wind_Speed
41 37 34 32 30 27 25 24 23 22 18 14 14 13 14 13 13 11 9 8 7 5 3 3 3 3 3 4 4 5 4 3 4 4 3 2 3 5 7 8 10 11 14
44 40 37 34 31 29 27 26 25 24 21 17 16 15 16 14 14 12 11 9 8 6 5 4 4 4 4 4 5 4 4 4 4 4 4 4 5 5 7 8 9 11 15
47 44 40 36 33 31 29 28 27 26 24 20 18 17 18 16 15 13 12 10 8 7 6 5 5 5 6 6 5 5 5 4 4 4 5 5 5 6 6 8 9 12 15
46 43 42 39 35 33 31 30 29 28 27 24 20 19 20 18 17 15 13 11 10 9 7 6 6 6 6 6 5 5 4 4 4 5 5 6 5 6 7 8 10 13 14
49 45 44 42 39 36 33 32 31 30 28 25 23 22 21 21 19 17 15 14 13 11 9 8 7 7 7 7 6 5 5 5 5 6 6 6 6 6 7 8 10 12 14
51 49 45 44 42 39 36 35 34 32 30 27 25 24 24 23 21 19 18 17 15 12 10 9 8 8 8 8 7 7 6 6 6 6 6 6 7 6 7 8 11 13 14
52 52 49 46 45 42 40 38 36 35 32 30 27 26 26 24 22 21 20 18 17 15 12 11 10 9 9 8 9 8 8 7 7 7 7 7 7 7 8 9 12 13 14
49 53 53 51 48 45 43 41 39 37 34 32 29 28 29 24 23 22 21 20 19 17 15 13 12 11 10 10 10 10 10 8 8 8 8 8 8 8 9 11 12 13 14
49 61 57 55 52 48 47 44 43 41 37 34 32 30 31 25 25 24 23 22 21 19 17 16 14 13 12 11 12 12 11 10 10 10 10 10 9 10 11 12 13 14 14
50 40 61 58 56 52 50 48 45 43 40 37 34 33 33 27 27 26 25 25 23 22 20 18 16 15 14 13 13 13 13 12 11 11 11 11 11 11 12 13 14 15 16
64 43 60 58 58 55 52 48 49 46 42 39 37 36 34 32 30 29 28 27 25 24 23 21 20 18 16 16 15 14 14 14 13 12 12 12 13 14 14 15 16 17 18
59 49 41 58 62 57 55 53 49 48 45 42 40 39 37 35 33 31 31 30 29 28 26 24 22 21 19 18 17 16 16 15 15 14 14 14 14 16 17 18 18 19 20
66 51 52 44 54 44 63 58 52 51 49 46 43 42 39 37 34 34 32 32 31 29 28 26 25 23 21 20 19 18 18 18 17 17 17 17 17 18 19 20 20 20 22
67 60 60 33 47 51 63 62 57 51 51 48 45 43 40 38 36 34 35 34 32 31 30 28 26 25 24 23 22 21 20 20 20 20 20 20 21 21 22 22 22 22 24
74 73 68 39 48 29 39 61 63 56 49 50 47 44 42 40 38 37 37 35 34 33 31 31 28 27 26 26 25 23 23 23 23 23 23 23 24 25 24 24 24 25 26
72 74 77 54 46 33 39 56 68 57 54 50 48 46 44 43 41 40 39 38 36 36 33 32 28 32 29 28 27 27 27 26 27 27 26 26 27 27 27 26 27 28 30
54 68 54 56 35 50 27 49 60 60 55 52 50 48 46 45 44 44 42 41 41 38 35 31 35 35 32 31 30 30 30 30 30 30 29 30 30 29 29 29 29 30 30
24 44 76 76 69 52 45 46 43 62 59 55 54 52 49 49 48 47 46 45 43 41 35 39 42 38 35 33 33 33 33 34 33 33 33 33 33 32 32 32 33 33 33
35 44 51 62 69 55 48 50 50 56 62 61 56 52 51 52 51 50 50 48 46 43 39 43 42 40 38 36 36 37 36 37 36 36 37 36 36 36 36 36 35 36 36
39 39 38 31 37 40 45 48 45 55 62 62 60 55 53 53 53 53 52 52 49 46 46 43 45 42 39 39 38 39 38 39 39 38 38 38 39 39 40 40 38 38 38
36 36 22 21 22 40 38 49 42 49 55 57 56 57 58 56 57 55 60 58 53 51 49 43 40 41 40 41 40 40 42 41 41 40 40 39 40 40 42 42 40 39 39
42 28 31 32 21 18 32 30 28 36 50 58 56 57 62 53 55 61 57 54 55 52 39 41 41 44 43 42 43 43 42 42 42 44 41 42 43 42 44 43 41 39 40
35 32 34 36 26 25 18 27 39 41 33 45 60 59 53 53 46 56 59 56 54 45 38 37 40 45 43 44 42 42 42 42 46 45 44 44 46 45 45 43 42 42 43
50 41 42 34 28 24 24 30 38 45 44 40 44 45 51 50 47 39 56 56 54 34 27 33 40 38 41 42 43 40 37 36 42 44 44 45 47 48 47 43 40 40 43
37 47 46 37 31 30 36 29 39 39 47 58 45 47 47 55 49 45 44 55 46 42 35 35 43 40 40 49 39 42 43 42 39 38 36 37 39 42 41 42 42 43 42
24 37 48 38 38 36 32 26 30 35 39 59 59 57 55 42 48 53 55 52 45 46 39 49 48 50 50 40 40 43 42 41 42 43 37 38 38 40 41 41 37 38 40

GFSSE_500_spd_090.txt.gz
Wind_Speed
40 39 36 35 31 29 27 25 23 20 19 18 17 14 13 12 13 13 12 10 7 5 5 5 5 4 5 4 4 3 2 3 4 5 4 3 4 5 6 8 9 11 14
42 42 40 38 36 31 30 27 25 23 21 20 20 17 15 14 15 14 14 11 9 7 7 6 6 5 6 5 5 5 4 3 4 4 4 4 5 5 6 7 8 11 13
45 44 41 40 39 35 32 31 28 26 24 23 22 20 17 16 16 15 15 13 11 9 8 7 6 6 6 6 6 5 5 4 3 4 4 5 6 5 6 7 8 11 13
42 44 42 43 40 38 35 32 30 29 27 26 25 23 20 18 18 17 16 15 13 12 10 8 7 6 6 6 6 5 4 4 4 4 5 5 6 6 6 6 8 11 12
42 48 44 44 43 40 37 35 33 31 30 29 28 26 22 20 20 19 18 16 15 13 12 10 8 8 7 6 6 6 5 5 5 5 5 5 6 6 6 7 9 11 12
53 44 46 46 45 42 40 38 36 34 33 32 31 29 26 22 21 21 20 18 17 15 14 12 10 9 8 8 7 7 7 7 6 6 6 6 6 7 7 8 9 11 12
48 47 46 49 50 45 43 41 38 37 35 34 33 32 29 25 23 22 22 20 19 17 16 14 13 12 10 9 9 9 8 8 8 7 7 7 7 7 7 8 10 11 12
58 54 49 50 54 49 47 43 42 40 38 37 36 34 33 29 25 24 24 22 21 19 18 16 14 13 13 11 10 9 9 9 9 9 8 8 8 8 8 9 10 11 12
53 56 54 49 53 53 49 47 44 43 41 39 38 36 36 31 25 25 25 24 23 22 20 18 17 15 14 14 13 11 10 10 10 10 10 9 9 9 9 10 11 12 13
52 58 50 40 58 56 54 49 45 44 43 41 40 39 38 34 27 26 26 25 25 24 22 21 19 18 16 16 15 14 12 11 11 11 11 11 11 10 11 12 13 14 14
51 58 59 38 52 53 56 53 49 47 45 44 43 42 42 36 32 28 28 27 27 26 24 23 22 20 19 18 17 16 15 13 12 13 12 12 13 13 14 15 15 16 17
51 64 69 54 29 50 57 54 53 51 49 47 45 45 45 40 36 31 30 30 29 27 27 26 24 22 21 20 19 18 17 15 14 14 14 15 15 15 17 17 18 18 19
47 68 73 59 53 45 53 61 57 55 53 50 48 48 47 43 38 34 34 33 32 30 29 28 27 25 24 22 21 19 19 18 17 17 16 17 17 18 19 20 20 21 21
53 65 78 71 44 25 51 50 59 54 57 53 52 50 50 45 41 39 38 36 34 32 31 30 29 27 26 24 23 22 21 21 20 19 18 19 19 21 22 23 23 23 23
47 63 70 73 58 48 46 37 46 53 63 57 53 53 52 47 44 43 40 37 35 33 33 32 31 29 28 26 25 24 24 24 23 22 22 22 22 24 25 25 26 26 25
54 60 78 78 66 57 48 32 37 44 60 57 54 54 52 48 48 44 41 39 37 36 34 34 33 31 29 29 26 31 29 28 26 25 25 25 26 27 27 28 28 29 29
58 53 67 77 72 59 47 38 32 40 40 55 56 51 53 51 49 46 44 42 40 40 37 37 36 34 32 31 28 36 32 31 29 28 28 29 31 30 30 31 31 32 31
55 52 56 58 72 71 58 41 24 29 38 37 49 56 53 54 52 49 46 45 44 43 40 40 40 39 36 32 35 39 35 34 33 31 32 32 34 34 33 34 33 35 35
55 45 36 36 59 73 70 61 52 36 25 49 38 45 58 54 53 51 49 48 47 45 44 44 43 42 40 34 38 40 38 37 36 35 35 36 36 36 36 37 37 37 38
55 51 33 25 32 46 70 72 41 37 35 42 51 36 37 55 53 54 52 52 51 49 49 48 45 44 42 46 43 40 38 40 40 39 39 39 39 39 40 39 39 41 40
56 59 48 29 28 30 38 55 48 53 41 39 60 52 41 35 53 58 57 56 54 54 53 47 50 47 46 47 41 38 40 40 43 41 40 42 41 42 42 42 43 42 41
42 50 38 30 31 20 18 34 49 35 40 35 38 58 51 39 51 57 59 56 57 56 51 53 53 47 47 51 37 41 40 42 44 41 43 42 42 44 45 45 46 44 43
46 50 42 33 28 18 18 23 30 29 35 33 36 43 36 62 59 59 54 55 53 57 57 47 53 47 51 53 41 41 44 44 45 44 43 41 46 46 44 47 45 44 43
47 54 39 28 24 24 25 21 29 28 44 43 32 38 33 45 56 57 48 48 55 54 55 53 43 46 49 43 37 37 39 34 36 37 34 37 38 39 42 45 47 45 45
44 45 53 34 24 26 30 24 24 35 38 42 43 49 35 30 52 37 39 42 40 33 46 47 47 39 38 40 40 36 40 46 47 40 39 40 40 40 35 39 43 40 40
38 43 49 37 36 38 41 25 27 32 39 39 49 48 48 43 38 49 59 58 50 44 47 49 49 44 49 41 40 38 39 45 43 42 40 38 43 42 43 41 42 41 40

GFSSE_500_spd_093.txt.gz
Wind_Speed
38 36 38 34 33 28 25 25 23 21 19 18 18 16 14 12 10 10 10 12 10 8 7 6 5 5 4 4 4 4 3 3 4 5 5 4 3 4 4 5 6 9 11
38 36 41 39 36 33 29 27 26 25 22 21 21 19 17 15 13 12 12 13 12 11 9 7 6 6 5 5 5 5 4 4 4 5 6 4 4 4 4 5 6 9 10
25 36 39 44 40 37 34 30 29 27 25 24 24 22 20 18 15 14 13 14 13 12 11 9 8 7 6 6 6 6 6 5 4 4 5 4 4 4 4 4 6 9 10
22 28 35 45 45 39 37 36 32 30 29 27 26 25 23 21 18 17 15 15 14 14 13 11 10 8 7 7 6 6 5 5 4 4 4 4 4 4 4 4 6 8 8
23 29 35 38 47 44 40 38 36 33 31 31 29 28 26 25 21 19 18 16 16 15 15 13 11 9 8 8 7 7 6 5 5 5 5 5 5 5 5 5 6 8 8
27 32 33 41 45 47 44 40 38 36 33 33 32 30 29 27 23 22 20 18 18 17 16 15 13 11 10 9 8 8 7 7 7 7 6 6 6 6 6 6 7 8 9
30 29 29 41 49 49 46 44 41 38 37 35 34 33 32 30 27 24 22 21 20 19 19 17 16 14 12 10 9 9 8 8 8 8 7 7 8 8 8 7 9 10 10
36 32 32 42 47 52 48 45 44 43 39 38 36 36 35 33 29 27 24 23 22 21 20 19 17 16 14 13 11 10 9 9 8 9 9 9 9 9 9 9 10 11 11
36 37 34 37 48 55 53 49 46 46 42 39 38 37 37 37 31 29 26 24 23 23 22 21 20 19 17 15 14 12 10 10 11 10 10 11 11 10 10 10 11 12 12
32 33 35 35 53 53 52 51 49 47 45 43 40 40 39 38 34 31 29 26 25 25 25 23 22 21 19 18 16 15 13 11 13 11 12 12 12 12 12 12 13 14 14
31 31 34 36 44 59 58 53 53 50 49 45 43 42 42 40 37 34 32 29 28 27 26 25 24 23 21 20 19 17 16 14 13 13 13 14 14 14 14 14 15 16 16
34 29 31 37 40 50 59 55 51 55 52 49 47 45 44 42 41 38 35 31 30 29 28 27 26 26 24 23 21 20 18 17 15 14 15 15 16 16 16 17 17 18 18
35 34 32 31 33 47 55 49 59 53 56 53 50 48 46 45 44 41 38 35 33 32 31 29 29 28 27 25 23 22 20 19 18 16 17 17 18 18 18 19 19 20 21
40 41 39 40 42 47 63 42 52 49 59 58 53 51 49 48 45 44 42 39 37 36 33 31 30 30 30 27 25 24 23 21 21 20 20 20 20 21 21 21 21 23 24
41 39 36 39 39 44 60 53 46 51 51 57 59 56 53 50 49 48 45 43 41 38 35 33 32 33 32 30 28 27 25 23 23 23 23 23 24 24 24 24 24 25 26
35 34 33 39 45 47 57 62 47 46 63 55 61 58 58 56 51 49 48 46 43 40 37 36 36 35 34 33 32 29 28 24 25 29 27 26 27 27 28 27 28 28 28
34 33 30 41 44 49 56 73 68 43 42 47 70 67 67 59 54 51 50 48 44 42 40 40 39 37 37 37 34 33 31 28 26 33 31 29 30 31 31 31 32 32 33
41 36 40 46 38 45 54 64 72 41 33 34 38 62 63 59 55 54 53 48 46 44 44 42 41 41 39 39 39 36 36 33 31 37 34 32 32 34 34 35 36 35 36
52 49 46 49 41 46 53 61 74 74 54 29 31 33 61 71 59 54 51 50 50 48 45 45 46 44 43 43 43 40 38 34 36 38 36 34 33 36 37 38 38 38 40
53 53 55 50 44 50 44 43 66 82 51 31 27 33 34 58 58 56 55 55 53 50 50 49 49 48 48 47 47 44 40 41 35 39 39 35 35 36 39 41 41 41 42
48 47 49 54 45 44 33 25 41 83 55 39 28 27 29 40 60 63 57 56 56 55 53 52 52 51 51 51 49 44 44 42 46 42 41 38 36 36 39 40 40 41 42
43 47 49 51 45 41 27 27 26 37 79 70 46 34 29 37 42 53 58 60 59 57 56 56 56 55 55 51 46 54 50 43 43 45 43 39 41 41 42 41 42 42 42
43 44 47 44 52 35 31 21 22 21 44 63 49 43 30 30 46 38 41 51 62 62 62 61 59 54 52 53 63 56 46 44 45 51 48 44 44 45 41 40 41 42 43
42 43 44 41 58 42 32 22 24 27 24 44 50 40 34 33 42 48 41 37 50 59 62 64 66 51 52 42 46 43 44 47 55 35 38 38 37 36 34 34 35 36 37
42 39 39 39 56 32 40 28 20 24 29 32 39 38 40 33 31 42 44 41 34 41 40 38 54 50 35 36 36 37 41 36 34 33 36 41 42 44 39 39 40 42 42
30 34 44 40 47 38 27 19 28 23 24 39 46 39 34 40 37 37 41 52 58 49 45 35 33 35 40 43 38 43 46 42 45 41 40 43 37 47 50 42 45 44 44

GFSSE_500_spd_096.txt.gz
Wind_Speed
27 34 37 36 33 30 27 25 21 21 20 18 17 15 13 12 11 11 10 10 10 10 8 6 6 6 5 4 4 4 4 5 6 8 8 6 5 5 5 4 6 8 8
20 18 33 38 39 34 33 29 24 23 22 22 20 19 17 15 14 13 12 11 12 12 10 8 8 7 6 5 5 5 6 5 6 7 8 8 6 6 5 5 5 7 8
24 24 20 35 39 40 35 34 30 25 25 24 24 22 20 19 16 15 14 13 13 13 13 11 9 8 7 6 6 6 6 6 6 6 7 7 6 6 6 5 6 8 8
24 25 22 27 38 41 40 37 35 30 27 27 26 25 23 22 20 17 16 14 15 15 14 13 11 10 8 7 7 6 6 6 6 6 6 6 6 6 6 6 7 9 9
28 27 25 25 32 37 42 43 40 34 32 29 29 28 27 25 23 19 18 17 17 17 16 14 13 11 9 9 8 7 7 6 6 6 7 7 7 7 7 7 8 9 10
31 29 28 25 30 34 42 43 45 41 36 34 32 31 30 29 26 22 21 20 19 18 18 17 15 13 11 10 9 9 8 7 7 7 8 8 8 8 9 9 10 10 11
34 32 30 30 26 27 36 41 47 46 41 37 35 33 32 31 30 25 24 23 22 20 19 19 17 15 13 12 11 11 10 8 8 8 8 8 9 9 10 11 11 11 11
36 36 31 32 32 29 34 39 46 49 46 41 38 36 34 33 33 30 25 25 24 23 21 21 20 17 15 14 13 12 12 10 9 8 9 10 11 10 11 11 12 13 12
39 37 32 31 31 29 32 36 44 49 50 46 41 39 37 36 36 33 27 28 27 25 23 23 22 20 18 16 15 14 14 12 12 10 10 11 12 12 12 13 13 14 13
37 34 36 35 31 29 31 34 44 50 50 50 46 42 40 38 37 35 30 29 29 27 25 24 24 23 20 19 18 17 16 16 14 13 13 12 13 13 14 15 15 16 16
35 38 35 35 34 33 30 34 39 49 54 52 49 45 43 43 40 34 33 32 31 29 28 27 26 25 23 21 20 20 18 19 16 16 15 14 14 15 15 16 17 17 18
39 40 36 32 31 32 33 32 35 44 55 56 52 46 45 46 43 38 37 35 33 32 31 30 28 27 26 24 23 22 21 21 20 17 17 16 15 17 17 18 19 20 20
44 39 36 33 30 35 32 32 37 46 55 58 54 50 48 48 46 42 40 38 35 35 33 32 31 30 28 27 25 25 24 24 24 21 20 18 18 18 19 20 21 22 22
45 41 39 37 38 42 38 38 33 40 56 59 55 54 52 50 48 47 43 41 39 38 37 35 34 32 31 30 29 27 27 27 27 25 22 21 21 20 21 22 24 25 25
46 47 44 42 42 39 35 43 37 35 45 56 59 64 59 53 49 51 48 45 43 43 40 39 36 34 34 32 31 31 30 29 30 28 25 24 23 24 24 24 26 27 28
46 46 48 44 44 40 39 44 43 35 47 52 63 48 54 56 50 45 42 51 47 47 45 41 39 37 37 35 35 35 34 33 33 31 28 27 26 28 28 27 28 29 30
52 47 48 53 49 45 41 46 46 40 41 54 58 46 53 61 60 61 58 53 52 52 50 44 41 40 39 37 38 38 36 36 35 34 32 29 28 31 32 31 31 30 32
54 48 46 45 51 44 43 42 43 43 40 55 54 59 48 63 64 66 56 45 48 50 50 46 45 44 41 40 40 40 39 39 40 37 37 32 32 33 35 35 34 33 33
53 51 48 45 50 40 44 43 47 45 42 50 68 65 54 53 60 64 62 69 57 61 51 46 48 45 44 43 43 43 42 43 43 41 40 35 32 36 37 37 37 36 36
57 54 52 51 46 47 46 47 46 47 43 42 55 65 43 38 27 69 63 66 64 59 56 54 50 46 47 46 45 46 45 45 46 43 41 38 38 37 38 39 38 38 38
58 55 53 56 52 52 48 48 45 44 45 36 38 52 35 35 37 39 40 69 67 62 59 55 52 51 50 49 49 49 48 48 46 43 48 46 47 33 41 41 38 38 39
59 55 53 57 53 51 52 53 45 41 38 37 32 64 64 51 27 25 36 45 67 60 59 60 56 53 54 55 55 55 52 48 46 47 52 60 56 42 43 44 39 42 45
50 51 49 58 55 53 47 49 38 39 27 20 29 37 61 56 34 26 27 32 58 60 63 61 60 59 58 59 58 59 58 54 43 52 58 58 51 43 48 53 46 45 44
53 52 46 45 54 44 45 49 42 29 20 26 30 31 44 58 54 37 35 38 36 54 64 64 64 63 61 63 68 59 49 55 55 56 53 48 43 43 37 36 37 34 35
45 49 41 47 47 48 42 46 43 36 29 33 34 42 36 38 55 55 41 37 39 36 39 44 48 51 62 67 45 37 35 31 30 33 29 35 37 37 35 35 42 41 40
36 37 40 44 44 44 40 42 45 43 32 30 34 42 39 39 41 47 42 41 48 46 42 38 32 33 32 32 42 35 43 40 39 39 39 40 36 37 43 39 39 41 43

GFSSE_500_spd_099.txt.gz
Wind_Speed
17 19 29 36 36 33 29 27 25 22 20 18 16 15 13 12 10 9 10 9 10 9 11 9 7 5 6 5 5 5 5 5 7 9 10 8 6 6 6 6 8 10 11
22 20 19 23 37 38 36 30 28 25 24 21 20 18 16 14 13 12 11 11 11 11 12 12 9 6 7 7 6 6 6 6 7 8 9 9 8 7 6 7 8 10 11
27 26 24 24 22 35 41 39 33 28 25 24 23 22 20 18 15 14 13 12 13 13 12 14 11 9 8 7 6 6 7 7 7 7 8 9 8 8 7 7 9 11 11
29 30 29 26 27 26 34 42 41 34 30 27 26 25 24 22 19 17 15 15 15 14 13 14 13 11 10 8 7 7 7 7 7 7 8 8 8 8 8 8 9 11 11
28 29 30 29 29 27 28 37 42 41 36 32 29 28 27 25 23 20 19 18 18 16 15 15 14 13 11 10 8 8 7 7 7 7 7 8 9 9 9 9 10 11 12
30 30 31 32 30 29 27 29 36 41 41 38 36 31 30 29 27 24 22 22 20 17 18 16 15 15 13 12 10 8 8 9 9 9 9 9 9 10 10 10 11 12 12
35 34 31 32 33 33 27 29 32 36 42 44 41 38 33 32 31 28 26 25 23 19 20 19 17 17 15 14 12 10 9 9 10 10 10 10 10 10 11 12 12 13 13
40 38 35 33 34 35 31 28 28 31 37 43 44 43 39 36 34 31 29 28 25 23 22 21 19 18 17 16 15 13 12 12 11 11 11 11 11 12 12 13 13 14 15
43 41 38 35 33 33 33 32 32 31 33 39 44 46 45 41 37 34 33 29 27 26 24 24 22 20 19 18 18 16 15 14 14 13 12 13 13 13 14 13 15 15 16
42 43 41 39 38 36 35 34 35 33 32 33 40 46 47 46 42 39 37 31 29 28 27 26 24 23 22 20 20 19 17 16 17 16 16 15 15 15 16 15 15 17 18
37 40 40 40 37 36 34 34 34 35 35 36 36 42 47 48 46 43 39 37 31 31 30 28 28 26 24 23 22 22 21 19 19 19 19 18 17 17 16 17 18 18 19
51 42 36 37 39 34 35 36 39 36 36 36 36 41 47 50 50 46 43 41 37 35 33 31 30 30 28 26 25 23 24 23 22 22 22 21 20 19 19 17 19 20 21
51 50 46 39 36 37 40 40 37 37 35 37 40 43 46 51 52 52 45 42 43 38 36 34 33 33 31 29 28 26 26 26 25 25 24 24 24 22 21 21 21 21 23
57 48 48 45 42 38 38 41 39 39 34 35 38 43 47 52 55 54 48 43 43 43 40 37 37 35 33 32 31 30 28 28 28 27 27 27 26 25 24 23 24 24 24
58 54 54 50 45 47 42 40 39 40 40 39 37 41 50 54 56 54 51 46 45 46 45 43 39 38 37 36 34 33 32 31 31 31 30 29 29 28 28 26 27 27 27
60 59 56 55 49 46 45 46 42 44 44 40 38 37 47 57 56 55 51 50 48 49 50 48 45 42 40 38 37 35 35 34 34 33 32 32 31 31 31 29 29 30 30
64 61 54 56 56 54 54 53 45 43 42 41 43 41 46 54 59 58 57 53 47 55 58 53 50 43 42 42 40 39 38 37 36 36 35 35 35 33 34 31 33 32 34
64 62 62 59 60 57 56 54 50 50 45 42 46 45 44 51 53 63 55 64 50 50 45 55 53 48 46 46 44 42 40 40 39 38 39 38 37 37 36 36 34 37 37
67 63 61 59 58 60 61 57 55 50 47 46 41 40 40 49 49 59 51 50 65 62 56 47 46 53 53 51 45 44 44 43 42 41 41 41 40 38 39 39 36 39 38
68 64 62 64 65 62 61 60 57 51 51 48 47 42 44 47 52 57 56 46 53 65 63 61 51 54 51 49 46 47 47 46 45 44 43 43 41 41 40 44 44 44 44
67 62 62 61 59 56 58 52 51 47 52 50 49 47 41 35 49 57 57 60 46 51 67 72 62 60 52 58 54 51 50 48 48 47 45 43 40 41 43 46 46 52 40
64 61 60 58 56 53 56 55 52 50 51 44 42 39 39 37 36 59 60 49 41 45 71 68 68 69 63 61 55 54 52 52 51 51 48 45 45 46 45 48 55 49 57
63 62 57 55 54 51 56 56 53 52 52 47 41 40 40 36 34 42 53 46 39 37 35 57 71 69 68 69 64 63 59 58 57 58 57 50 52 50 54 53 55 58 56
58 57 53 54 52 50 51 57 57 51 43 40 41 32 30 27 26 39 53 42 45 32 33 38 51 69 69 70 67 60 61 62 63 61 58 58 60 60 50 50 54 51 45
45 48 49 47 42 47 52 54 56 45 42 47 35 29 29 34 39 35 35 38 45 37 48 42 38 46 66 68 63 60 63 64 66 60 49 38 30 27 31 35 40 42 41
36 43 44 42 42 41 48 53 52 47 47 44 41 36 34 36 43 41 42 49 42 41 38 41 45 36 42 45 47 46 44 42 38 34 35 33 35 40 39 39 38 37 36

GFSSE_500_spd_102.txt.gz
Wind_Speed
17 15 14 23 33 34 32 30 27 23 21 18 16 15 13 11 9 7 7 8 8 6 6 7 9 8 6 6 5 5 5 5 7 9 10 9 9 8 7 8 9 10 12
23 22 19 18 17 28 37 35 32 29 25 22 19 19 16 15 12 10 9 9 10 9 7 7 8 10 8 7 6 6 6 6 7 8 10 10 10 9 8 8 9 11 12
25 25 25 22 23 20 20 33 38 34 30 26 24 22 20 18 16 14 12 11 11 11 9 9 9 10 10 8 7 7 7 6 7 8 9 9 10 9 8 8 9 11 12
27 26 26 28 28 26 24 22 29 40 37 32 27 26 25 22 19 18 16 15 13 12 11 10 11 10 10 9 8 8 7 6 7 7 8 8 9 9 9 9 10 11 12
30 29 28 29 30 31 31 28 26 29 39 38 34 29 28 26 22 21 20 19 16 14 13 13 13 12 11 10 9 9 7 7 7 7 7 8 9 10 9 10 11 11 12
33 33 32 30 30 31 31 31 29 27 31 39 38 35 32 29 28 24 24 23 20 17 15 15 15 14 13 12 10 10 9 8 8 8 9 9 10 10 11 11 11 11 12
37 36 34 31 32 33 32 31 29 26 27 32 37 38 38 35 32 30 27 27 23 21 19 17 17 16 16 14 12 12 11 10 9 10 10 10 11 11 11 12 12 13 13
42 39 37 36 34 34 34 32 31 29 28 29 33 38 40 41 37 34 33 30 27 24 22 20 19 18 18 17 15 15 14 12 11 11 12 12 12 12 13 13 14 14 14
43 43 42 41 40 38 35 33 32 32 31 29 29 33 36 41 40 38 37 35 31 28 25 23 21 20 20 20 19 17 17 16 14 13 13 14 14 14 14 15 16 16 16
45 42 43 43 43 41 39 37 36 34 35 35 34 32 31 37 41 40 41 39 37 32 31 26 25 23 22 23 22 21 20 19 18 17 16 16 16 16 16 16 17 17 18
48 44 44 44 44 43 40 38 37 37 38 38 37 35 34 32 37 42 42 42 43 36 34 32 28 27 25 25 25 24 23 23 22 20 19 19 18 18 18 17 18 19 19
50 49 49 40 41 41 43 40 40 39 39 38 39 38 36 36 36 40 43 44 45 43 38 36 32 30 29 28 28 27 26 25 25 23 22 21 21 21 21 20 19 20 21
52 51 51 49 38 38 37 40 41 42 41 38 39 39 39 38 37 40 43 45 45 46 44 39 38 35 34 32 30 30 30 29 28 26 25 24 24 24 23 23 23 22 22
56 56 54 54 49 44 39 38 43 44 42 42 42 41 42 42 36 38 44 46 48 48 45 44 41 40 37 36 34 33 33 32 30 29 28 27 27 26 25 26 26 24 25
62 62 58 57 55 50 42 42 42 44 45 45 46 42 42 43 32 32 39 42 48 51 49 46 45 43 42 39 37 37 36 35 33 33 31 30 30 29 28 28 28 28 27
65 67 62 59 58 54 52 47 41 46 47 46 46 43 39 37 34 36 34 37 48 52 50 50 48 46 45 42 40 39 39 38 36 36 34 33 32 32 32 30 30 31 30
70 69 69 63 61 58 57 54 50 43 47 49 42 45 46 42 43 42 43 45 45 50 52 51 51 49 48 44 43 43 42 41 39 38 37 36 35 35 35 34 33 34 32
73 70 72 68 64 66 61 63 56 55 55 50 51 49 48 48 51 47 43 46 50 52 51 49 52 52 52 51 47 45 47 45 42 41 41 39 38 38 37 37 37 35 36
74 73 71 72 66 67 66 63 63 57 53 54 52 46 45 46 47 49 47 44 46 54 55 58 46 48 59 62 59 52 52 49 47 44 43 43 42 40 40 40 39 38 38
77 73 70 72 70 66 67 60 64 62 63 58 54 51 49 49 47 43 45 41 47 48 54 55 57 59 53 48 47 44 48 50 48 46 45 45 44 43 42 41 40 39 42
78 73 69 66 70 65 63 66 60 61 57 55 54 55 53 51 49 45 44 42 45 46 53 51 48 54 62 64 65 65 58 55 53 50 47 46 46 46 42 41 45 47 45
74 73 68 63 64 63 60 64 61 59 60 58 56 57 58 56 53 48 44 43 41 49 55 51 48 48 50 62 60 50 47 51 46 50 49 50 50 47 45 46 51 50 51
67 70 64 59 58 58 59 56 61 60 59 55 56 57 56 53 44 41 42 43 42 45 55 57 58 63 58 52 53 61 67 65 71 52 51 51 53 56 47 49 54 56 53
55 64 59 54 52 50 50 53 52 52 53 53 50 50 55 52 46 44 42 41 43 37 42 53 47 40 41 45 60 65 67 66 66 64 64 62 63 62 62 61 58 55 57
42 50 49 48 48 46 48 45 48 48 50 53 51 51 50 46 45 45 39 37 35 43 45 45 43 45 45 48 49 57 68 70 69 67 69 61 63 61 48 40 38 44 49
26 31 32 31 40 40 45 43 42 43 48 53 56 54 52 46 39 37 36 40 37 37 46 49 52 51 54 39 44 44 50 67 65 64 61 49 33 29 28 28 28 32 33

GFSSE_500_spd_105.txt.gz
Wind_Speed
14 14 13 14 18 29 33 29 26 25 23 20 18 16 13 11 10 8 5 5 5 5 6 6 4 3 4 4 4 4 4 6 6 8 9 10 9 9 8 8 8 9 11
18 18 18 18 16 15 22 31 32 28 28 25 23 21 18 15 13 11 9 7 6 6 6 9 7 5 5 5 5 4 5 5 6 7 8 9 10 10 9 9 9 10 11
23 22 21 21 21 19 18 18 26 33 33 31 28 26 23 20 17 15 13 11 9 7 8 8 10 8 6 7 6 5 5 5 6 6 7 8 9 9 9 9 9 11 12
26 26 25 23 23 24 23 22 21 20 27 35 33 30 26 24 22 20 18 16 13 9 9 9 10 9 9 8 7 6 6 6 5 5 6 7 8 8 9 9 9 10 11
29 28 28 27 25 25 27 25 24 25 23 24 34 36 31 27 25 23 22 20 17 14 12 10 11 11 10 10 9 8 7 7 7 5 6 7 8 9 10 10 10 11 11
34 33 31 29 29 28 27 29 27 26 26 25 26 33 35 32 28 27 26 24 21 18 16 13 12 13 13 11 11 10 9 8 8 7 8 9 9 10 10 11 12 13 13
38 36 34 33 32 31 30 30 30 28 27 26 24 25 32 34 32 30 29 28 25 23 20 19 16 16 15 14 14 13 12 11 10 10 9 10 10 11 11 11 13 13 14
39 37 37 38 36 35 34 32 32 31 30 28 26 25 27 31 34 33 33 31 29 27 25 23 20 19 18 17 16 16 16 15 13 12 12 11 11 12 13 13 14 14 15
43 41 37 37 40 39 38 35 34 33 32 32 28 28 27 28 30 33 37 35 34 31 28 28 26 23 21 20 19 19 20 19 18 16 14 14 14 14 15 15 15 15 15
45 44 42 42 40 42 42 40 39 38 36 35 34 33 32 30 29 32 34 36 36 35 33 30 30 29 25 23 23 22 22 22 21 20 18 17 17 17 17 16 16 16 16
46 48 44 45 45 42 43 41 42 40 39 38 37 37 37 34 32 31 32 36 39 41 41 34 32 32 30 28 26 26 25 25 25 24 23 21 20 19 19 19 19 18 18
46 48 48 46 46 45 42 41 42 42 41 40 39 40 40 39 36 35 35 35 37 40 40 39 37 35 35 33 31 30 29 28 27 27 26 25 23 22 22 21 22 21 20
42 47 48 49 50 48 45 41 42 43 46 46 43 43 42 41 40 39 38 37 37 39 41 42 40 39 37 37 36 33 32 31 31 30 29 28 26 25 25 24 24 24 23
43 38 43 50 51 51 49 47 43 42 44 45 46 45 43 43 41 40 40 41 40 40 40 41 42 42 41 38 38 37 36 35 34 33 32 31 30 28 27 27 26 26 26
56 53 48 43 50 55 53 50 41 45 47 47 47 47 46 43 41 42 41 36 37 39 41 42 43 45 43 41 39 40 39 38 37 36 35 34 33 31 30 29 29 28 28
66 63 60 55 50 53 58 56 52 47 49 50 51 52 49 45 45 43 41 36 36 35 33 38 40 45 47 47 43 41 40 39 39 38 38 37 35 34 33 32 32 31 31
73 72 68 65 61 55 60 62 59 50 44 46 46 48 47 47 47 46 46 42 43 42 39 36 42 47 48 49 47 46 43 41 40 40 39 39 38 37 36 36 35 35 34
81 78 76 72 68 63 61 64 62 59 56 59 46 57 56 52 48 47 46 44 43 42 41 43 45 42 50 49 48 47 47 46 42 42 42 41 40 40 40 40 39 38 37
80 83 80 79 75 70 63 67 66 65 59 60 52 36 45 52 48 45 49 46 47 47 47 46 48 52 55 55 52 51 50 48 47 46 43 44 43 42 43 43 42 41 41
76 75 84 83 78 72 67 69 69 68 67 57 65 62 50 48 47 47 48 49 48 49 50 54 51 48 51 60 50 47 42 49 54 55 52 49 47 48 45 44 43 43 43
73 73 76 77 77 70 68 69 68 68 70 70 55 61 58 57 50 55 49 49 48 47 50 50 48 49 50 55 55 54 44 56 51 46 41 44 50 51 50 46 45 45 44
77 76 70 70 67 69 65 63 66 67 69 71 69 62 64 59 52 49 50 51 53 51 46 46 44 46 51 55 57 55 54 58 55 53 59 59 57 54 51 50 47 44 44
39 52 60 61 60 56 61 61 58 58 61 64 68 62 61 66 60 53 52 56 57 52 44 49 48 47 56 55 47 55 54 51 44 47 54 55 55 56 54 55 52 57 57
29 40 51 54 56 52 53 49 51 52 57 55 59 65 54 57 56 52 54 56 59 49 44 47 48 50 50 55 53 50 53 55 55 48 46 53 55 56 58 66 56 58 57
16 29 40 43 48 53 58 50 47 45 47 52 48 55 57 51 52 51 52 51 53 52 48 48 50 50 44 54 56 52 44 48 47 51 52 60 66 69 64 63 65 55 50
7 15 23 28 36 43 48 45 41 40 43 44 45 45 48 54 54 50 49 50 48 49 46 47 44 42 42 42 45 49 51 50 48 48 50 55 64 63 64 57 47 40 40

GFSSE_500_spd_108.txt.gz
Wind_Speed
14 13 11 10 11 18 27 29 28 26 24 22 20 17 16 14 12 10 8 7 7 7 7 5 4 4 3 3 3 3 3 5 6 7 9 9 10 10 10 10 9 10 11
17 16 16 15 14 13 13 21 28 30 29 27 26 24 20 18 16 14 12 10 8 8 9 7 5 6 4 4 4 3 4 5 7 7 8 9 10 11 11 10 10 9 10
23 21 19 18 17 17 16 17 16 21 29 31 30 29 27 23 21 19 16 14 12 10 8 8 7 7 7 6 5 5 5 5 6 8 8 8 9 10 10 11 11 10 11
27 26 24 22 21 20 18 19 20 19 18 20 28 32 31 28 26 24 22 19 16 14 10 11 10 9 8 7 7 7 7 6 6 7 8 8 8 9 10 11 11 11 12
29 28 28 28 25 22 22 21 20 19 21 22 23 22 28 32 30 27 26 23 20 18 16 14 14 12 11 10 9 9 8 8 8 8 9 8 9 9 10 11 11 12 12
33 33 32 31 29 28 26 25 24 22 21 21 21 24 26 27 33 32 29 27 24 23 21 19 16 15 15 13 12 12 11 10 10 10 10 10 10 10 11 11 12 12 13
36 36 36 35 33 32 31 28 28 27 24 23 22 22 23 26 28 32 33 30 27 26 25 23 21 18 17 16 15 15 14 14 13 12 12 12 11 11 12 12 13 14 14
38 39 39 37 37 36 34 33 32 31 30 28 26 24 24 23 26 29 32 31 28 26 27 27 26 24 21 19 19 18 18 17 16 15 15 15 14 14 14 14 14 15 15
42 43 41 41 38 37 38 37 36 35 35 33 31 29 28 27 27 28 30 34 34 32 30 31 29 28 26 24 22 22 21 21 20 19 19 18 17 17 16 16 16 16 16
45 45 46 43 44 42 40 39 39 39 38 37 35 35 34 32 29 29 30 31 33 35 35 34 32 31 30 29 27 26 25 25 24 23 22 22 21 20 20 19 19 18 19
40 46 47 47 45 45 45 43 40 41 42 40 40 39 39 37 35 34 32 31 33 32 32 35 34 32 32 32 31 31 29 28 27 27 26 25 24 24 23 22 22 21 21
31 36 41 47 49 47 48 48 46 44 43 43 43 42 43 41 40 38 36 35 34 34 34 36 40 38 36 35 35 34 34 32 30 30 30 29 28 27 26 25 24 24 23
40 38 35 40 44 48 47 50 49 47 45 44 45 45 45 45 44 43 41 39 34 33 35 37 39 41 40 37 38 38 37 36 33 32 32 32 31 30 29 28 27 26 26
44 45 45 44 42 44 47 48 52 51 47 47 47 47 47 47 47 47 44 41 37 34 36 35 41 43 43 42 41 40 38 38 37 35 34 34 34 33 32 31 30 28 28
52 52 53 51 51 49 44 45 49 53 53 47 45 46 49 52 53 49 47 40 41 40 39 38 36 41 41 42 43 42 40 41 39 39 38 36 36 36 35 34 33 31 31
60 60 61 60 58 56 55 54 48 48 53 53 47 48 51 49 50 49 50 47 47 43 40 38 36 35 35 40 44 43 43 43 44 43 40 38 38 37 37 37 36 35 34
70 69 69 68 66 64 61 60 58 54 47 55 50 42 53 50 48 47 51 50 49 49 40 36 35 35 34 35 35 39 45 48 45 46 44 42 39 38 38 38 38 38 37
73 75 76 75 74 71 69 66 63 60 58 51 59 53 50 53 56 50 52 52 51 48 45 43 44 40 41 33 36 37 39 48 49 48 47 45 42 41 38 41 41 40 40
77 78 80 82 79 77 75 73 70 66 63 58 56 61 56 46 44 45 53 53 50 49 48 47 45 45 46 46 44 47 46 39 43 49 48 46 46 45 42 42 43 43 43
80 81 81 83 85 82 79 76 72 68 66 61 59 63 61 50 49 53 56 58 53 51 48 46 44 44 44 47 49 51 51 53 49 52 56 51 44 47 46 45 46 46 45
75 80 82 83 80 83 80 75 72 71 68 62 63 64 68 74 56 48 48 49 52 47 45 48 47 45 46 47 50 53 53 54 60 56 45 44 44 45 57 55 51 47 49
64 78 79 80 80 80 78 67 65 66 68 66 66 67 66 75 63 58 51 42 45 44 49 49 47 48 49 48 50 52 53 53 55 55 56 52 51 52 52 43 47 51 54
40 43 58 75 80 75 74 67 61 59 66 67 67 69 70 75 75 66 55 56 45 46 50 49 51 53 53 49 51 52 50 51 55 58 54 60 53 53 49 54 54 60 62
30 26 29 37 54 62 63 58 49 53 61 61 67 65 66 70 79 80 72 54 54 51 49 53 52 54 51 47 47 52 53 50 54 55 55 59 52 52 50 52 55 57 61
23 19 23 27 37 38 39 44 42 41 53 57 55 54 55 61 69 74 71 60 54 60 65 54 52 51 53 51 49 52 54 53 53 54 50 49 55 60 54 50 51 53 54
18 8 11 18 28 43 39 31 46 40 41 44 47 44 47 46 56 64 63 63 57 58 57 54 53 53 50 50 49 49 49 49 47 53 56 52 48 46 50 50 52 58 65

GFSSE_500_spd_111.txt.gz
Wind_Speed
14 12 13 13 13 13 22 28 27 25 23 22 20 19 16 14 13 13 12 10 9 9 9 7 5 4 3 2 3 4 4 5 5 7 8 9 9 9 9 10 10 10 10
17 16 16 15 16 14 14 13 20 26 27 27 26 25 23 20 18 16 16 14 12 11 9 10 9 7 6 4 3 3 4 5 6 7 8 9 10 10 10 10 10 10 10
22 21 20 19 18 17 18 16 16 14 15 22 29 29 27 26 23 21 19 19 17 14 11 11 11 10 9 8 6 5 4 6 7 7 8 9 10 10 9 9 10 11 10
26 25 24 24 22 21 20 20 20 19 18 17 17 21 27 28 28 25 23 22 21 19 15 13 13 13 11 11 10 8 7 6 7 8 9 10 10 9 9 9 10 10 10
30 29 27 27 25 25 24 22 21 21 19 19 20 19 18 20 26 31 27 24 24 23 22 17 17 17 15 13 12 12 10 9 8 8 9 11 11 10 10 10 10 10 10
34 33 32 31 30 29 27 26 25 24 23 21 21 21 21 21 21 25 29 29 27 25 25 22 21 19 19 17 15 15 15 13 12 10 10 11 12 12 11 11 11 11 11
37 37 36 36 35 34 32 30 29 28 26 25 24 23 23 23 22 22 24 28 29 28 27 27 25 23 22 22 20 18 17 17 16 15 13 13 13 14 13 13 13 13 13
39 39 39 39 38 37 36 34 32 32 31 30 29 27 26 25 24 23 23 26 29 31 29 27 26 26 25 25 24 22 20 20 20 19 18 17 16 15 16 15 15 15 15
42 42 42 42 41 41 39 39 38 37 36 36 34 32 31 30 28 26 26 25 28 31 32 30 30 29 28 29 28 27 25 23 22 23 23 21 20 19 18 18 18 18 18
43 44 44 45 45 44 43 43 41 40 41 40 38 38 36 34 34 32 31 30 30 31 32 34 34 33 32 31 32 30 29 29 26 25 25 26 24 23 22 21 20 20 20
34 36 40 43 45 45 46 45 45 46 44 43 43 41 39 38 38 37 35 34 33 32 31 32 33 35 36 34 34 33 32 31 31 29 27 27 27 27 26 25 24 23 22
31 31 32 34 38 41 43 46 47 48 47 47 45 46 44 43 42 42 40 39 37 36 34 33 34 34 35 35 35 32 33 34 33 32 31 30 30 30 30 29 28 27 26
36 37 38 38 38 38 40 41 43 48 51 51 51 48 47 46 46 45 44 43 42 39 35 36 36 38 38 39 39 40 39 36 36 36 34 33 32 32 32 31 31 30 29
42 43 44 43 42 42 43 44 44 43 47 52 52 50 48 48 48 48 47 46 45 42 39 38 37 37 41 42 41 42 40 40 38 38 37 36 35 34 34 33 33 33 32
47 48 49 50 50 49 49 48 48 49 48 48 52 54 49 47 49 48 49 48 47 45 42 42 41 39 38 39 41 41 41 42 42 41 40 41 40 37 36 36 35 35 35
55 55 55 55 55 55 57 56 54 53 52 51 48 51 54 52 48 47 46 48 49 48 47 45 43 43 43 41 39 38 41 40 40 43 43 42 43 41 39 38 37 37 37
59 62 63 64 65 64 62 63 62 60 58 56 54 53 51 53 53 49 43 46 47 48 48 47 47 42 39 39 42 35 35 34 31 38 43 44 43 44 42 40 40 38 38
64 66 69 72 73 73 72 70 69 67 65 63 60 57 55 53 54 45 43 47 51 48 48 51 48 46 45 38 39 36 34 36 36 36 38 39 45 46 44 43 41 40 39
70 73 75 77 80 80 79 78 76 74 72 69 66 61 60 57 55 55 52 43 49 50 51 56 54 51 47 45 44 46 44 39 39 42 41 43 42 46 46 46 48 44 43
63 68 73 77 81 85 86 85 83 76 75 74 70 68 65 61 60 55 61 50 55 48 48 46 47 47 47 48 51 51 52 50 49 50 50 48 48 44 43 45 46 46 47
63 68 75 80 81 82 83 87 87 80 76 74 71 70 68 64 64 62 58 67 54 47 53 53 53 50 51 51 51 49 47 48 51 49 50 49 51 57 55 50 50 46 42
59 60 64 61 66 63 74 78 80 75 75 71 70 69 71 69 67 64 62 65 58 48 55 51 56 53 50 52 50 50 49 46 48 47 50 51 53 53 56 53 47 49 50
55 52 60 65 66 68 66 73 77 72 67 67 63 62 67 69 66 66 66 62 74 54 51 48 44 46 43 43 46 48 48 48 49 51 51 53 52 51 52 51 54 55 53
49 52 58 54 50 49 50 57 66 64 59 57 58 57 57 63 67 67 65 64 66 77 71 52 43 41 38 41 43 45 47 48 50 51 51 53 54 51 53 54 54 57 56
41 41 44 33 34 34 35 34 45 54 44 48 50 56 51 56 65 67 68 64 64 67 74 76 68 62 45 44 47 49 48 51 54 52 52 54 55 54 51 54 53 53 55
30 31 29 22 17 17 19 25 35 45 47 44 43 54 54 54 58 61 65 63 60 65 69 68 76 70 53 48 47 53 51 52 53 55 55 51 51 48 47 45 48 47 49

GFSSE_500_spd_114.txt.gz
Wind_Speed
12 12 13 13 13 11 11 17 25 25 24 23 21 19 16 15 14 13 12 11 11 10 10 11 9 7 5 5 4 3 3 4 5 6 6 8 8 8 9 7 7 8 8
16 16 16 16 16 15 14 12 11 18 24 26 26 25 23 21 19 18 16 14 13 14 12 12 12 11 9 8 6 5 4 4 5 6 7 8 9 9 9 8 8 7 7
20 20 19 19 19 19 19 17 16 15 13 14 21 26 27 27 24 21 20 19 17 15 16 14 14 14 12 11 10 9 7 6 5 5 7 8 9 9 8 8 8 8 8
25 25 24 23 22 22 21 20 19 20 18 17 15 15 17 23 27 27 25 23 21 20 17 18 17 16 15 14 12 12 11 10 8 6 7 8 9 9 9 9 9 9 9
29 28 27 26 25 24 24 23 22 22 19 19 19 18 18 17 17 20 23 26 26 24 22 20 21 19 18 17 16 14 14 13 12 10 9 9 10 9 10 10 10 10 10
32 32 31 30 30 29 28 26 26 25 24 22 21 20 19 19 20 22 22 21 24 27 26 25 24 23 22 21 20 18 17 16 15 14 13 12 11 12 11 12 12 12 12
35 34 34 34 34 34 34 32 30 29 28 27 25 24 23 22 21 21 22 22 22 23 28 30 27 25 24 24 23 22 21 19 18 17 16 16 15 14 14 13 13 13 13
39 39 38 37 37 37 37 37 35 34 33 32 30 29 28 27 26 23 23 23 24 26 24 28 30 28 27 27 26 26 25 23 21 21 20 19 19 18 17 16 16 15 15
41 42 42 41 41 41 40 39 38 37 37 36 35 35 33 31 31 30 28 26 26 26 27 28 30 30 29 27 28 29 28 26 25 24 22 23 22 22 21 20 19 19 18
38 41 43 45 45 45 44 43 42 41 40 40 40 40 38 38 36 34 33 32 30 29 30 31 31 32 32 33 33 32 30 30 28 27 26 25 25 25 24 23 23 22 22
26 28 31 33 36 40 45 47 46 46 45 43 44 43 42 42 41 41 39 37 34 34 34 33 33 33 33 34 34 34 33 32 31 31 28 27 26 27 27 27 26 25 25
32 31 32 32 33 34 35 37 37 43 46 47 47 47 48 45 44 44 43 43 40 38 37 36 35 36 35 35 34 34 34 33 33 32 31 30 29 29 28 29 29 28 27
36 37 39 38 38 38 39 39 39 39 39 41 46 49 49 48 47 45 46 46 46 45 41 39 36 37 38 38 38 38 36 35 36 34 33 33 33 32 31 31 30 30 30
39 40 43 44 44 43 43 43 42 42 42 42 42 43 46 50 50 50 49 48 50 48 46 42 40 38 38 39 40 42 43 41 39 38 38 39 36 34 35 34 33 32 32
50 50 50 49 49 49 49 50 50 50 49 49 48 45 45 45 46 49 51 50 47 48 48 45 44 42 40 41 41 40 41 41 42 43 38 40 39 38 36 35 35 35 34
53 53 54 55 57 57 56 56 56 56 56 55 54 53 51 48 46 48 50 51 50 47 47 45 44 44 44 42 43 43 42 41 39 38 39 37 40 40 39 38 38 37 37
54 56 57 59 61 62 62 63 62 62 62 61 59 58 54 55 51 51 51 50 52 48 44 43 41 43 44 44 44 43 45 44 40 39 35 30 33 37 40 40 40 40 39
55 58 60 63 66 68 69 70 71 69 68 67 66 64 61 61 61 56 53 53 50 50 49 43 43 43 43 47 45 47 44 42 41 35 38 35 32 33 35 34 39 43 43
60 63 65 68 68 71 74 76 76 77 76 72 72 70 68 66 64 62 59 57 53 46 49 42 41 47 45 38 43 45 44 44 45 43 38 39 35 33 34 37 37 42 44
53 54 58 62 65 69 74 77 79 80 79 79 76 75 71 69 65 60 55 56 55 55 51 47 44 41 48 47 46 47 49 51 50 49 47 46 45 44 43 46 46 43 46
59 61 61 62 69 74 76 77 79 81 84 82 78 79 75 68 66 66 64 61 55 57 54 61 56 51 48 48 47 49 48 49 51 53 52 50 48 48 46 44 43 44 46
60 60 60 62 63 69 75 75 71 68 68 71 74 80 78 73 70 71 71 69 66 61 62 58 66 46 40 51 51 51 50 53 54 52 51 46 48 47 46 46 43 44 45
55 51 50 55 62 64 63 65 69 72 70 69 60 59 67 66 69 64 68 71 69 65 64 63 61 64 66 55 63 58 52 56 55 51 50 47 45 46 45 45 47 47 46
43 47 50 44 45 54 57 57 57 56 57 63 63 52 55 57 61 56 40 54 68 66 63 64 66 57 59 52 56 50 51 53 55 49 45 43 43 42 45 46 50 49 51
40 36 32 37 48 44 40 36 34 34 39 42 49 47 48 47 42 58 72 54 61 64 64 61 57 58 59 62 45 51 40 41 40 43 43 39 42 41 44 46 50 51 51
34 30 27 33 35 27 17 11 12 10 12 22 35 40 41 38 43 52 47 45 51 56 60 64 64 62 61 62 57 60 56 65 57 46 45 44 43 45 48 50 53 57 52

GFSSE_500_spd_117.txt.gz
Wind_Speed
13 12 12 12 11 11 11 9 15 22 24 23 22 20 18 17 17 14 12 11 12 10 11 11 11 10 9 7 7 6 6 6 6 7 7 7 7 7 7 5 5 5 6
16 15 15 14 14 13 14 13 12 11 16 24 26 26 24 23 22 20 18 16 13 13 13 13 14 13 13 11 9 8 7 7 7 7 7 8 7 7 8 7 6 5 6
18 18 18 18 17 18 17 16 16 16 14 13 14 21 28 27 27 26 24 21 19 16 15 15 16 15 14 14 13 11 10 9 8 9 8 8 8 7 8 8 7 6 7
22 23 23 21 22 21 21 19 18 18 16 16 16 16 17 20 23 26 28 27 25 23 20 18 18 18 17 17 16 16 14 13 11 10 10 10 9 9 8 9 9 8 7
25 26 27 25 23 22 23 22 21 21 20 18 17 17 18 20 20 19 19 21 26 27 26 23 22 21 21 20 19 18 17 16 15 13 13 12 12 11 11 11 10 10 9
28 28 28 28 27 27 26 27 26 25 24 23 22 21 20 20 20 20 21 22 22 22 24 28 27 23 23 24 23 22 20 19 18 17 17 15 14 13 13 13 13 12 12
33 33 32 32 30 30 32 33 31 30 29 28 27 26 25 23 22 22 21 21 23 23 24 24 25 28 25 26 26 25 23 22 21 20 20 18 17 16 15 16 16 15 15
36 36 36 36 36 35 35 35 35 35 34 34 33 32 30 29 28 27 25 24 24 25 24 24 25 24 27 27 27 28 27 25 23 22 22 21 21 20 18 17 17 18 18
40 40 39 39 40 39 39 39 39 39 37 36 37 36 36 35 34 32 31 29 29 27 27 26 26 27 26 27 29 28 28 28 27 25 25 23 23 23 22 21 21 20 20
37 38 39 40 41 42 43 43 43 42 42 41 39 39 39 39 40 38 36 35 34 33 31 30 30 30 29 29 29 32 32 31 29 28 28 26 26 25 24 24 24 24 23
27 28 30 31 32 35 38 39 41 44 46 46 45 44 43 43 43 42 42 40 39 39 37 35 34 33 33 31 30 32 32 33 32 30 30 30 28 27 27 26 26 26 26
29 30 32 33 34 34 34 34 34 36 38 40 41 45 47 47 47 46 45 44 43 43 41 40 39 37 34 35 35 35 35 33 31 34 32 32 31 30 29 28 28 27 28
33 34 35 37 38 39 39 40 39 38 38 38 38 38 37 40 46 49 48 47 48 46 46 45 44 40 38 38 37 38 38 37 34 33 33 33 32 32 32 31 29 29 29
37 38 40 41 43 45 45 45 46 45 42 41 41 40 38 39 40 40 43 47 49 50 49 47 47 46 44 41 39 39 39 39 40 38 37 38 38 38 38 36 34 32 31
46 48 50 50 51 52 52 52 53 52 51 49 49 48 48 47 43 43 42 43 45 49 52 52 51 49 46 46 42 41 40 41 41 39 38 39 41 40 41 39 38 36 35
48 50 51 52 52 53 54 56 56 57 58 59 57 56 55 52 50 49 47 47 45 43 46 50 50 49 48 47 45 42 41 41 42 41 39 39 40 36 38 41 41 40 37
47 49 51 54 55 57 57 58 60 62 61 62 63 63 62 62 59 55 51 49 49 48 45 44 48 49 47 47 43 43 44 44 46 46 43 44 41 37 38 38 39 39 39
48 50 52 55 58 61 63 65 65 66 67 68 67 69 68 67 65 62 58 55 52 52 50 50 48 47 51 48 40 39 42 46 47 48 46 44 44 42 37 34 33 32 33
51 55 58 60 63 65 67 70 73 74 73 74 73 71 72 72 70 64 64 63 61 59 54 53 54 52 48 51 41 43 41 47 44 44 48 46 43 36 36 37 34 33 32
50 49 53 55 58 62 67 69 71 71 71 71 71 70 70 72 72 71 65 66 64 62 60 59 56 60 53 46 48 43 41 49 47 48 48 47 47 45 43 42 41 38 40
46 52 55 61 64 68 72 72 73 75 77 76 74 73 73 74 75 72 73 69 65 63 59 57 52 61 55 49 47 53 50 51 51 53 52 52 55 52 51 45 48 49 46
50 54 56 65 63 61 58 61 66 70 72 74 77 78 78 77 75 77 76 68 71 66 61 60 58 57 59 57 55 57 50 57 55 54 54 55 51 51 52 53 51 47 44
50 51 57 52 45 48 51 52 57 62 65 68 69 69 69 68 67 68 69 75 67 70 67 67 63 59 58 61 60 58 60 51 50 47 57 50 46 50 56 56 55 50 45
46 45 50 39 40 36 39 44 45 46 50 54 56 61 65 65 64 60 60 61 65 63 63 69 71 68 66 59 63 59 59 67 65 53 54 61 55 55 57 58 54 50 45
43 45 42 37 33 28 29 40 37 29 30 33 34 38 43 50 58 59 52 53 51 56 59 46 53 67 76 70 60 55 52 44 44 49 55 56 49 51 51 52 48 45 44
38 38 37 31 29 21 28 30 30 33 20 16 17 19 23 30 37 45 45 51 32 55 51 48 40 47 48 59 64 64 60 54 48 52 45 49 43 40 47 46 43 42 43